<?xml version="1.0" encoding="UTF-8" standalone="no" ?>
<gpx xmlns="http://www.topografix.com/GPX/1/1" xmlns:xsi="http://www.w3.org/2001/XMLSchema-instance" xsi:schemaLocation="http://www.topografix.com/GPX/1/1 http://www.topografix.com/GPX/1/1/gpx.xsd" version="1.1" creator="VisuGPX - https://www.visugpx.com">
  <metadata>
    <name>Trace Val d'Enfer du 0712207</name>
    <desc><![CDATA[Randonnée à la journée effectuée par 15 membres du SCLapalud]]></desc>
  </metadata>
  <trk>
    <name><![CDATA[2017-12-07 14-32-45]]></name>
    <trkseg>
      <trkpt lat="44.4825" lon="4.67945">
        <ele>82</ele>
        <time>2017-12-07T07:36:21Z</time>
      </trkpt>
      <trkpt lat="44.48251" lon="4.67944">
        <ele>82</ele>
        <time>2017-12-07T07:36:55Z</time>
      </trkpt>
      <trkpt lat="44.48251" lon="4.67942">
        <ele>82</ele>
        <time>2017-12-07T07:37:23Z</time>
      </trkpt>
      <trkpt lat="44.48245" lon="4.6794">
        <ele>82</ele>
        <time>2017-12-07T07:37:39Z</time>
      </trkpt>
      <trkpt lat="44.48245" lon="4.6794">
        <ele>82</ele>
        <time>2017-12-07T07:38:04Z</time>
      </trkpt>
      <trkpt lat="44.48245" lon="4.67941">
        <ele>82</ele>
        <time>2017-12-07T07:38:29Z</time>
      </trkpt>
      <trkpt lat="44.48246" lon="4.67941">
        <ele>83</ele>
        <time>2017-12-07T07:38:52Z</time>
      </trkpt>
      <trkpt lat="44.48245" lon="4.67942">
        <ele>83</ele>
        <time>2017-12-07T07:39:08Z</time>
      </trkpt>
      <trkpt lat="44.48246" lon="4.67941">
        <ele>83</ele>
        <time>2017-12-07T07:39:26Z</time>
      </trkpt>
      <trkpt lat="44.48247" lon="4.67941">
        <ele>83</ele>
        <time>2017-12-07T07:39:36Z</time>
      </trkpt>
      <trkpt lat="44.48247" lon="4.67941">
        <ele>82</ele>
        <time>2017-12-07T07:39:54Z</time>
      </trkpt>
      <trkpt lat="44.48247" lon="4.67941">
        <ele>82</ele>
        <time>2017-12-07T07:40:08Z</time>
      </trkpt>
      <trkpt lat="44.48247" lon="4.6794">
        <ele>82</ele>
        <time>2017-12-07T07:40:27Z</time>
      </trkpt>
      <trkpt lat="44.48241" lon="4.6794">
        <ele>82</ele>
        <time>2017-12-07T07:40:41Z</time>
      </trkpt>
      <trkpt lat="44.48241" lon="4.67938">
        <ele>82</ele>
        <time>2017-12-07T07:40:54Z</time>
      </trkpt>
      <trkpt lat="44.48242" lon="4.67939">
        <ele>82</ele>
        <time>2017-12-07T07:41:13Z</time>
      </trkpt>
      <trkpt lat="44.48241" lon="4.67939">
        <ele>82</ele>
        <time>2017-12-07T07:41:28Z</time>
      </trkpt>
      <trkpt lat="44.4824" lon="4.67939">
        <ele>82</ele>
        <time>2017-12-07T07:41:42Z</time>
      </trkpt>
      <trkpt lat="44.4824" lon="4.67938">
        <ele>82</ele>
        <time>2017-12-07T07:42:02Z</time>
      </trkpt>
      <trkpt lat="44.48233" lon="4.67938">
        <ele>82</ele>
        <time>2017-12-07T07:42:15Z</time>
      </trkpt>
      <trkpt lat="44.48228" lon="4.67936">
        <ele>83</ele>
        <time>2017-12-07T07:42:25Z</time>
      </trkpt>
      <trkpt lat="44.48218" lon="4.67934">
        <ele>84</ele>
        <time>2017-12-07T07:42:40Z</time>
      </trkpt>
      <trkpt lat="44.48209" lon="4.67932">
        <ele>84</ele>
        <time>2017-12-07T07:42:53Z</time>
      </trkpt>
      <trkpt lat="44.48205" lon="4.6793">
        <ele>84</ele>
        <time>2017-12-07T07:42:58Z</time>
      </trkpt>
      <trkpt lat="44.48195" lon="4.67927">
        <ele>85</ele>
        <time>2017-12-07T07:43:09Z</time>
      </trkpt>
      <trkpt lat="44.48185" lon="4.67924">
        <ele>86</ele>
        <time>2017-12-07T07:43:22Z</time>
      </trkpt>
      <trkpt lat="44.48182" lon="4.67922">
        <ele>86</ele>
        <time>2017-12-07T07:43:31Z</time>
      </trkpt>
      <trkpt lat="44.4817" lon="4.6791">
        <ele>87</ele>
        <time>2017-12-07T07:43:46Z</time>
      </trkpt>
      <trkpt lat="44.4817" lon="4.67909">
        <ele>87</ele>
        <time>2017-12-07T07:43:53Z</time>
      </trkpt>
      <trkpt lat="44.48163" lon="4.67904">
        <ele>87</ele>
        <time>2017-12-07T07:43:59Z</time>
      </trkpt>
      <trkpt lat="44.48153" lon="4.67895">
        <ele>87</ele>
        <time>2017-12-07T07:44:11Z</time>
      </trkpt>
      <trkpt lat="44.48146" lon="4.67888">
        <ele>87</ele>
        <time>2017-12-07T07:44:20Z</time>
      </trkpt>
      <trkpt lat="44.48135" lon="4.67882">
        <ele>88</ele>
        <time>2017-12-07T07:44:31Z</time>
      </trkpt>
      <trkpt lat="44.48125" lon="4.67875">
        <ele>88</ele>
        <time>2017-12-07T07:44:46Z</time>
      </trkpt>
      <trkpt lat="44.48118" lon="4.67867">
        <ele>88</ele>
        <time>2017-12-07T07:44:58Z</time>
      </trkpt>
      <trkpt lat="44.48109" lon="4.67857">
        <ele>89</ele>
        <time>2017-12-07T07:45:10Z</time>
      </trkpt>
      <trkpt lat="44.48105" lon="4.67852">
        <ele>89</ele>
        <time>2017-12-07T07:45:16Z</time>
      </trkpt>
      <trkpt lat="44.48095" lon="4.67846">
        <ele>89</ele>
        <time>2017-12-07T07:45:31Z</time>
      </trkpt>
      <trkpt lat="44.48094" lon="4.67845">
        <ele>89</ele>
        <time>2017-12-07T07:45:33Z</time>
      </trkpt>
      <trkpt lat="44.48084" lon="4.6784">
        <ele>90</ele>
        <time>2017-12-07T07:45:45Z</time>
      </trkpt>
      <trkpt lat="44.48076" lon="4.67834">
        <ele>90</ele>
        <time>2017-12-07T07:45:59Z</time>
      </trkpt>
      <trkpt lat="44.48071" lon="4.67832">
        <ele>90</ele>
        <time>2017-12-07T07:46:09Z</time>
      </trkpt>
      <trkpt lat="44.48069" lon="4.67829">
        <ele>90</ele>
        <time>2017-12-07T07:46:14Z</time>
      </trkpt>
      <trkpt lat="44.48063" lon="4.6782">
        <ele>91</ele>
        <time>2017-12-07T07:46:27Z</time>
      </trkpt>
      <trkpt lat="44.48061" lon="4.67817">
        <ele>91</ele>
        <time>2017-12-07T07:46:32Z</time>
      </trkpt>
      <trkpt lat="44.48059" lon="4.67813">
        <ele>91</ele>
        <time>2017-12-07T07:46:37Z</time>
      </trkpt>
      <trkpt lat="44.48049" lon="4.67808">
        <ele>92</ele>
        <time>2017-12-07T07:46:49Z</time>
      </trkpt>
      <trkpt lat="44.48045" lon="4.67803">
        <ele>92</ele>
        <time>2017-12-07T07:46:58Z</time>
      </trkpt>
      <trkpt lat="44.48043" lon="4.67795">
        <ele>93</ele>
        <time>2017-12-07T07:47:11Z</time>
      </trkpt>
      <trkpt lat="44.48042" lon="4.67785">
        <ele>93</ele>
        <time>2017-12-07T07:47:23Z</time>
      </trkpt>
      <trkpt lat="44.48043" lon="4.67771">
        <ele>93</ele>
        <time>2017-12-07T07:47:34Z</time>
      </trkpt>
      <trkpt lat="44.48044" lon="4.6776">
        <ele>95</ele>
        <time>2017-12-07T07:47:47Z</time>
      </trkpt>
      <trkpt lat="44.48045" lon="4.67756">
        <ele>95</ele>
        <time>2017-12-07T07:47:49Z</time>
      </trkpt>
      <trkpt lat="44.48045" lon="4.67747">
        <ele>95</ele>
        <time>2017-12-07T07:47:58Z</time>
      </trkpt>
      <trkpt lat="44.48045" lon="4.67744">
        <ele>95</ele>
        <time>2017-12-07T07:48:01Z</time>
      </trkpt>
      <trkpt lat="44.48045" lon="4.67734">
        <ele>96</ele>
        <time>2017-12-07T07:48:11Z</time>
      </trkpt>
      <trkpt lat="44.48043" lon="4.6773">
        <ele>97</ele>
        <time>2017-12-07T07:48:20Z</time>
      </trkpt>
      <trkpt lat="44.4804" lon="4.67725">
        <ele>97</ele>
        <time>2017-12-07T07:48:27Z</time>
      </trkpt>
      <trkpt lat="44.48039" lon="4.67721">
        <ele>97</ele>
        <time>2017-12-07T07:48:30Z</time>
      </trkpt>
      <trkpt lat="44.48028" lon="4.67714">
        <ele>98</ele>
        <time>2017-12-07T07:48:44Z</time>
      </trkpt>
      <trkpt lat="44.4802" lon="4.67706">
        <ele>100</ele>
        <time>2017-12-07T07:48:59Z</time>
      </trkpt>
      <trkpt lat="44.48017" lon="4.67703">
        <ele>100</ele>
        <time>2017-12-07T07:49:12Z</time>
      </trkpt>
      <trkpt lat="44.48015" lon="4.677">
        <ele>100</ele>
        <time>2017-12-07T07:49:15Z</time>
      </trkpt>
      <trkpt lat="44.48006" lon="4.67691">
        <ele>100</ele>
        <time>2017-12-07T07:49:27Z</time>
      </trkpt>
      <trkpt lat="44.47998" lon="4.67685">
        <ele>100</ele>
        <time>2017-12-07T07:49:39Z</time>
      </trkpt>
      <trkpt lat="44.4799" lon="4.67675">
        <ele>101</ele>
        <time>2017-12-07T07:49:50Z</time>
      </trkpt>
      <trkpt lat="44.4799" lon="4.67674">
        <ele>101</ele>
        <time>2017-12-07T07:49:52Z</time>
      </trkpt>
      <trkpt lat="44.47986" lon="4.67669">
        <ele>102</ele>
        <time>2017-12-07T07:50:00Z</time>
      </trkpt>
      <trkpt lat="44.4798" lon="4.67659">
        <ele>103</ele>
        <time>2017-12-07T07:50:14Z</time>
      </trkpt>
      <trkpt lat="44.47977" lon="4.67652">
        <ele>103</ele>
        <time>2017-12-07T07:50:21Z</time>
      </trkpt>
      <trkpt lat="44.47971" lon="4.67642">
        <ele>103</ele>
        <time>2017-12-07T07:50:32Z</time>
      </trkpt>
      <trkpt lat="44.4797" lon="4.67634">
        <ele>104</ele>
        <time>2017-12-07T07:50:43Z</time>
      </trkpt>
      <trkpt lat="44.47968" lon="4.67617">
        <ele>106</ele>
        <time>2017-12-07T07:50:58Z</time>
      </trkpt>
      <trkpt lat="44.47966" lon="4.67602">
        <ele>107</ele>
        <time>2017-12-07T07:51:12Z</time>
      </trkpt>
      <trkpt lat="44.47965" lon="4.676">
        <ele>107</ele>
        <time>2017-12-07T07:51:14Z</time>
      </trkpt>
      <trkpt lat="44.47964" lon="4.67585">
        <ele>108</ele>
        <time>2017-12-07T07:51:27Z</time>
      </trkpt>
      <trkpt lat="44.47963" lon="4.67572">
        <ele>109</ele>
        <time>2017-12-07T07:51:39Z</time>
      </trkpt>
      <trkpt lat="44.47954" lon="4.67561">
        <ele>110</ele>
        <time>2017-12-07T07:51:52Z</time>
      </trkpt>
      <trkpt lat="44.47954" lon="4.67559">
        <ele>110</ele>
        <time>2017-12-07T07:51:55Z</time>
      </trkpt>
      <trkpt lat="44.47953" lon="4.67546">
        <ele>112</ele>
        <time>2017-12-07T07:52:07Z</time>
      </trkpt>
      <trkpt lat="44.47952" lon="4.67537">
        <ele>112</ele>
        <time>2017-12-07T07:52:18Z</time>
      </trkpt>
      <trkpt lat="44.47952" lon="4.67525">
        <ele>113</ele>
        <time>2017-12-07T07:52:29Z</time>
      </trkpt>
      <trkpt lat="44.47952" lon="4.67524">
        <ele>113</ele>
        <time>2017-12-07T07:52:30Z</time>
      </trkpt>
      <trkpt lat="44.47953" lon="4.6751">
        <ele>114</ele>
        <time>2017-12-07T07:52:41Z</time>
      </trkpt>
      <trkpt lat="44.47955" lon="4.675">
        <ele>115</ele>
        <time>2017-12-07T07:52:49Z</time>
      </trkpt>
      <trkpt lat="44.47954" lon="4.67483">
        <ele>116</ele>
        <time>2017-12-07T07:53:03Z</time>
      </trkpt>
      <trkpt lat="44.47954" lon="4.67478">
        <ele>116</ele>
        <time>2017-12-07T07:53:08Z</time>
      </trkpt>
      <trkpt lat="44.47952" lon="4.67472">
        <ele>116</ele>
        <time>2017-12-07T07:53:13Z</time>
      </trkpt>
      <trkpt lat="44.47949" lon="4.67461">
        <ele>116</ele>
        <time>2017-12-07T07:53:24Z</time>
      </trkpt>
      <trkpt lat="44.47947" lon="4.67454">
        <ele>117</ele>
        <time>2017-12-07T07:53:29Z</time>
      </trkpt>
      <trkpt lat="44.47945" lon="4.67449">
        <ele>117</ele>
        <time>2017-12-07T07:53:34Z</time>
      </trkpt>
      <trkpt lat="44.47943" lon="4.67447">
        <ele>117</ele>
        <time>2017-12-07T07:53:36Z</time>
      </trkpt>
      <trkpt lat="44.47937" lon="4.67438">
        <ele>118</ele>
        <time>2017-12-07T07:53:45Z</time>
      </trkpt>
      <trkpt lat="44.47933" lon="4.67434">
        <ele>118</ele>
        <time>2017-12-07T07:53:50Z</time>
      </trkpt>
      <trkpt lat="44.47926" lon="4.67425">
        <ele>119</ele>
        <time>2017-12-07T07:54:02Z</time>
      </trkpt>
      <trkpt lat="44.47921" lon="4.67413">
        <ele>121</ele>
        <time>2017-12-07T07:54:13Z</time>
      </trkpt>
      <trkpt lat="44.4792" lon="4.67398">
        <ele>122</ele>
        <time>2017-12-07T07:54:25Z</time>
      </trkpt>
      <trkpt lat="44.4792" lon="4.67394">
        <ele>122</ele>
        <time>2017-12-07T07:54:28Z</time>
      </trkpt>
      <trkpt lat="44.4792" lon="4.67381">
        <ele>124</ele>
        <time>2017-12-07T07:54:40Z</time>
      </trkpt>
      <trkpt lat="44.47928" lon="4.6737">
        <ele>125</ele>
        <time>2017-12-07T07:54:53Z</time>
      </trkpt>
      <trkpt lat="44.47934" lon="4.67358">
        <ele>125</ele>
        <time>2017-12-07T07:55:09Z</time>
      </trkpt>
      <trkpt lat="44.47939" lon="4.67341">
        <ele>128</ele>
        <time>2017-12-07T07:55:28Z</time>
      </trkpt>
      <trkpt lat="44.47943" lon="4.67326">
        <ele>129</ele>
        <time>2017-12-07T07:55:43Z</time>
      </trkpt>
      <trkpt lat="44.47946" lon="4.67322">
        <ele>131</ele>
        <time>2017-12-07T07:55:57Z</time>
      </trkpt>
      <trkpt lat="44.47954" lon="4.6731">
        <ele>132</ele>
        <time>2017-12-07T07:56:08Z</time>
      </trkpt>
      <trkpt lat="44.47956" lon="4.67306">
        <ele>132</ele>
        <time>2017-12-07T07:56:23Z</time>
      </trkpt>
      <trkpt lat="44.47955" lon="4.67307">
        <ele>132</ele>
        <time>2017-12-07T07:56:39Z</time>
      </trkpt>
      <trkpt lat="44.47956" lon="4.67306">
        <ele>132</ele>
        <time>2017-12-07T07:56:54Z</time>
      </trkpt>
      <trkpt lat="44.47956" lon="4.67306">
        <ele>132</ele>
        <time>2017-12-07T07:57:11Z</time>
      </trkpt>
      <trkpt lat="44.47957" lon="4.67307">
        <ele>132</ele>
        <time>2017-12-07T07:57:33Z</time>
      </trkpt>
      <trkpt lat="44.47955" lon="4.67307">
        <ele>132</ele>
        <time>2017-12-07T07:57:49Z</time>
      </trkpt>
      <trkpt lat="44.47957" lon="4.67305">
        <ele>133</ele>
        <time>2017-12-07T07:58:12Z</time>
      </trkpt>
      <trkpt lat="44.47955" lon="4.67306">
        <ele>133</ele>
        <time>2017-12-07T07:58:28Z</time>
      </trkpt>
      <trkpt lat="44.47956" lon="4.67304">
        <ele>133</ele>
        <time>2017-12-07T07:58:41Z</time>
      </trkpt>
      <trkpt lat="44.47956" lon="4.67305">
        <ele>131</ele>
        <time>2017-12-07T07:59:02Z</time>
      </trkpt>
      <trkpt lat="44.47956" lon="4.67307">
        <ele>132</ele>
        <time>2017-12-07T07:59:18Z</time>
      </trkpt>
      <trkpt lat="44.47957" lon="4.67307">
        <ele>132</ele>
        <time>2017-12-07T07:59:28Z</time>
      </trkpt>
      <trkpt lat="44.4796" lon="4.67309">
        <ele>132</ele>
        <time>2017-12-07T07:59:32Z</time>
      </trkpt>
      <trkpt lat="44.47964" lon="4.6731">
        <ele>132</ele>
        <time>2017-12-07T07:59:38Z</time>
      </trkpt>
      <trkpt lat="44.47968" lon="4.6731">
        <ele>132</ele>
        <time>2017-12-07T07:59:42Z</time>
      </trkpt>
      <trkpt lat="44.4798" lon="4.67311">
        <ele>132</ele>
        <time>2017-12-07T07:59:55Z</time>
      </trkpt>
      <trkpt lat="44.47995" lon="4.67309">
        <ele>133</ele>
        <time>2017-12-07T08:00:11Z</time>
      </trkpt>
      <trkpt lat="44.47998" lon="4.67309">
        <ele>133</ele>
        <time>2017-12-07T08:00:14Z</time>
      </trkpt>
      <trkpt lat="44.48007" lon="4.67308">
        <ele>131</ele>
        <time>2017-12-07T08:00:27Z</time>
      </trkpt>
      <trkpt lat="44.48018" lon="4.6731">
        <ele>130</ele>
        <time>2017-12-07T08:00:41Z</time>
      </trkpt>
      <trkpt lat="44.48024" lon="4.67316">
        <ele>130</ele>
        <time>2017-12-07T08:00:49Z</time>
      </trkpt>
      <trkpt lat="44.48028" lon="4.67317">
        <ele>129</ele>
        <time>2017-12-07T08:00:53Z</time>
      </trkpt>
      <trkpt lat="44.48031" lon="4.67318">
        <ele>129</ele>
        <time>2017-12-07T08:00:56Z</time>
      </trkpt>
      <trkpt lat="44.4805" lon="4.6732">
        <ele>129</ele>
        <time>2017-12-07T08:01:11Z</time>
      </trkpt>
      <trkpt lat="44.48068" lon="4.67318">
        <ele>127</ele>
        <time>2017-12-07T08:01:26Z</time>
      </trkpt>
      <trkpt lat="44.48069" lon="4.67313">
        <ele>127</ele>
        <time>2017-12-07T08:01:30Z</time>
      </trkpt>
      <trkpt lat="44.48067" lon="4.67285">
        <ele>125</ele>
        <time>2017-12-07T08:01:49Z</time>
      </trkpt>
      <trkpt lat="44.48068" lon="4.67265">
        <ele>124</ele>
        <time>2017-12-07T08:02:03Z</time>
      </trkpt>
      <trkpt lat="44.48073" lon="4.67241">
        <ele>121</ele>
        <time>2017-12-07T08:02:22Z</time>
      </trkpt>
      <trkpt lat="44.48076" lon="4.67223">
        <ele>120</ele>
        <time>2017-12-07T08:02:35Z</time>
      </trkpt>
      <trkpt lat="44.48077" lon="4.67222">
        <ele>120</ele>
        <time>2017-12-07T08:02:36Z</time>
      </trkpt>
      <trkpt lat="44.48077" lon="4.6722">
        <ele>120</ele>
        <time>2017-12-07T08:02:38Z</time>
      </trkpt>
      <trkpt lat="44.48075" lon="4.67206">
        <ele>119</ele>
        <time>2017-12-07T08:02:46Z</time>
      </trkpt>
      <trkpt lat="44.48067" lon="4.6719">
        <ele>119</ele>
        <time>2017-12-07T08:03:01Z</time>
      </trkpt>
      <trkpt lat="44.48064" lon="4.67185">
        <ele>118</ele>
        <time>2017-12-07T08:03:06Z</time>
      </trkpt>
      <trkpt lat="44.48063" lon="4.67178">
        <ele>118</ele>
        <time>2017-12-07T08:03:12Z</time>
      </trkpt>
      <trkpt lat="44.48066" lon="4.67172">
        <ele>117</ele>
        <time>2017-12-07T08:03:19Z</time>
      </trkpt>
      <trkpt lat="44.48067" lon="4.67169">
        <ele>117</ele>
        <time>2017-12-07T08:03:22Z</time>
      </trkpt>
      <trkpt lat="44.48068" lon="4.67163">
        <ele>117</ele>
        <time>2017-12-07T08:03:26Z</time>
      </trkpt>
      <trkpt lat="44.48067" lon="4.67143">
        <ele>117</ele>
        <time>2017-12-07T08:03:38Z</time>
      </trkpt>
      <trkpt lat="44.48066" lon="4.67136">
        <ele>117</ele>
        <time>2017-12-07T08:03:42Z</time>
      </trkpt>
      <trkpt lat="44.48057" lon="4.67116">
        <ele>117</ele>
        <time>2017-12-07T08:03:57Z</time>
      </trkpt>
      <trkpt lat="44.48054" lon="4.67112">
        <ele>118</ele>
        <time>2017-12-07T08:04:01Z</time>
      </trkpt>
      <trkpt lat="44.48046" lon="4.67092">
        <ele>119</ele>
        <time>2017-12-07T08:04:16Z</time>
      </trkpt>
      <trkpt lat="44.48046" lon="4.6709">
        <ele>119</ele>
        <time>2017-12-07T08:04:20Z</time>
      </trkpt>
      <trkpt lat="44.48043" lon="4.67077">
        <ele>120</ele>
        <time>2017-12-07T08:04:31Z</time>
      </trkpt>
      <trkpt lat="44.48041" lon="4.67067">
        <ele>121</ele>
        <time>2017-12-07T08:04:37Z</time>
      </trkpt>
      <trkpt lat="44.48039" lon="4.67055">
        <ele>122</ele>
        <time>2017-12-07T08:04:47Z</time>
      </trkpt>
      <trkpt lat="44.48028" lon="4.67041">
        <ele>123</ele>
        <time>2017-12-07T08:05:02Z</time>
      </trkpt>
      <trkpt lat="44.48019" lon="4.6703">
        <ele>124</ele>
        <time>2017-12-07T08:05:15Z</time>
      </trkpt>
      <trkpt lat="44.48016" lon="4.67022">
        <ele>125</ele>
        <time>2017-12-07T08:05:26Z</time>
      </trkpt>
      <trkpt lat="44.48011" lon="4.67015">
        <ele>126</ele>
        <time>2017-12-07T08:05:33Z</time>
      </trkpt>
      <trkpt lat="44.48006" lon="4.67007">
        <ele>126</ele>
        <time>2017-12-07T08:05:40Z</time>
      </trkpt>
      <trkpt lat="44.48002" lon="4.66998">
        <ele>127</ele>
        <time>2017-12-07T08:05:56Z</time>
      </trkpt>
      <trkpt lat="44.48001" lon="4.66995">
        <ele>127</ele>
        <time>2017-12-07T08:05:59Z</time>
      </trkpt>
      <trkpt lat="44.47999" lon="4.66987">
        <ele>128</ele>
        <time>2017-12-07T08:06:16Z</time>
      </trkpt>
      <trkpt lat="44.47999" lon="4.66986">
        <ele>128</ele>
        <time>2017-12-07T08:06:17Z</time>
      </trkpt>
      <trkpt lat="44.47997" lon="4.66977">
        <ele>128</ele>
        <time>2017-12-07T08:06:22Z</time>
      </trkpt>
      <trkpt lat="44.47993" lon="4.66959">
        <ele>130</ele>
        <time>2017-12-07T08:06:36Z</time>
      </trkpt>
      <trkpt lat="44.47994" lon="4.66938">
        <ele>131</ele>
        <time>2017-12-07T08:06:48Z</time>
      </trkpt>
      <trkpt lat="44.47998" lon="4.66915">
        <ele>133</ele>
        <time>2017-12-07T08:07:01Z</time>
      </trkpt>
      <trkpt lat="44.48001" lon="4.66907">
        <ele>134</ele>
        <time>2017-12-07T08:07:07Z</time>
      </trkpt>
      <trkpt lat="44.48002" lon="4.66905">
        <ele>134</ele>
        <time>2017-12-07T08:07:08Z</time>
      </trkpt>
      <trkpt lat="44.48005" lon="4.6689">
        <ele>135</ele>
        <time>2017-12-07T08:07:19Z</time>
      </trkpt>
      <trkpt lat="44.48005" lon="4.66888">
        <ele>135</ele>
        <time>2017-12-07T08:07:20Z</time>
      </trkpt>
      <trkpt lat="44.48005" lon="4.66881">
        <ele>135</ele>
        <time>2017-12-07T08:07:24Z</time>
      </trkpt>
      <trkpt lat="44.47997" lon="4.66854">
        <ele>136</ele>
        <time>2017-12-07T08:07:39Z</time>
      </trkpt>
      <trkpt lat="44.47994" lon="4.66839">
        <ele>137</ele>
        <time>2017-12-07T08:07:50Z</time>
      </trkpt>
      <trkpt lat="44.47993" lon="4.66827">
        <ele>137</ele>
        <time>2017-12-07T08:07:58Z</time>
      </trkpt>
      <trkpt lat="44.47993" lon="4.66826">
        <ele>137</ele>
        <time>2017-12-07T08:07:59Z</time>
      </trkpt>
      <trkpt lat="44.47995" lon="4.66799">
        <ele>137</ele>
        <time>2017-12-07T08:08:16Z</time>
      </trkpt>
      <trkpt lat="44.48" lon="4.66784">
        <ele>136</ele>
        <time>2017-12-07T08:08:30Z</time>
      </trkpt>
      <trkpt lat="44.48" lon="4.66782">
        <ele>136</ele>
        <time>2017-12-07T08:08:31Z</time>
      </trkpt>
      <trkpt lat="44.47999" lon="4.6678">
        <ele>136</ele>
        <time>2017-12-07T08:08:32Z</time>
      </trkpt>
      <trkpt lat="44.47999" lon="4.66778">
        <ele>136</ele>
        <time>2017-12-07T08:08:33Z</time>
      </trkpt>
      <trkpt lat="44.47999" lon="4.66776">
        <ele>136</ele>
        <time>2017-12-07T08:08:34Z</time>
      </trkpt>
      <trkpt lat="44.47999" lon="4.66774">
        <ele>135</ele>
        <time>2017-12-07T08:08:35Z</time>
      </trkpt>
      <trkpt lat="44.47998" lon="4.66772">
        <ele>135</ele>
        <time>2017-12-07T08:08:36Z</time>
      </trkpt>
      <trkpt lat="44.47997" lon="4.6677">
        <ele>135</ele>
        <time>2017-12-07T08:08:37Z</time>
      </trkpt>
      <trkpt lat="44.47996" lon="4.66768">
        <ele>135</ele>
        <time>2017-12-07T08:08:38Z</time>
      </trkpt>
      <trkpt lat="44.47995" lon="4.66766">
        <ele>135</ele>
        <time>2017-12-07T08:08:39Z</time>
      </trkpt>
      <trkpt lat="44.47994" lon="4.66763">
        <ele>135</ele>
        <time>2017-12-07T08:08:41Z</time>
      </trkpt>
      <trkpt lat="44.47994" lon="4.66761">
        <ele>135</ele>
        <time>2017-12-07T08:08:42Z</time>
      </trkpt>
      <trkpt lat="44.47986" lon="4.66741">
        <ele>133</ele>
        <time>2017-12-07T08:08:56Z</time>
      </trkpt>
      <trkpt lat="44.47981" lon="4.66726">
        <ele>132</ele>
        <time>2017-12-07T08:09:10Z</time>
      </trkpt>
      <trkpt lat="44.47975" lon="4.66711">
        <ele>130</ele>
        <time>2017-12-07T08:09:24Z</time>
      </trkpt>
      <trkpt lat="44.47968" lon="4.66687">
        <ele>128</ele>
        <time>2017-12-07T08:09:41Z</time>
      </trkpt>
      <trkpt lat="44.47968" lon="4.66677">
        <ele>128</ele>
        <time>2017-12-07T08:09:48Z</time>
      </trkpt>
      <trkpt lat="44.47964" lon="4.66652">
        <ele>127</ele>
        <time>2017-12-07T08:10:02Z</time>
      </trkpt>
      <trkpt lat="44.47964" lon="4.66643">
        <ele>126</ele>
        <time>2017-12-07T08:10:12Z</time>
      </trkpt>
      <trkpt lat="44.47959" lon="4.66629">
        <ele>125</ele>
        <time>2017-12-07T08:10:26Z</time>
      </trkpt>
      <trkpt lat="44.47955" lon="4.66613">
        <ele>124</ele>
        <time>2017-12-07T08:10:38Z</time>
      </trkpt>
      <trkpt lat="44.4795" lon="4.66599">
        <ele>122</ele>
        <time>2017-12-07T08:10:51Z</time>
      </trkpt>
      <trkpt lat="44.47947" lon="4.66593">
        <ele>122</ele>
        <time>2017-12-07T08:10:57Z</time>
      </trkpt>
      <trkpt lat="44.47932" lon="4.66575">
        <ele>121</ele>
        <time>2017-12-07T08:11:09Z</time>
      </trkpt>
      <trkpt lat="44.47926" lon="4.66567">
        <ele>121</ele>
        <time>2017-12-07T08:11:15Z</time>
      </trkpt>
      <trkpt lat="44.47926" lon="4.66565">
        <ele>121</ele>
        <time>2017-12-07T08:11:16Z</time>
      </trkpt>
      <trkpt lat="44.47929" lon="4.66561">
        <ele>121</ele>
        <time>2017-12-07T08:11:20Z</time>
      </trkpt>
      <trkpt lat="44.4793" lon="4.66559">
        <ele>121</ele>
        <time>2017-12-07T08:11:21Z</time>
      </trkpt>
      <trkpt lat="44.47932" lon="4.66556">
        <ele>121</ele>
        <time>2017-12-07T08:11:23Z</time>
      </trkpt>
      <trkpt lat="44.47935" lon="4.66551">
        <ele>121</ele>
        <time>2017-12-07T08:11:27Z</time>
      </trkpt>
      <trkpt lat="44.4794" lon="4.66543">
        <ele>120</ele>
        <time>2017-12-07T08:11:33Z</time>
      </trkpt>
      <trkpt lat="44.47948" lon="4.66529">
        <ele>120</ele>
        <time>2017-12-07T08:11:45Z</time>
      </trkpt>
      <trkpt lat="44.47952" lon="4.66523">
        <ele>120</ele>
        <time>2017-12-07T08:11:49Z</time>
      </trkpt>
      <trkpt lat="44.47953" lon="4.66522">
        <ele>120</ele>
        <time>2017-12-07T08:11:50Z</time>
      </trkpt>
      <trkpt lat="44.47958" lon="4.66516">
        <ele>119</ele>
        <time>2017-12-07T08:11:54Z</time>
      </trkpt>
      <trkpt lat="44.4796" lon="4.66514">
        <ele>119</ele>
        <time>2017-12-07T08:11:55Z</time>
      </trkpt>
      <trkpt lat="44.47964" lon="4.66509">
        <ele>119</ele>
        <time>2017-12-07T08:12:03Z</time>
      </trkpt>
      <trkpt lat="44.47973" lon="4.66495">
        <ele>119</ele>
        <time>2017-12-07T08:12:16Z</time>
      </trkpt>
      <trkpt lat="44.47974" lon="4.66493">
        <ele>118</ele>
        <time>2017-12-07T08:12:18Z</time>
      </trkpt>
      <trkpt lat="44.47982" lon="4.66477">
        <ele>118</ele>
        <time>2017-12-07T08:12:30Z</time>
      </trkpt>
      <trkpt lat="44.47987" lon="4.66467">
        <ele>117</ele>
        <time>2017-12-07T08:12:40Z</time>
      </trkpt>
      <trkpt lat="44.4799" lon="4.66458">
        <ele>117</ele>
        <time>2017-12-07T08:12:58Z</time>
      </trkpt>
      <trkpt lat="44.47991" lon="4.66456">
        <ele>117</ele>
        <time>2017-12-07T08:12:59Z</time>
      </trkpt>
      <trkpt lat="44.47992" lon="4.66455">
        <ele>117</ele>
        <time>2017-12-07T08:13:00Z</time>
      </trkpt>
      <trkpt lat="44.48001" lon="4.6644">
        <ele>116</ele>
        <time>2017-12-07T08:13:15Z</time>
      </trkpt>
      <trkpt lat="44.48001" lon="4.66438">
        <ele>116</ele>
        <time>2017-12-07T08:13:16Z</time>
      </trkpt>
      <trkpt lat="44.48013" lon="4.66422">
        <ele>116</ele>
        <time>2017-12-07T08:13:31Z</time>
      </trkpt>
      <trkpt lat="44.48013" lon="4.66421">
        <ele>116</ele>
        <time>2017-12-07T08:13:35Z</time>
      </trkpt>
      <trkpt lat="44.48022" lon="4.66405">
        <ele>114</ele>
        <time>2017-12-07T08:13:46Z</time>
      </trkpt>
      <trkpt lat="44.48034" lon="4.66382">
        <ele>113</ele>
        <time>2017-12-07T08:14:00Z</time>
      </trkpt>
      <trkpt lat="44.48035" lon="4.66381">
        <ele>112</ele>
        <time>2017-12-07T08:14:10Z</time>
      </trkpt>
      <trkpt lat="44.4803" lon="4.66373">
        <ele>109</ele>
        <time>2017-12-07T08:14:23Z</time>
      </trkpt>
      <trkpt lat="44.48029" lon="4.66372">
        <ele>109</ele>
        <time>2017-12-07T08:14:24Z</time>
      </trkpt>
      <trkpt lat="44.48028" lon="4.6637">
        <ele>109</ele>
        <time>2017-12-07T08:14:25Z</time>
      </trkpt>
      <trkpt lat="44.48024" lon="4.66363">
        <ele>109</ele>
        <time>2017-12-07T08:14:37Z</time>
      </trkpt>
      <trkpt lat="44.48019" lon="4.6635">
        <ele>108</ele>
        <time>2017-12-07T08:14:50Z</time>
      </trkpt>
      <trkpt lat="44.48016" lon="4.66345">
        <ele>107</ele>
        <time>2017-12-07T08:14:54Z</time>
      </trkpt>
      <trkpt lat="44.48014" lon="4.66343">
        <ele>107</ele>
        <time>2017-12-07T08:14:55Z</time>
      </trkpt>
      <trkpt lat="44.48014" lon="4.66341">
        <ele>107</ele>
        <time>2017-12-07T08:14:56Z</time>
      </trkpt>
      <trkpt lat="44.48007" lon="4.66333">
        <ele>107</ele>
        <time>2017-12-07T08:15:08Z</time>
      </trkpt>
      <trkpt lat="44.47997" lon="4.66325">
        <ele>107</ele>
        <time>2017-12-07T08:15:22Z</time>
      </trkpt>
      <trkpt lat="44.47995" lon="4.66323">
        <ele>107</ele>
        <time>2017-12-07T08:15:25Z</time>
      </trkpt>
      <trkpt lat="44.47991" lon="4.66317">
        <ele>107</ele>
        <time>2017-12-07T08:15:36Z</time>
      </trkpt>
      <trkpt lat="44.4799" lon="4.66315">
        <ele>107</ele>
        <time>2017-12-07T08:15:40Z</time>
      </trkpt>
      <trkpt lat="44.47985" lon="4.66304">
        <ele>107</ele>
        <time>2017-12-07T08:15:52Z</time>
      </trkpt>
      <trkpt lat="44.47985" lon="4.66303">
        <ele>108</ele>
        <time>2017-12-07T08:15:54Z</time>
      </trkpt>
      <trkpt lat="44.4798" lon="4.66293">
        <ele>109</ele>
        <time>2017-12-07T08:16:08Z</time>
      </trkpt>
      <trkpt lat="44.47979" lon="4.66289">
        <ele>109</ele>
        <time>2017-12-07T08:16:12Z</time>
      </trkpt>
      <trkpt lat="44.47977" lon="4.66288">
        <ele>109</ele>
        <time>2017-12-07T08:16:13Z</time>
      </trkpt>
      <trkpt lat="44.47977" lon="4.66286">
        <ele>110</ele>
        <time>2017-12-07T08:16:14Z</time>
      </trkpt>
      <trkpt lat="44.47975" lon="4.6628">
        <ele>110</ele>
        <time>2017-12-07T08:16:21Z</time>
      </trkpt>
      <trkpt lat="44.4797" lon="4.6627">
        <ele>111</ele>
        <time>2017-12-07T08:16:31Z</time>
      </trkpt>
      <trkpt lat="44.47969" lon="4.66269">
        <ele>111</ele>
        <time>2017-12-07T08:16:32Z</time>
      </trkpt>
      <trkpt lat="44.47968" lon="4.66268">
        <ele>111</ele>
        <time>2017-12-07T08:16:33Z</time>
      </trkpt>
      <trkpt lat="44.47967" lon="4.66266">
        <ele>111</ele>
        <time>2017-12-07T08:16:34Z</time>
      </trkpt>
      <trkpt lat="44.47966" lon="4.66265">
        <ele>111</ele>
        <time>2017-12-07T08:16:35Z</time>
      </trkpt>
      <trkpt lat="44.47968" lon="4.66252">
        <ele>111</ele>
        <time>2017-12-07T08:16:49Z</time>
      </trkpt>
      <trkpt lat="44.47969" lon="4.66247">
        <ele>111</ele>
        <time>2017-12-07T08:16:54Z</time>
      </trkpt>
      <trkpt lat="44.47969" lon="4.66245">
        <ele>111</ele>
        <time>2017-12-07T08:16:55Z</time>
      </trkpt>
      <trkpt lat="44.47969" lon="4.66244">
        <ele>111</ele>
        <time>2017-12-07T08:16:56Z</time>
      </trkpt>
      <trkpt lat="44.47968" lon="4.66242">
        <ele>111</ele>
        <time>2017-12-07T08:16:57Z</time>
      </trkpt>
      <trkpt lat="44.47966" lon="4.66233">
        <ele>112</ele>
        <time>2017-12-07T08:17:07Z</time>
      </trkpt>
      <trkpt lat="44.47972" lon="4.66224">
        <ele>113</ele>
        <time>2017-12-07T08:17:23Z</time>
      </trkpt>
      <trkpt lat="44.47975" lon="4.66218">
        <ele>114</ele>
        <time>2017-12-07T08:17:37Z</time>
      </trkpt>
      <trkpt lat="44.47975" lon="4.66214">
        <ele>114</ele>
        <time>2017-12-07T08:17:50Z</time>
      </trkpt>
      <trkpt lat="44.47976" lon="4.66218">
        <ele>114</ele>
        <time>2017-12-07T08:18:01Z</time>
      </trkpt>
      <trkpt lat="44.47974" lon="4.6621">
        <ele>114</ele>
        <time>2017-12-07T08:18:12Z</time>
      </trkpt>
      <trkpt lat="44.47977" lon="4.66197">
        <ele>114</ele>
        <time>2017-12-07T08:18:25Z</time>
      </trkpt>
      <trkpt lat="44.47979" lon="4.66196">
        <ele>114</ele>
        <time>2017-12-07T08:18:30Z</time>
      </trkpt>
      <trkpt lat="44.47981" lon="4.66202">
        <ele>114</ele>
        <time>2017-12-07T08:18:44Z</time>
      </trkpt>
      <trkpt lat="44.47978" lon="4.66205">
        <ele>114</ele>
        <time>2017-12-07T08:18:54Z</time>
      </trkpt>
      <trkpt lat="44.47976" lon="4.66192">
        <ele>114</ele>
        <time>2017-12-07T08:23:15Z</time>
      </trkpt>
      <trkpt lat="44.47977" lon="4.66196">
        <ele>114</ele>
        <time>2017-12-07T08:23:25Z</time>
      </trkpt>
      <trkpt lat="44.47974" lon="4.66198">
        <ele>114</ele>
        <time>2017-12-07T08:23:38Z</time>
      </trkpt>
      <trkpt lat="44.47975" lon="4.66193">
        <ele>114</ele>
        <time>2017-12-07T08:23:52Z</time>
      </trkpt>
      <trkpt lat="44.47975" lon="4.6619">
        <ele>114</ele>
        <time>2017-12-07T08:24:12Z</time>
      </trkpt>
      <trkpt lat="44.47974" lon="4.66187">
        <ele>115</ele>
        <time>2017-12-07T08:24:34Z</time>
      </trkpt>
      <trkpt lat="44.47976" lon="4.66188">
        <ele>115</ele>
        <time>2017-12-07T08:24:45Z</time>
      </trkpt>
      <trkpt lat="44.47979" lon="4.66188">
        <ele>115</ele>
        <time>2017-12-07T08:24:56Z</time>
      </trkpt>
      <trkpt lat="44.47977" lon="4.66187">
        <ele>115</ele>
        <time>2017-12-07T08:25:09Z</time>
      </trkpt>
      <trkpt lat="44.47977" lon="4.66189">
        <ele>116</ele>
        <time>2017-12-07T08:25:25Z</time>
      </trkpt>
      <trkpt lat="44.47977" lon="4.66186">
        <ele>116</ele>
        <time>2017-12-07T08:25:52Z</time>
      </trkpt>
      <trkpt lat="44.47974" lon="4.66189">
        <ele>116</ele>
        <time>2017-12-07T08:26:21Z</time>
      </trkpt>
      <trkpt lat="44.47975" lon="4.66185">
        <ele>116</ele>
        <time>2017-12-07T08:26:37Z</time>
      </trkpt>
      <trkpt lat="44.47975" lon="4.66184">
        <ele>116</ele>
        <time>2017-12-07T08:26:54Z</time>
      </trkpt>
      <trkpt lat="44.47974" lon="4.66182">
        <ele>116</ele>
        <time>2017-12-07T08:27:10Z</time>
      </trkpt>
      <trkpt lat="44.47973" lon="4.66183">
        <ele>116</ele>
        <time>2017-12-07T08:27:24Z</time>
      </trkpt>
      <trkpt lat="44.4797" lon="4.66177">
        <ele>116</ele>
        <time>2017-12-07T08:27:34Z</time>
      </trkpt>
      <trkpt lat="44.47969" lon="4.66165">
        <ele>116</ele>
        <time>2017-12-07T08:27:45Z</time>
      </trkpt>
      <trkpt lat="44.47971" lon="4.66156">
        <ele>117</ele>
        <time>2017-12-07T08:27:53Z</time>
      </trkpt>
      <trkpt lat="44.47975" lon="4.66144">
        <ele>119</ele>
        <time>2017-12-07T08:28:04Z</time>
      </trkpt>
      <trkpt lat="44.47976" lon="4.6614">
        <ele>119</ele>
        <time>2017-12-07T08:28:07Z</time>
      </trkpt>
      <trkpt lat="44.47983" lon="4.66126">
        <ele>119</ele>
        <time>2017-12-07T08:28:20Z</time>
      </trkpt>
      <trkpt lat="44.47986" lon="4.6612">
        <ele>120</ele>
        <time>2017-12-07T08:28:28Z</time>
      </trkpt>
      <trkpt lat="44.47988" lon="4.66117">
        <ele>120</ele>
        <time>2017-12-07T08:28:32Z</time>
      </trkpt>
      <trkpt lat="44.47993" lon="4.66106">
        <ele>122</ele>
        <time>2017-12-07T08:28:46Z</time>
      </trkpt>
      <trkpt lat="44.47983" lon="4.66097">
        <ele>123</ele>
        <time>2017-12-07T08:29:00Z</time>
      </trkpt>
      <trkpt lat="44.47978" lon="4.66095">
        <ele>123</ele>
        <time>2017-12-07T08:29:05Z</time>
      </trkpt>
      <trkpt lat="44.47974" lon="4.66092">
        <ele>123</ele>
        <time>2017-12-07T08:29:09Z</time>
      </trkpt>
      <trkpt lat="44.47968" lon="4.66087">
        <ele>123</ele>
        <time>2017-12-07T08:29:16Z</time>
      </trkpt>
      <trkpt lat="44.47965" lon="4.66086">
        <ele>123</ele>
        <time>2017-12-07T08:29:19Z</time>
      </trkpt>
      <trkpt lat="44.47944" lon="4.66079">
        <ele>123</ele>
        <time>2017-12-07T08:29:36Z</time>
      </trkpt>
      <trkpt lat="44.47939" lon="4.66076">
        <ele>123</ele>
        <time>2017-12-07T08:29:42Z</time>
      </trkpt>
      <trkpt lat="44.47937" lon="4.66074">
        <ele>123</ele>
        <time>2017-12-07T08:29:45Z</time>
      </trkpt>
      <trkpt lat="44.47925" lon="4.66065">
        <ele>123</ele>
        <time>2017-12-07T08:30:00Z</time>
      </trkpt>
      <trkpt lat="44.47924" lon="4.66064">
        <ele>124</ele>
        <time>2017-12-07T08:30:01Z</time>
      </trkpt>
      <trkpt lat="44.47923" lon="4.66062">
        <ele>124</ele>
        <time>2017-12-07T08:30:02Z</time>
      </trkpt>
      <trkpt lat="44.47922" lon="4.66062">
        <ele>124</ele>
        <time>2017-12-07T08:30:03Z</time>
      </trkpt>
      <trkpt lat="44.47907" lon="4.66054">
        <ele>124</ele>
        <time>2017-12-07T08:30:14Z</time>
      </trkpt>
      <trkpt lat="44.47899" lon="4.66048">
        <ele>124</ele>
        <time>2017-12-07T08:30:26Z</time>
      </trkpt>
      <trkpt lat="44.47886" lon="4.66037">
        <ele>125</ele>
        <time>2017-12-07T08:30:41Z</time>
      </trkpt>
      <trkpt lat="44.47876" lon="4.66019">
        <ele>126</ele>
        <time>2017-12-07T08:30:56Z</time>
      </trkpt>
      <trkpt lat="44.47874" lon="4.66014">
        <ele>127</ele>
        <time>2017-12-07T08:31:01Z</time>
      </trkpt>
      <trkpt lat="44.47873" lon="4.66013">
        <ele>127</ele>
        <time>2017-12-07T08:31:02Z</time>
      </trkpt>
      <trkpt lat="44.47872" lon="4.66012">
        <ele>127</ele>
        <time>2017-12-07T08:31:03Z</time>
      </trkpt>
      <trkpt lat="44.47868" lon="4.65995">
        <ele>128</ele>
        <time>2017-12-07T08:31:16Z</time>
      </trkpt>
      <trkpt lat="44.47862" lon="4.65978">
        <ele>130</ele>
        <time>2017-12-07T08:31:30Z</time>
      </trkpt>
      <trkpt lat="44.47859" lon="4.65971">
        <ele>131</ele>
        <time>2017-12-07T08:31:36Z</time>
      </trkpt>
      <trkpt lat="44.47857" lon="4.65968">
        <ele>131</ele>
        <time>2017-12-07T08:31:38Z</time>
      </trkpt>
      <trkpt lat="44.47849" lon="4.65957">
        <ele>132</ele>
        <time>2017-12-07T08:31:50Z</time>
      </trkpt>
      <trkpt lat="44.47839" lon="4.65944">
        <ele>134</ele>
        <time>2017-12-07T08:32:05Z</time>
      </trkpt>
      <trkpt lat="44.4783" lon="4.65933">
        <ele>135</ele>
        <time>2017-12-07T08:32:16Z</time>
      </trkpt>
      <trkpt lat="44.47819" lon="4.65921">
        <ele>137</ele>
        <time>2017-12-07T08:32:31Z</time>
      </trkpt>
      <trkpt lat="44.47811" lon="4.65913">
        <ele>139</ele>
        <time>2017-12-07T08:32:43Z</time>
      </trkpt>
      <trkpt lat="44.47796" lon="4.65906">
        <ele>141</ele>
        <time>2017-12-07T08:32:59Z</time>
      </trkpt>
      <trkpt lat="44.47787" lon="4.65903">
        <ele>141</ele>
        <time>2017-12-07T08:33:12Z</time>
      </trkpt>
      <trkpt lat="44.4778" lon="4.65906">
        <ele>141</ele>
        <time>2017-12-07T08:33:28Z</time>
      </trkpt>
      <trkpt lat="44.47779" lon="4.65906">
        <ele>140</ele>
        <time>2017-12-07T08:33:46Z</time>
      </trkpt>
      <trkpt lat="44.47776" lon="4.65903">
        <ele>140</ele>
        <time>2017-12-07T08:34:01Z</time>
      </trkpt>
      <trkpt lat="44.47774" lon="4.65903">
        <ele>140</ele>
        <time>2017-12-07T08:34:23Z</time>
      </trkpt>
      <trkpt lat="44.4777" lon="4.65905">
        <ele>140</ele>
        <time>2017-12-07T08:34:34Z</time>
      </trkpt>
      <trkpt lat="44.47763" lon="4.6591">
        <ele>140</ele>
        <time>2017-12-07T08:34:44Z</time>
      </trkpt>
      <trkpt lat="44.47758" lon="4.65916">
        <ele>140</ele>
        <time>2017-12-07T08:34:53Z</time>
      </trkpt>
      <trkpt lat="44.47757" lon="4.65917">
        <ele>140</ele>
        <time>2017-12-07T08:34:54Z</time>
      </trkpt>
      <trkpt lat="44.47748" lon="4.65923">
        <ele>140</ele>
        <time>2017-12-07T08:35:06Z</time>
      </trkpt>
      <trkpt lat="44.47747" lon="4.65924">
        <ele>139</ele>
        <time>2017-12-07T08:35:07Z</time>
      </trkpt>
      <trkpt lat="44.47746" lon="4.65924">
        <ele>139</ele>
        <time>2017-12-07T08:35:08Z</time>
      </trkpt>
      <trkpt lat="44.47742" lon="4.65926">
        <ele>139</ele>
        <time>2017-12-07T08:35:17Z</time>
      </trkpt>
      <trkpt lat="44.47737" lon="4.65929">
        <ele>139</ele>
        <time>2017-12-07T08:35:27Z</time>
      </trkpt>
      <trkpt lat="44.47733" lon="4.65929">
        <ele>138</ele>
        <time>2017-12-07T08:35:34Z</time>
      </trkpt>
      <trkpt lat="44.47731" lon="4.6593">
        <ele>138</ele>
        <time>2017-12-07T08:35:35Z</time>
      </trkpt>
      <trkpt lat="44.4773" lon="4.65931">
        <ele>138</ele>
        <time>2017-12-07T08:35:36Z</time>
      </trkpt>
      <trkpt lat="44.47728" lon="4.65932">
        <ele>138</ele>
        <time>2017-12-07T08:35:37Z</time>
      </trkpt>
      <trkpt lat="44.47723" lon="4.65936">
        <ele>137</ele>
        <time>2017-12-07T08:35:46Z</time>
      </trkpt>
      <trkpt lat="44.47719" lon="4.65937">
        <ele>136</ele>
        <time>2017-12-07T08:35:53Z</time>
      </trkpt>
      <trkpt lat="44.47717" lon="4.65938">
        <ele>136</ele>
        <time>2017-12-07T08:35:54Z</time>
      </trkpt>
      <trkpt lat="44.47716" lon="4.65938">
        <ele>136</ele>
        <time>2017-12-07T08:35:55Z</time>
      </trkpt>
      <trkpt lat="44.4771" lon="4.65942">
        <ele>135</ele>
        <time>2017-12-07T08:36:05Z</time>
      </trkpt>
      <trkpt lat="44.47704" lon="4.65946">
        <ele>135</ele>
        <time>2017-12-07T08:36:13Z</time>
      </trkpt>
      <trkpt lat="44.47702" lon="4.65946">
        <ele>135</ele>
        <time>2017-12-07T08:36:14Z</time>
      </trkpt>
      <trkpt lat="44.47696" lon="4.65945">
        <ele>134</ele>
        <time>2017-12-07T08:36:20Z</time>
      </trkpt>
      <trkpt lat="44.47695" lon="4.65944">
        <ele>134</ele>
        <time>2017-12-07T08:36:21Z</time>
      </trkpt>
      <trkpt lat="44.47689" lon="4.65937">
        <ele>134</ele>
        <time>2017-12-07T08:36:33Z</time>
      </trkpt>
      <trkpt lat="44.47682" lon="4.65928">
        <ele>133</ele>
        <time>2017-12-07T08:36:43Z</time>
      </trkpt>
      <trkpt lat="44.47679" lon="4.65928">
        <ele>132</ele>
        <time>2017-12-07T08:36:48Z</time>
      </trkpt>
      <trkpt lat="44.47679" lon="4.65926">
        <ele>132</ele>
        <time>2017-12-07T08:36:49Z</time>
      </trkpt>
      <trkpt lat="44.47676" lon="4.65921">
        <ele>132</ele>
        <time>2017-12-07T08:36:53Z</time>
      </trkpt>
      <trkpt lat="44.47674" lon="4.65915">
        <ele>131</ele>
        <time>2017-12-07T08:37:00Z</time>
      </trkpt>
      <trkpt lat="44.47668" lon="4.65907">
        <ele>130</ele>
        <time>2017-12-07T08:37:11Z</time>
      </trkpt>
      <trkpt lat="44.47666" lon="4.65905">
        <ele>129</ele>
        <time>2017-12-07T08:37:13Z</time>
      </trkpt>
      <trkpt lat="44.47664" lon="4.65904">
        <ele>129</ele>
        <time>2017-12-07T08:37:14Z</time>
      </trkpt>
      <trkpt lat="44.47663" lon="4.65902">
        <ele>129</ele>
        <time>2017-12-07T08:37:15Z</time>
      </trkpt>
      <trkpt lat="44.47662" lon="4.659">
        <ele>129</ele>
        <time>2017-12-07T08:37:16Z</time>
      </trkpt>
      <trkpt lat="44.47661" lon="4.65898">
        <ele>129</ele>
        <time>2017-12-07T08:37:17Z</time>
      </trkpt>
      <trkpt lat="44.4766" lon="4.65896">
        <ele>129</ele>
        <time>2017-12-07T08:37:18Z</time>
      </trkpt>
      <trkpt lat="44.47655" lon="4.65888">
        <ele>129</ele>
        <time>2017-12-07T08:37:29Z</time>
      </trkpt>
      <trkpt lat="44.47654" lon="4.65885">
        <ele>129</ele>
        <time>2017-12-07T08:37:31Z</time>
      </trkpt>
      <trkpt lat="44.47648" lon="4.65875">
        <ele>129</ele>
        <time>2017-12-07T08:37:42Z</time>
      </trkpt>
      <trkpt lat="44.47644" lon="4.65864">
        <ele>129</ele>
        <time>2017-12-07T08:37:54Z</time>
      </trkpt>
      <trkpt lat="44.47643" lon="4.65862">
        <ele>129</ele>
        <time>2017-12-07T08:37:55Z</time>
      </trkpt>
      <trkpt lat="44.47643" lon="4.65861">
        <ele>129</ele>
        <time>2017-12-07T08:37:56Z</time>
      </trkpt>
      <trkpt lat="44.47638" lon="4.6585">
        <ele>129</ele>
        <time>2017-12-07T08:38:07Z</time>
      </trkpt>
      <trkpt lat="44.47632" lon="4.65835">
        <ele>129</ele>
        <time>2017-12-07T08:38:20Z</time>
      </trkpt>
      <trkpt lat="44.47628" lon="4.65825">
        <ele>129</ele>
        <time>2017-12-07T08:38:31Z</time>
      </trkpt>
      <trkpt lat="44.47622" lon="4.65813">
        <ele>130</ele>
        <time>2017-12-07T08:38:43Z</time>
      </trkpt>
      <trkpt lat="44.47616" lon="4.658">
        <ele>130</ele>
        <time>2017-12-07T08:38:57Z</time>
      </trkpt>
      <trkpt lat="44.4761" lon="4.65787">
        <ele>130</ele>
        <time>2017-12-07T08:39:11Z</time>
      </trkpt>
      <trkpt lat="44.47608" lon="4.65778">
        <ele>130</ele>
        <time>2017-12-07T08:39:18Z</time>
      </trkpt>
      <trkpt lat="44.47599" lon="4.65762">
        <ele>130</ele>
        <time>2017-12-07T08:39:36Z</time>
      </trkpt>
      <trkpt lat="44.47595" lon="4.6575">
        <ele>131</ele>
        <time>2017-12-07T08:39:49Z</time>
      </trkpt>
      <trkpt lat="44.47594" lon="4.65745">
        <ele>131</ele>
        <time>2017-12-07T08:39:55Z</time>
      </trkpt>
      <trkpt lat="44.47591" lon="4.65737">
        <ele>131</ele>
        <time>2017-12-07T08:40:03Z</time>
      </trkpt>
      <trkpt lat="44.47589" lon="4.65726">
        <ele>130</ele>
        <time>2017-12-07T08:40:16Z</time>
      </trkpt>
      <trkpt lat="44.47587" lon="4.65724">
        <ele>131</ele>
        <time>2017-12-07T08:40:19Z</time>
      </trkpt>
      <trkpt lat="44.47586" lon="4.65722">
        <ele>131</ele>
        <time>2017-12-07T08:40:20Z</time>
      </trkpt>
      <trkpt lat="44.47583" lon="4.65715">
        <ele>131</ele>
        <time>2017-12-07T08:40:26Z</time>
      </trkpt>
      <trkpt lat="44.47581" lon="4.65708">
        <ele>131</ele>
        <time>2017-12-07T08:40:37Z</time>
      </trkpt>
      <trkpt lat="44.47579" lon="4.65702">
        <ele>131</ele>
        <time>2017-12-07T08:40:50Z</time>
      </trkpt>
      <trkpt lat="44.47574" lon="4.65695">
        <ele>131</ele>
        <time>2017-12-07T08:41:04Z</time>
      </trkpt>
      <trkpt lat="44.47569" lon="4.65685">
        <ele>132</ele>
        <time>2017-12-07T08:41:19Z</time>
      </trkpt>
      <trkpt lat="44.47564" lon="4.65672">
        <ele>133</ele>
        <time>2017-12-07T08:41:34Z</time>
      </trkpt>
      <trkpt lat="44.47559" lon="4.65663">
        <ele>135</ele>
        <time>2017-12-07T08:41:48Z</time>
      </trkpt>
      <trkpt lat="44.47559" lon="4.65655">
        <ele>136</ele>
        <time>2017-12-07T08:42:02Z</time>
      </trkpt>
      <trkpt lat="44.47556" lon="4.65649">
        <ele>137</ele>
        <time>2017-12-07T08:42:16Z</time>
      </trkpt>
      <trkpt lat="44.47551" lon="4.65637">
        <ele>137</ele>
        <time>2017-12-07T08:42:30Z</time>
      </trkpt>
      <trkpt lat="44.4755" lon="4.65635">
        <ele>137</ele>
        <time>2017-12-07T08:42:32Z</time>
      </trkpt>
      <trkpt lat="44.4755" lon="4.65627">
        <ele>137</ele>
        <time>2017-12-07T08:42:37Z</time>
      </trkpt>
      <trkpt lat="44.4755" lon="4.65625">
        <ele>137</ele>
        <time>2017-12-07T08:42:38Z</time>
      </trkpt>
      <trkpt lat="44.47542" lon="4.65615">
        <ele>137</ele>
        <time>2017-12-07T08:42:51Z</time>
      </trkpt>
      <trkpt lat="44.47539" lon="4.65602">
        <ele>136</ele>
        <time>2017-12-07T08:43:06Z</time>
      </trkpt>
      <trkpt lat="44.47534" lon="4.6559">
        <ele>136</ele>
        <time>2017-12-07T08:43:20Z</time>
      </trkpt>
      <trkpt lat="44.47533" lon="4.65582">
        <ele>136</ele>
        <time>2017-12-07T08:43:33Z</time>
      </trkpt>
      <trkpt lat="44.47526" lon="4.65578">
        <ele>136</ele>
        <time>2017-12-07T08:43:50Z</time>
      </trkpt>
      <trkpt lat="44.47523" lon="4.65565">
        <ele>136</ele>
        <time>2017-12-07T08:44:04Z</time>
      </trkpt>
      <trkpt lat="44.47521" lon="4.6555">
        <ele>136</ele>
        <time>2017-12-07T08:44:19Z</time>
      </trkpt>
      <trkpt lat="44.4752" lon="4.65547">
        <ele>136</ele>
        <time>2017-12-07T08:44:23Z</time>
      </trkpt>
      <trkpt lat="44.47513" lon="4.65537">
        <ele>138</ele>
        <time>2017-12-07T08:44:38Z</time>
      </trkpt>
      <trkpt lat="44.47511" lon="4.65531">
        <ele>138</ele>
        <time>2017-12-07T08:44:46Z</time>
      </trkpt>
      <trkpt lat="44.47509" lon="4.65526">
        <ele>138</ele>
        <time>2017-12-07T08:44:59Z</time>
      </trkpt>
      <trkpt lat="44.47506" lon="4.65524">
        <ele>138</ele>
        <time>2017-12-07T08:45:13Z</time>
      </trkpt>
      <trkpt lat="44.47506" lon="4.65524">
        <ele>138</ele>
        <time>2017-12-07T08:45:29Z</time>
      </trkpt>
      <trkpt lat="44.47503" lon="4.65523">
        <ele>138</ele>
        <time>2017-12-07T08:45:52Z</time>
      </trkpt>
      <trkpt lat="44.47499" lon="4.6552">
        <ele>138</ele>
        <time>2017-12-07T08:46:07Z</time>
      </trkpt>
      <trkpt lat="44.47499" lon="4.65516">
        <ele>138</ele>
        <time>2017-12-07T08:46:24Z</time>
      </trkpt>
      <trkpt lat="44.47499" lon="4.65511">
        <ele>138</ele>
        <time>2017-12-07T08:46:39Z</time>
      </trkpt>
      <trkpt lat="44.47499" lon="4.65508">
        <ele>138</ele>
        <time>2017-12-07T08:46:49Z</time>
      </trkpt>
      <trkpt lat="44.47493" lon="4.65502">
        <ele>138</ele>
        <time>2017-12-07T08:46:58Z</time>
      </trkpt>
      <trkpt lat="44.4749" lon="4.65488">
        <ele>139</ele>
        <time>2017-12-07T08:47:11Z</time>
      </trkpt>
      <trkpt lat="44.47489" lon="4.65481">
        <ele>139</ele>
        <time>2017-12-07T08:47:24Z</time>
      </trkpt>
      <trkpt lat="44.47486" lon="4.65476">
        <ele>139</ele>
        <time>2017-12-07T08:47:38Z</time>
      </trkpt>
      <trkpt lat="44.47487" lon="4.65472">
        <ele>139</ele>
        <time>2017-12-07T08:47:44Z</time>
      </trkpt>
      <trkpt lat="44.47487" lon="4.6547">
        <ele>139</ele>
        <time>2017-12-07T08:47:45Z</time>
      </trkpt>
      <trkpt lat="44.47485" lon="4.65458">
        <ele>139</ele>
        <time>2017-12-07T08:47:56Z</time>
      </trkpt>
      <trkpt lat="44.47484" lon="4.65456">
        <ele>139</ele>
        <time>2017-12-07T08:47:57Z</time>
      </trkpt>
      <trkpt lat="44.47482" lon="4.65446">
        <ele>139</ele>
        <time>2017-12-07T08:48:05Z</time>
      </trkpt>
      <trkpt lat="44.47481" lon="4.65439">
        <ele>139</ele>
        <time>2017-12-07T08:48:14Z</time>
      </trkpt>
      <trkpt lat="44.47479" lon="4.65427">
        <ele>141</ele>
        <time>2017-12-07T08:48:26Z</time>
      </trkpt>
      <trkpt lat="44.47478" lon="4.65408">
        <ele>141</ele>
        <time>2017-12-07T08:48:43Z</time>
      </trkpt>
      <trkpt lat="44.47478" lon="4.65402">
        <ele>141</ele>
        <time>2017-12-07T08:48:48Z</time>
      </trkpt>
      <trkpt lat="44.47475" lon="4.65389">
        <ele>142</ele>
        <time>2017-12-07T08:49:00Z</time>
      </trkpt>
      <trkpt lat="44.47475" lon="4.65387">
        <ele>142</ele>
        <time>2017-12-07T08:49:01Z</time>
      </trkpt>
      <trkpt lat="44.47472" lon="4.65378">
        <ele>142</ele>
        <time>2017-12-07T08:49:11Z</time>
      </trkpt>
      <trkpt lat="44.47471" lon="4.65373">
        <ele>143</ele>
        <time>2017-12-07T08:49:23Z</time>
      </trkpt>
      <trkpt lat="44.47469" lon="4.65367">
        <ele>143</ele>
        <time>2017-12-07T08:49:33Z</time>
      </trkpt>
      <trkpt lat="44.47465" lon="4.65354">
        <ele>143</ele>
        <time>2017-12-07T08:49:44Z</time>
      </trkpt>
      <trkpt lat="44.47464" lon="4.65348">
        <ele>143</ele>
        <time>2017-12-07T08:49:50Z</time>
      </trkpt>
      <trkpt lat="44.47463" lon="4.65346">
        <ele>143</ele>
        <time>2017-12-07T08:49:51Z</time>
      </trkpt>
      <trkpt lat="44.47461" lon="4.65341">
        <ele>143</ele>
        <time>2017-12-07T08:49:54Z</time>
      </trkpt>
      <trkpt lat="44.4746" lon="4.65335">
        <ele>143</ele>
        <time>2017-12-07T08:49:59Z</time>
      </trkpt>
      <trkpt lat="44.47459" lon="4.65327">
        <ele>143</ele>
        <time>2017-12-07T08:50:12Z</time>
      </trkpt>
      <trkpt lat="44.47453" lon="4.65313">
        <ele>143</ele>
        <time>2017-12-07T08:50:23Z</time>
      </trkpt>
      <trkpt lat="44.47449" lon="4.65299">
        <ele>143</ele>
        <time>2017-12-07T08:50:37Z</time>
      </trkpt>
      <trkpt lat="44.47444" lon="4.65285">
        <ele>143</ele>
        <time>2017-12-07T08:50:48Z</time>
      </trkpt>
      <trkpt lat="44.47442" lon="4.65271">
        <ele>144</ele>
        <time>2017-12-07T08:51:00Z</time>
      </trkpt>
      <trkpt lat="44.4744" lon="4.65263">
        <ele>144</ele>
        <time>2017-12-07T08:51:08Z</time>
      </trkpt>
      <trkpt lat="44.47435" lon="4.65251">
        <ele>144</ele>
        <time>2017-12-07T08:51:19Z</time>
      </trkpt>
      <trkpt lat="44.47434" lon="4.6525">
        <ele>145</ele>
        <time>2017-12-07T08:51:20Z</time>
      </trkpt>
      <trkpt lat="44.47429" lon="4.65237">
        <ele>146</ele>
        <time>2017-12-07T08:51:31Z</time>
      </trkpt>
      <trkpt lat="44.47425" lon="4.65232">
        <ele>147</ele>
        <time>2017-12-07T08:51:39Z</time>
      </trkpt>
      <trkpt lat="44.4742" lon="4.65227">
        <ele>149</ele>
        <time>2017-12-07T08:51:49Z</time>
      </trkpt>
      <trkpt lat="44.47414" lon="4.65225">
        <ele>150</ele>
        <time>2017-12-07T08:51:59Z</time>
      </trkpt>
      <trkpt lat="44.47407" lon="4.65223">
        <ele>151</ele>
        <time>2017-12-07T08:52:10Z</time>
      </trkpt>
      <trkpt lat="44.47406" lon="4.65224">
        <ele>151</ele>
        <time>2017-12-07T08:52:11Z</time>
      </trkpt>
      <trkpt lat="44.47403" lon="4.65224">
        <ele>152</ele>
        <time>2017-12-07T08:52:21Z</time>
      </trkpt>
      <trkpt lat="44.47396" lon="4.65232">
        <ele>152</ele>
        <time>2017-12-07T08:52:33Z</time>
      </trkpt>
      <trkpt lat="44.47391" lon="4.65237">
        <ele>153</ele>
        <time>2017-12-07T08:52:44Z</time>
      </trkpt>
      <trkpt lat="44.47386" lon="4.65243">
        <ele>154</ele>
        <time>2017-12-07T08:52:54Z</time>
      </trkpt>
      <trkpt lat="44.47381" lon="4.65249">
        <ele>155</ele>
        <time>2017-12-07T08:53:06Z</time>
      </trkpt>
      <trkpt lat="44.47379" lon="4.65253">
        <ele>155</ele>
        <time>2017-12-07T08:53:20Z</time>
      </trkpt>
      <trkpt lat="44.47376" lon="4.65252">
        <ele>156</ele>
        <time>2017-12-07T08:53:32Z</time>
      </trkpt>
      <trkpt lat="44.47375" lon="4.65249">
        <ele>156</ele>
        <time>2017-12-07T08:53:54Z</time>
      </trkpt>
      <trkpt lat="44.47376" lon="4.65248">
        <ele>156</ele>
        <time>2017-12-07T08:54:15Z</time>
      </trkpt>
      <trkpt lat="44.47377" lon="4.65247">
        <ele>157</ele>
        <time>2017-12-07T08:54:20Z</time>
      </trkpt>
      <trkpt lat="44.47376" lon="4.65245">
        <ele>157</ele>
        <time>2017-12-07T08:54:21Z</time>
      </trkpt>
      <trkpt lat="44.47375" lon="4.65235">
        <ele>158</ele>
        <time>2017-12-07T08:54:30Z</time>
      </trkpt>
      <trkpt lat="44.47372" lon="4.6522">
        <ele>160</ele>
        <time>2017-12-07T08:54:44Z</time>
      </trkpt>
      <trkpt lat="44.47372" lon="4.65217">
        <ele>160</ele>
        <time>2017-12-07T08:54:47Z</time>
      </trkpt>
      <trkpt lat="44.47369" lon="4.65207">
        <ele>162</ele>
        <time>2017-12-07T08:54:57Z</time>
      </trkpt>
      <trkpt lat="44.47365" lon="4.65189">
        <ele>164</ele>
        <time>2017-12-07T08:55:11Z</time>
      </trkpt>
      <trkpt lat="44.47363" lon="4.65183">
        <ele>165</ele>
        <time>2017-12-07T08:55:26Z</time>
      </trkpt>
      <trkpt lat="44.47363" lon="4.65165">
        <ele>167</ele>
        <time>2017-12-07T08:55:40Z</time>
      </trkpt>
      <trkpt lat="44.47362" lon="4.65154">
        <ele>168</ele>
        <time>2017-12-07T08:55:51Z</time>
      </trkpt>
      <trkpt lat="44.47359" lon="4.65149">
        <ele>170</ele>
        <time>2017-12-07T08:56:01Z</time>
      </trkpt>
      <trkpt lat="44.47354" lon="4.65147">
        <ele>171</ele>
        <time>2017-12-07T08:56:12Z</time>
      </trkpt>
      <trkpt lat="44.47348" lon="4.65153">
        <ele>172</ele>
        <time>2017-12-07T08:56:24Z</time>
      </trkpt>
      <trkpt lat="44.47346" lon="4.65163">
        <ele>173</ele>
        <time>2017-12-07T08:56:36Z</time>
      </trkpt>
      <trkpt lat="44.47345" lon="4.65174">
        <ele>174</ele>
        <time>2017-12-07T08:56:50Z</time>
      </trkpt>
      <trkpt lat="44.47342" lon="4.65181">
        <ele>175</ele>
        <time>2017-12-07T08:57:02Z</time>
      </trkpt>
      <trkpt lat="44.47338" lon="4.65179">
        <ele>177</ele>
        <time>2017-12-07T08:57:16Z</time>
      </trkpt>
      <trkpt lat="44.47339" lon="4.65169">
        <ele>178</ele>
        <time>2017-12-07T08:57:29Z</time>
      </trkpt>
      <trkpt lat="44.47339" lon="4.65163">
        <ele>179</ele>
        <time>2017-12-07T08:57:40Z</time>
      </trkpt>
      <trkpt lat="44.47336" lon="4.65153">
        <ele>180</ele>
        <time>2017-12-07T08:57:54Z</time>
      </trkpt>
      <trkpt lat="44.47333" lon="4.65142">
        <ele>182</ele>
        <time>2017-12-07T08:58:09Z</time>
      </trkpt>
      <trkpt lat="44.47332" lon="4.65134">
        <ele>183</ele>
        <time>2017-12-07T08:58:19Z</time>
      </trkpt>
      <trkpt lat="44.47326" lon="4.65124">
        <ele>184</ele>
        <time>2017-12-07T08:58:28Z</time>
      </trkpt>
      <trkpt lat="44.47321" lon="4.65114">
        <ele>186</ele>
        <time>2017-12-07T08:58:39Z</time>
      </trkpt>
      <trkpt lat="44.47315" lon="4.65106">
        <ele>187</ele>
        <time>2017-12-07T08:58:51Z</time>
      </trkpt>
      <trkpt lat="44.4731" lon="4.65099">
        <ele>189</ele>
        <time>2017-12-07T08:59:05Z</time>
      </trkpt>
      <trkpt lat="44.4731" lon="4.65089">
        <ele>190</ele>
        <time>2017-12-07T08:59:16Z</time>
      </trkpt>
      <trkpt lat="44.47307" lon="4.65081">
        <ele>191</ele>
        <time>2017-12-07T08:59:27Z</time>
      </trkpt>
      <trkpt lat="44.47305" lon="4.65071">
        <ele>193</ele>
        <time>2017-12-07T08:59:42Z</time>
      </trkpt>
      <trkpt lat="44.473" lon="4.65061">
        <ele>195</ele>
        <time>2017-12-07T08:59:55Z</time>
      </trkpt>
      <trkpt lat="44.47297" lon="4.65051">
        <ele>197</ele>
        <time>2017-12-07T09:00:10Z</time>
      </trkpt>
      <trkpt lat="44.47293" lon="4.65042">
        <ele>199</ele>
        <time>2017-12-07T09:00:25Z</time>
      </trkpt>
      <trkpt lat="44.47287" lon="4.65037">
        <ele>201</ele>
        <time>2017-12-07T09:00:39Z</time>
      </trkpt>
      <trkpt lat="44.47279" lon="4.6503">
        <ele>202</ele>
        <time>2017-12-07T09:00:54Z</time>
      </trkpt>
      <trkpt lat="44.47274" lon="4.6502">
        <ele>204</ele>
        <time>2017-12-07T09:01:08Z</time>
      </trkpt>
      <trkpt lat="44.47269" lon="4.6501">
        <ele>205</ele>
        <time>2017-12-07T09:01:21Z</time>
      </trkpt>
      <trkpt lat="44.47263" lon="4.65">
        <ele>206</ele>
        <time>2017-12-07T09:01:31Z</time>
      </trkpt>
      <trkpt lat="44.47258" lon="4.64993">
        <ele>207</ele>
        <time>2017-12-07T09:01:41Z</time>
      </trkpt>
      <trkpt lat="44.47255" lon="4.64987">
        <ele>207</ele>
        <time>2017-12-07T09:01:47Z</time>
      </trkpt>
      <trkpt lat="44.47254" lon="4.64983">
        <ele>207</ele>
        <time>2017-12-07T09:01:59Z</time>
      </trkpt>
      <trkpt lat="44.4725" lon="4.64982">
        <ele>207</ele>
        <time>2017-12-07T09:02:10Z</time>
      </trkpt>
      <trkpt lat="44.4725" lon="4.64979">
        <ele>207</ele>
        <time>2017-12-07T09:02:35Z</time>
      </trkpt>
      <trkpt lat="44.4725" lon="4.64979">
        <ele>208</ele>
        <time>2017-12-07T09:03:00Z</time>
      </trkpt>
      <trkpt lat="44.47251" lon="4.6498">
        <ele>208</ele>
        <time>2017-12-07T09:03:34Z</time>
      </trkpt>
      <trkpt lat="44.47252" lon="4.6498">
        <ele>208</ele>
        <time>2017-12-07T09:03:59Z</time>
      </trkpt>
      <trkpt lat="44.47251" lon="4.64979">
        <ele>208</ele>
        <time>2017-12-07T09:04:37Z</time>
      </trkpt>
      <trkpt lat="44.47252" lon="4.64979">
        <ele>208</ele>
        <time>2017-12-07T09:05:09Z</time>
      </trkpt>
      <trkpt lat="44.4725" lon="4.64979">
        <ele>208</ele>
        <time>2017-12-07T09:05:52Z</time>
      </trkpt>
      <trkpt lat="44.4725" lon="4.64979">
        <ele>208</ele>
        <time>2017-12-07T09:06:17Z</time>
      </trkpt>
      <trkpt lat="44.47251" lon="4.64979">
        <ele>208</ele>
        <time>2017-12-07T09:06:43Z</time>
      </trkpt>
      <trkpt lat="44.47251" lon="4.64981">
        <ele>208</ele>
        <time>2017-12-07T09:07:16Z</time>
      </trkpt>
      <trkpt lat="44.4725" lon="4.64982">
        <ele>208</ele>
        <time>2017-12-07T09:07:38Z</time>
      </trkpt>
      <trkpt lat="44.47251" lon="4.64979">
        <ele>208</ele>
        <time>2017-12-07T09:08:13Z</time>
      </trkpt>
      <trkpt lat="44.47251" lon="4.64977">
        <ele>208</ele>
        <time>2017-12-07T09:08:43Z</time>
      </trkpt>
      <trkpt lat="44.47249" lon="4.64979">
        <ele>208</ele>
        <time>2017-12-07T09:09:09Z</time>
      </trkpt>
      <trkpt lat="44.47251" lon="4.6498">
        <ele>208</ele>
        <time>2017-12-07T09:09:41Z</time>
      </trkpt>
      <trkpt lat="44.47251" lon="4.64981">
        <ele>208</ele>
        <time>2017-12-07T09:10:15Z</time>
      </trkpt>
      <trkpt lat="44.4725" lon="4.64981">
        <ele>208</ele>
        <time>2017-12-07T09:10:41Z</time>
      </trkpt>
      <trkpt lat="44.47252" lon="4.64981">
        <ele>209</ele>
        <time>2017-12-07T09:11:08Z</time>
      </trkpt>
      <trkpt lat="44.47251" lon="4.64982">
        <ele>209</ele>
        <time>2017-12-07T09:11:39Z</time>
      </trkpt>
      <trkpt lat="44.4725" lon="4.6498">
        <ele>209</ele>
        <time>2017-12-07T09:12:07Z</time>
      </trkpt>
      <trkpt lat="44.47248" lon="4.6498">
        <ele>209</ele>
        <time>2017-12-07T09:12:41Z</time>
      </trkpt>
      <trkpt lat="44.47249" lon="4.64981">
        <ele>209</ele>
        <time>2017-12-07T09:13:06Z</time>
      </trkpt>
      <trkpt lat="44.47249" lon="4.64981">
        <ele>209</ele>
        <time>2017-12-07T09:13:43Z</time>
      </trkpt>
      <trkpt lat="44.47249" lon="4.6498">
        <ele>209</ele>
        <time>2017-12-07T09:14:13Z</time>
      </trkpt>
      <trkpt lat="44.47248" lon="4.64981">
        <ele>209</ele>
        <time>2017-12-07T09:14:47Z</time>
      </trkpt>
      <trkpt lat="44.4725" lon="4.64982">
        <ele>209</ele>
        <time>2017-12-07T09:15:17Z</time>
      </trkpt>
      <trkpt lat="44.47249" lon="4.6498">
        <ele>209</ele>
        <time>2017-12-07T09:15:47Z</time>
      </trkpt>
      <trkpt lat="44.47251" lon="4.6498">
        <ele>209</ele>
        <time>2017-12-07T09:16:17Z</time>
      </trkpt>
      <trkpt lat="44.4725" lon="4.64978">
        <ele>209</ele>
        <time>2017-12-07T09:16:48Z</time>
      </trkpt>
      <trkpt lat="44.47249" lon="4.64979">
        <ele>209</ele>
        <time>2017-12-07T09:17:16Z</time>
      </trkpt>
      <trkpt lat="44.47249" lon="4.64977">
        <ele>210</ele>
        <time>2017-12-07T09:17:36Z</time>
      </trkpt>
      <trkpt lat="44.47247" lon="4.64975">
        <ele>210</ele>
        <time>2017-12-07T09:17:38Z</time>
      </trkpt>
      <trkpt lat="44.47246" lon="4.64974">
        <ele>210</ele>
        <time>2017-12-07T09:17:39Z</time>
      </trkpt>
      <trkpt lat="44.47246" lon="4.64973">
        <ele>210</ele>
        <time>2017-12-07T09:17:40Z</time>
      </trkpt>
      <trkpt lat="44.47245" lon="4.64972">
        <ele>210</ele>
        <time>2017-12-07T09:17:41Z</time>
      </trkpt>
      <trkpt lat="44.47234" lon="4.64965">
        <ele>210</ele>
        <time>2017-12-07T09:17:54Z</time>
      </trkpt>
      <trkpt lat="44.47233" lon="4.64963">
        <ele>210</ele>
        <time>2017-12-07T09:17:56Z</time>
      </trkpt>
      <trkpt lat="44.47231" lon="4.64962">
        <ele>209</ele>
        <time>2017-12-07T09:17:59Z</time>
      </trkpt>
      <trkpt lat="44.4723" lon="4.64961">
        <ele>209</ele>
        <time>2017-12-07T09:18:00Z</time>
      </trkpt>
      <trkpt lat="44.47221" lon="4.64952">
        <ele>207</ele>
        <time>2017-12-07T09:18:14Z</time>
      </trkpt>
      <trkpt lat="44.47212" lon="4.64944">
        <ele>205</ele>
        <time>2017-12-07T09:18:27Z</time>
      </trkpt>
      <trkpt lat="44.47204" lon="4.64936">
        <ele>203</ele>
        <time>2017-12-07T09:18:39Z</time>
      </trkpt>
      <trkpt lat="44.472" lon="4.64933">
        <ele>203</ele>
        <time>2017-12-07T09:18:44Z</time>
      </trkpt>
      <trkpt lat="44.47199" lon="4.64932">
        <ele>203</ele>
        <time>2017-12-07T09:18:45Z</time>
      </trkpt>
      <trkpt lat="44.4719" lon="4.64923">
        <ele>202</ele>
        <time>2017-12-07T09:18:57Z</time>
      </trkpt>
      <trkpt lat="44.47184" lon="4.64919">
        <ele>202</ele>
        <time>2017-12-07T09:19:04Z</time>
      </trkpt>
      <trkpt lat="44.47183" lon="4.64918">
        <ele>202</ele>
        <time>2017-12-07T09:19:05Z</time>
      </trkpt>
      <trkpt lat="44.47179" lon="4.64915">
        <ele>201</ele>
        <time>2017-12-07T09:19:11Z</time>
      </trkpt>
      <trkpt lat="44.47172" lon="4.64911">
        <ele>200</ele>
        <time>2017-12-07T09:19:20Z</time>
      </trkpt>
      <trkpt lat="44.47168" lon="4.64909">
        <ele>200</ele>
        <time>2017-12-07T09:19:24Z</time>
      </trkpt>
      <trkpt lat="44.4716" lon="4.64902">
        <ele>199</ele>
        <time>2017-12-07T09:19:35Z</time>
      </trkpt>
      <trkpt lat="44.47159" lon="4.64901">
        <ele>199</ele>
        <time>2017-12-07T09:19:36Z</time>
      </trkpt>
      <trkpt lat="44.47151" lon="4.64893">
        <ele>198</ele>
        <time>2017-12-07T09:19:49Z</time>
      </trkpt>
      <trkpt lat="44.47141" lon="4.64881">
        <ele>197</ele>
        <time>2017-12-07T09:20:06Z</time>
      </trkpt>
      <trkpt lat="44.47139" lon="4.64878">
        <ele>196</ele>
        <time>2017-12-07T09:20:09Z</time>
      </trkpt>
      <trkpt lat="44.47135" lon="4.64873">
        <ele>195</ele>
        <time>2017-12-07T09:20:17Z</time>
      </trkpt>
      <trkpt lat="44.47134" lon="4.64871">
        <ele>195</ele>
        <time>2017-12-07T09:20:18Z</time>
      </trkpt>
      <trkpt lat="44.47134" lon="4.64867">
        <ele>195</ele>
        <time>2017-12-07T09:20:21Z</time>
      </trkpt>
      <trkpt lat="44.47127" lon="4.64852">
        <ele>195</ele>
        <time>2017-12-07T09:20:35Z</time>
      </trkpt>
      <trkpt lat="44.47119" lon="4.64844">
        <ele>196</ele>
        <time>2017-12-07T09:20:45Z</time>
      </trkpt>
      <trkpt lat="44.47112" lon="4.64831">
        <ele>197</ele>
        <time>2017-12-07T09:20:58Z</time>
      </trkpt>
      <trkpt lat="44.47107" lon="4.64823">
        <ele>198</ele>
        <time>2017-12-07T09:21:08Z</time>
      </trkpt>
      <trkpt lat="44.47106" lon="4.64821">
        <ele>198</ele>
        <time>2017-12-07T09:21:09Z</time>
      </trkpt>
      <trkpt lat="44.47099" lon="4.64808">
        <ele>199</ele>
        <time>2017-12-07T09:21:22Z</time>
      </trkpt>
      <trkpt lat="44.47096" lon="4.64796">
        <ele>200</ele>
        <time>2017-12-07T09:21:33Z</time>
      </trkpt>
      <trkpt lat="44.47096" lon="4.64794">
        <ele>200</ele>
        <time>2017-12-07T09:21:34Z</time>
      </trkpt>
      <trkpt lat="44.47093" lon="4.64789">
        <ele>200</ele>
        <time>2017-12-07T09:21:39Z</time>
      </trkpt>
      <trkpt lat="44.47092" lon="4.64787">
        <ele>200</ele>
        <time>2017-12-07T09:21:40Z</time>
      </trkpt>
      <trkpt lat="44.47091" lon="4.64782">
        <ele>200</ele>
        <time>2017-12-07T09:21:42Z</time>
      </trkpt>
      <trkpt lat="44.47091" lon="4.6478">
        <ele>200</ele>
        <time>2017-12-07T09:21:43Z</time>
      </trkpt>
      <trkpt lat="44.47091" lon="4.64776">
        <ele>200</ele>
        <time>2017-12-07T09:21:47Z</time>
      </trkpt>
      <trkpt lat="44.4709" lon="4.64774">
        <ele>200</ele>
        <time>2017-12-07T09:21:48Z</time>
      </trkpt>
      <trkpt lat="44.4709" lon="4.64772">
        <ele>200</ele>
        <time>2017-12-07T09:21:49Z</time>
      </trkpt>
      <trkpt lat="44.4709" lon="4.6477">
        <ele>200</ele>
        <time>2017-12-07T09:21:50Z</time>
      </trkpt>
      <trkpt lat="44.47087" lon="4.64756">
        <ele>200</ele>
        <time>2017-12-07T09:22:02Z</time>
      </trkpt>
      <trkpt lat="44.47084" lon="4.64745">
        <ele>200</ele>
        <time>2017-12-07T09:22:10Z</time>
      </trkpt>
      <trkpt lat="44.47082" lon="4.64743">
        <ele>200</ele>
        <time>2017-12-07T09:22:12Z</time>
      </trkpt>
      <trkpt lat="44.4708" lon="4.64735">
        <ele>200</ele>
        <time>2017-12-07T09:22:18Z</time>
      </trkpt>
      <trkpt lat="44.47077" lon="4.64717">
        <ele>200</ele>
        <time>2017-12-07T09:22:33Z</time>
      </trkpt>
      <trkpt lat="44.47075" lon="4.64702">
        <ele>202</ele>
        <time>2017-12-07T09:22:49Z</time>
      </trkpt>
      <trkpt lat="44.47072" lon="4.64689">
        <ele>204</ele>
        <time>2017-12-07T09:23:02Z</time>
      </trkpt>
      <trkpt lat="44.47068" lon="4.64676">
        <ele>205</ele>
        <time>2017-12-07T09:23:17Z</time>
      </trkpt>
      <trkpt lat="44.47064" lon="4.64662">
        <ele>207</ele>
        <time>2017-12-07T09:23:31Z</time>
      </trkpt>
      <trkpt lat="44.47059" lon="4.64644">
        <ele>208</ele>
        <time>2017-12-07T09:23:46Z</time>
      </trkpt>
      <trkpt lat="44.47054" lon="4.64634">
        <ele>209</ele>
        <time>2017-12-07T09:23:56Z</time>
      </trkpt>
      <trkpt lat="44.47054" lon="4.64632">
        <ele>209</ele>
        <time>2017-12-07T09:23:57Z</time>
      </trkpt>
      <trkpt lat="44.4705" lon="4.6462">
        <ele>210</ele>
        <time>2017-12-07T09:24:07Z</time>
      </trkpt>
      <trkpt lat="44.47049" lon="4.64618">
        <ele>210</ele>
        <time>2017-12-07T09:24:08Z</time>
      </trkpt>
      <trkpt lat="44.47044" lon="4.64605">
        <ele>210</ele>
        <time>2017-12-07T09:24:20Z</time>
      </trkpt>
      <trkpt lat="44.4704" lon="4.6459">
        <ele>211</ele>
        <time>2017-12-07T09:24:33Z</time>
      </trkpt>
      <trkpt lat="44.47036" lon="4.6457">
        <ele>213</ele>
        <time>2017-12-07T09:24:49Z</time>
      </trkpt>
      <trkpt lat="44.47034" lon="4.64554">
        <ele>214</ele>
        <time>2017-12-07T09:25:03Z</time>
      </trkpt>
      <trkpt lat="44.4703" lon="4.64548">
        <ele>214</ele>
        <time>2017-12-07T09:25:10Z</time>
      </trkpt>
      <trkpt lat="44.4703" lon="4.64546">
        <ele>214</ele>
        <time>2017-12-07T09:25:11Z</time>
      </trkpt>
      <trkpt lat="44.47022" lon="4.64532">
        <ele>215</ele>
        <time>2017-12-07T09:25:23Z</time>
      </trkpt>
      <trkpt lat="44.47015" lon="4.64519">
        <ele>215</ele>
        <time>2017-12-07T09:25:36Z</time>
      </trkpt>
      <trkpt lat="44.47007" lon="4.64503">
        <ele>216</ele>
        <time>2017-12-07T09:25:51Z</time>
      </trkpt>
      <trkpt lat="44.47001" lon="4.64492">
        <ele>218</ele>
        <time>2017-12-07T09:26:04Z</time>
      </trkpt>
      <trkpt lat="44.46992" lon="4.64475">
        <ele>219</ele>
        <time>2017-12-07T09:26:19Z</time>
      </trkpt>
      <trkpt lat="44.46991" lon="4.64471">
        <ele>219</ele>
        <time>2017-12-07T09:26:23Z</time>
      </trkpt>
      <trkpt lat="44.46987" lon="4.64461">
        <ele>220</ele>
        <time>2017-12-07T09:26:30Z</time>
      </trkpt>
      <trkpt lat="44.46983" lon="4.64449">
        <ele>220</ele>
        <time>2017-12-07T09:26:43Z</time>
      </trkpt>
      <trkpt lat="44.4698" lon="4.64442">
        <ele>221</ele>
        <time>2017-12-07T09:26:53Z</time>
      </trkpt>
      <trkpt lat="44.4698" lon="4.6444">
        <ele>221</ele>
        <time>2017-12-07T09:26:54Z</time>
      </trkpt>
      <trkpt lat="44.46974" lon="4.64423">
        <ele>222</ele>
        <time>2017-12-07T09:27:08Z</time>
      </trkpt>
      <trkpt lat="44.46969" lon="4.64409">
        <ele>223</ele>
        <time>2017-12-07T09:27:23Z</time>
      </trkpt>
      <trkpt lat="44.46968" lon="4.64399">
        <ele>224</ele>
        <time>2017-12-07T09:27:35Z</time>
      </trkpt>
      <trkpt lat="44.4697" lon="4.64398">
        <ele>224</ele>
        <time>2017-12-07T09:27:58Z</time>
      </trkpt>
      <trkpt lat="44.4697" lon="4.64398">
        <ele>224</ele>
        <time>2017-12-07T09:28:16Z</time>
      </trkpt>
      <trkpt lat="44.46969" lon="4.64398">
        <ele>224</ele>
        <time>2017-12-07T09:28:34Z</time>
      </trkpt>
      <trkpt lat="44.46969" lon="4.64398">
        <ele>224</ele>
        <time>2017-12-07T09:28:48Z</time>
      </trkpt>
      <trkpt lat="44.46964" lon="4.6439">
        <ele>225</ele>
        <time>2017-12-07T09:29:00Z</time>
      </trkpt>
      <trkpt lat="44.46963" lon="4.64388">
        <ele>225</ele>
        <time>2017-12-07T09:29:03Z</time>
      </trkpt>
      <trkpt lat="44.46955" lon="4.64377">
        <ele>227</ele>
        <time>2017-12-07T09:29:17Z</time>
      </trkpt>
      <trkpt lat="44.46947" lon="4.64365">
        <ele>229</ele>
        <time>2017-12-07T09:29:31Z</time>
      </trkpt>
      <trkpt lat="44.46942" lon="4.64358">
        <ele>230</ele>
        <time>2017-12-07T09:29:39Z</time>
      </trkpt>
      <trkpt lat="44.46934" lon="4.6435">
        <ele>231</ele>
        <time>2017-12-07T09:29:50Z</time>
      </trkpt>
      <trkpt lat="44.46923" lon="4.64335">
        <ele>233</ele>
        <time>2017-12-07T09:30:07Z</time>
      </trkpt>
      <trkpt lat="44.4691" lon="4.64327">
        <ele>236</ele>
        <time>2017-12-07T09:30:22Z</time>
      </trkpt>
      <trkpt lat="44.46895" lon="4.64321">
        <ele>238</ele>
        <time>2017-12-07T09:30:37Z</time>
      </trkpt>
      <trkpt lat="44.46881" lon="4.64312">
        <ele>240</ele>
        <time>2017-12-07T09:30:55Z</time>
      </trkpt>
      <trkpt lat="44.46871" lon="4.64308">
        <ele>242</ele>
        <time>2017-12-07T09:31:10Z</time>
      </trkpt>
      <trkpt lat="44.46854" lon="4.64301">
        <ele>245</ele>
        <time>2017-12-07T09:31:27Z</time>
      </trkpt>
      <trkpt lat="44.4684" lon="4.64298">
        <ele>248</ele>
        <time>2017-12-07T09:31:44Z</time>
      </trkpt>
      <trkpt lat="44.46833" lon="4.64296">
        <ele>249</ele>
        <time>2017-12-07T09:31:52Z</time>
      </trkpt>
      <trkpt lat="44.46827" lon="4.64294">
        <ele>250</ele>
        <time>2017-12-07T09:31:58Z</time>
      </trkpt>
      <trkpt lat="44.46826" lon="4.64294">
        <ele>250</ele>
        <time>2017-12-07T09:31:59Z</time>
      </trkpt>
      <trkpt lat="44.46815" lon="4.64292">
        <ele>252</ele>
        <time>2017-12-07T09:32:09Z</time>
      </trkpt>
      <trkpt lat="44.46814" lon="4.64291">
        <ele>252</ele>
        <time>2017-12-07T09:32:10Z</time>
      </trkpt>
      <trkpt lat="44.4681" lon="4.64288">
        <ele>252</ele>
        <time>2017-12-07T09:32:15Z</time>
      </trkpt>
      <trkpt lat="44.468" lon="4.6428">
        <ele>254</ele>
        <time>2017-12-07T09:32:28Z</time>
      </trkpt>
      <trkpt lat="44.4679" lon="4.64274">
        <ele>255</ele>
        <time>2017-12-07T09:32:40Z</time>
      </trkpt>
      <trkpt lat="44.46787" lon="4.64273">
        <ele>256</ele>
        <time>2017-12-07T09:32:42Z</time>
      </trkpt>
      <trkpt lat="44.46786" lon="4.64268">
        <ele>256</ele>
        <time>2017-12-07T09:32:47Z</time>
      </trkpt>
      <trkpt lat="44.46784" lon="4.64265">
        <ele>256</ele>
        <time>2017-12-07T09:32:49Z</time>
      </trkpt>
      <trkpt lat="44.46783" lon="4.64264">
        <ele>256</ele>
        <time>2017-12-07T09:32:50Z</time>
      </trkpt>
      <trkpt lat="44.46782" lon="4.64262">
        <ele>256</ele>
        <time>2017-12-07T09:32:51Z</time>
      </trkpt>
      <trkpt lat="44.46781" lon="4.6426">
        <ele>256</ele>
        <time>2017-12-07T09:32:52Z</time>
      </trkpt>
      <trkpt lat="44.46773" lon="4.64248">
        <ele>257</ele>
        <time>2017-12-07T09:33:03Z</time>
      </trkpt>
      <trkpt lat="44.46769" lon="4.64238">
        <ele>257</ele>
        <time>2017-12-07T09:33:15Z</time>
      </trkpt>
      <trkpt lat="44.46769" lon="4.64236">
        <ele>258</ele>
        <time>2017-12-07T09:33:19Z</time>
      </trkpt>
      <trkpt lat="44.46768" lon="4.64234">
        <ele>258</ele>
        <time>2017-12-07T09:33:20Z</time>
      </trkpt>
      <trkpt lat="44.46766" lon="4.6423">
        <ele>258</ele>
        <time>2017-12-07T09:33:24Z</time>
      </trkpt>
      <trkpt lat="44.46765" lon="4.64229">
        <ele>258</ele>
        <time>2017-12-07T09:33:25Z</time>
      </trkpt>
      <trkpt lat="44.46765" lon="4.64228">
        <ele>258</ele>
        <time>2017-12-07T09:33:26Z</time>
      </trkpt>
      <trkpt lat="44.46758" lon="4.64217">
        <ele>258</ele>
        <time>2017-12-07T09:33:37Z</time>
      </trkpt>
      <trkpt lat="44.46748" lon="4.64201">
        <ele>259</ele>
        <time>2017-12-07T09:33:49Z</time>
      </trkpt>
      <trkpt lat="44.46743" lon="4.64194">
        <ele>259</ele>
        <time>2017-12-07T09:33:58Z</time>
      </trkpt>
      <trkpt lat="44.46737" lon="4.64187">
        <ele>260</ele>
        <time>2017-12-07T09:34:07Z</time>
      </trkpt>
      <trkpt lat="44.46736" lon="4.64187">
        <ele>260</ele>
        <time>2017-12-07T09:34:08Z</time>
      </trkpt>
      <trkpt lat="44.46726" lon="4.64176">
        <ele>261</ele>
        <time>2017-12-07T09:34:22Z</time>
      </trkpt>
      <trkpt lat="44.46718" lon="4.64165">
        <ele>261</ele>
        <time>2017-12-07T09:34:34Z</time>
      </trkpt>
      <trkpt lat="44.46708" lon="4.64149">
        <ele>261</ele>
        <time>2017-12-07T09:34:49Z</time>
      </trkpt>
      <trkpt lat="44.46701" lon="4.6413">
        <ele>262</ele>
        <time>2017-12-07T09:35:03Z</time>
      </trkpt>
      <trkpt lat="44.46694" lon="4.64115">
        <ele>262</ele>
        <time>2017-12-07T09:35:15Z</time>
      </trkpt>
      <trkpt lat="44.46692" lon="4.64111">
        <ele>263</ele>
        <time>2017-12-07T09:35:20Z</time>
      </trkpt>
      <trkpt lat="44.46692" lon="4.6411">
        <ele>263</ele>
        <time>2017-12-07T09:35:21Z</time>
      </trkpt>
      <trkpt lat="44.46684" lon="4.64093">
        <ele>264</ele>
        <time>2017-12-07T09:35:34Z</time>
      </trkpt>
      <trkpt lat="44.46677" lon="4.64084">
        <ele>264</ele>
        <time>2017-12-07T09:35:46Z</time>
      </trkpt>
      <trkpt lat="44.46667" lon="4.64066">
        <ele>265</ele>
        <time>2017-12-07T09:36:02Z</time>
      </trkpt>
      <trkpt lat="44.46655" lon="4.6405">
        <ele>266</ele>
        <time>2017-12-07T09:36:20Z</time>
      </trkpt>
      <trkpt lat="44.46645" lon="4.64037">
        <ele>267</ele>
        <time>2017-12-07T09:36:35Z</time>
      </trkpt>
      <trkpt lat="44.46632" lon="4.64024">
        <ele>268</ele>
        <time>2017-12-07T09:36:53Z</time>
      </trkpt>
      <trkpt lat="44.4663" lon="4.64023">
        <ele>268</ele>
        <time>2017-12-07T09:36:55Z</time>
      </trkpt>
      <trkpt lat="44.46628" lon="4.64022">
        <ele>268</ele>
        <time>2017-12-07T09:36:56Z</time>
      </trkpt>
      <trkpt lat="44.46621" lon="4.64021">
        <ele>268</ele>
        <time>2017-12-07T09:37:02Z</time>
      </trkpt>
      <trkpt lat="44.46611" lon="4.64017">
        <ele>269</ele>
        <time>2017-12-07T09:37:14Z</time>
      </trkpt>
      <trkpt lat="44.46597" lon="4.6401">
        <ele>270</ele>
        <time>2017-12-07T09:37:31Z</time>
      </trkpt>
      <trkpt lat="44.46586" lon="4.64005">
        <ele>271</ele>
        <time>2017-12-07T09:37:45Z</time>
      </trkpt>
      <trkpt lat="44.46577" lon="4.63999">
        <ele>272</ele>
        <time>2017-12-07T09:37:56Z</time>
      </trkpt>
      <trkpt lat="44.46572" lon="4.63997">
        <ele>272</ele>
        <time>2017-12-07T09:38:02Z</time>
      </trkpt>
      <trkpt lat="44.46563" lon="4.63991">
        <ele>273</ele>
        <time>2017-12-07T09:38:14Z</time>
      </trkpt>
      <trkpt lat="44.46553" lon="4.63986">
        <ele>275</ele>
        <time>2017-12-07T09:38:27Z</time>
      </trkpt>
      <trkpt lat="44.46541" lon="4.6398">
        <ele>277</ele>
        <time>2017-12-07T09:38:44Z</time>
      </trkpt>
      <trkpt lat="44.46529" lon="4.63974">
        <ele>278</ele>
        <time>2017-12-07T09:39:00Z</time>
      </trkpt>
      <trkpt lat="44.46518" lon="4.6397">
        <ele>279</ele>
        <time>2017-12-07T09:39:13Z</time>
      </trkpt>
      <trkpt lat="44.46511" lon="4.63967">
        <ele>280</ele>
        <time>2017-12-07T09:39:21Z</time>
      </trkpt>
      <trkpt lat="44.4651" lon="4.63966">
        <ele>280</ele>
        <time>2017-12-07T09:39:22Z</time>
      </trkpt>
      <trkpt lat="44.46502" lon="4.63961">
        <ele>280</ele>
        <time>2017-12-07T09:39:33Z</time>
      </trkpt>
      <trkpt lat="44.46493" lon="4.63956">
        <ele>281</ele>
        <time>2017-12-07T09:39:44Z</time>
      </trkpt>
      <trkpt lat="44.46491" lon="4.63953">
        <ele>281</ele>
        <time>2017-12-07T09:39:48Z</time>
      </trkpt>
      <trkpt lat="44.4649" lon="4.63952">
        <ele>281</ele>
        <time>2017-12-07T09:39:49Z</time>
      </trkpt>
      <trkpt lat="44.46483" lon="4.63943">
        <ele>281</ele>
        <time>2017-12-07T09:39:59Z</time>
      </trkpt>
      <trkpt lat="44.46475" lon="4.63929">
        <ele>281</ele>
        <time>2017-12-07T09:40:12Z</time>
      </trkpt>
      <trkpt lat="44.46472" lon="4.63925">
        <ele>281</ele>
        <time>2017-12-07T09:40:16Z</time>
      </trkpt>
      <trkpt lat="44.46471" lon="4.63924">
        <ele>281</ele>
        <time>2017-12-07T09:40:17Z</time>
      </trkpt>
      <trkpt lat="44.4647" lon="4.63923">
        <ele>280</ele>
        <time>2017-12-07T09:40:18Z</time>
      </trkpt>
      <trkpt lat="44.46463" lon="4.63909">
        <ele>279</ele>
        <time>2017-12-07T09:40:31Z</time>
      </trkpt>
      <trkpt lat="44.46454" lon="4.63893">
        <ele>278</ele>
        <time>2017-12-07T09:40:46Z</time>
      </trkpt>
      <trkpt lat="44.46446" lon="4.63883">
        <ele>278</ele>
        <time>2017-12-07T09:40:57Z</time>
      </trkpt>
      <trkpt lat="44.46439" lon="4.63872">
        <ele>278</ele>
        <time>2017-12-07T09:41:07Z</time>
      </trkpt>
      <trkpt lat="44.46429" lon="4.63856">
        <ele>278</ele>
        <time>2017-12-07T09:41:23Z</time>
      </trkpt>
      <trkpt lat="44.46421" lon="4.63842">
        <ele>278</ele>
        <time>2017-12-07T09:41:36Z</time>
      </trkpt>
      <trkpt lat="44.46418" lon="4.63837">
        <ele>278</ele>
        <time>2017-12-07T09:41:40Z</time>
      </trkpt>
      <trkpt lat="44.46417" lon="4.63835">
        <ele>278</ele>
        <time>2017-12-07T09:41:41Z</time>
      </trkpt>
      <trkpt lat="44.4641" lon="4.63824">
        <ele>279</ele>
        <time>2017-12-07T09:41:54Z</time>
      </trkpt>
      <trkpt lat="44.46409" lon="4.63823">
        <ele>279</ele>
        <time>2017-12-07T09:41:55Z</time>
      </trkpt>
      <trkpt lat="44.46408" lon="4.63821">
        <ele>279</ele>
        <time>2017-12-07T09:41:56Z</time>
      </trkpt>
      <trkpt lat="44.46404" lon="4.63812">
        <ele>279</ele>
        <time>2017-12-07T09:42:04Z</time>
      </trkpt>
      <trkpt lat="44.46403" lon="4.6381">
        <ele>279</ele>
        <time>2017-12-07T09:42:05Z</time>
      </trkpt>
      <trkpt lat="44.46402" lon="4.63809">
        <ele>279</ele>
        <time>2017-12-07T09:42:06Z</time>
      </trkpt>
      <trkpt lat="44.46393" lon="4.63793">
        <ele>279</ele>
        <time>2017-12-07T09:42:19Z</time>
      </trkpt>
      <trkpt lat="44.46387" lon="4.6378">
        <ele>279</ele>
        <time>2017-12-07T09:42:32Z</time>
      </trkpt>
      <trkpt lat="44.46386" lon="4.63777">
        <ele>279</ele>
        <time>2017-12-07T09:42:34Z</time>
      </trkpt>
      <trkpt lat="44.4638" lon="4.63766">
        <ele>280</ele>
        <time>2017-12-07T09:42:44Z</time>
      </trkpt>
      <trkpt lat="44.46375" lon="4.6375">
        <ele>280</ele>
        <time>2017-12-07T09:42:56Z</time>
      </trkpt>
      <trkpt lat="44.46367" lon="4.63727">
        <ele>282</ele>
        <time>2017-12-07T09:43:15Z</time>
      </trkpt>
      <trkpt lat="44.46365" lon="4.63723">
        <ele>282</ele>
        <time>2017-12-07T09:43:19Z</time>
      </trkpt>
      <trkpt lat="44.46364" lon="4.63722">
        <ele>282</ele>
        <time>2017-12-07T09:43:20Z</time>
      </trkpt>
      <trkpt lat="44.46357" lon="4.63711">
        <ele>283</ele>
        <time>2017-12-07T09:43:31Z</time>
      </trkpt>
      <trkpt lat="44.46349" lon="4.63697">
        <ele>283</ele>
        <time>2017-12-07T09:43:45Z</time>
      </trkpt>
      <trkpt lat="44.46339" lon="4.6368">
        <ele>284</ele>
        <time>2017-12-07T09:44:00Z</time>
      </trkpt>
      <trkpt lat="44.46333" lon="4.63667">
        <ele>285</ele>
        <time>2017-12-07T09:44:13Z</time>
      </trkpt>
      <trkpt lat="44.46323" lon="4.63646">
        <ele>286</ele>
        <time>2017-12-07T09:44:30Z</time>
      </trkpt>
      <trkpt lat="44.46318" lon="4.63631">
        <ele>287</ele>
        <time>2017-12-07T09:44:44Z</time>
      </trkpt>
      <trkpt lat="44.46317" lon="4.6363">
        <ele>287</ele>
        <time>2017-12-07T09:44:45Z</time>
      </trkpt>
      <trkpt lat="44.46309" lon="4.63618">
        <ele>288</ele>
        <time>2017-12-07T09:44:57Z</time>
      </trkpt>
      <trkpt lat="44.46295" lon="4.63603">
        <ele>289</ele>
        <time>2017-12-07T09:45:16Z</time>
      </trkpt>
      <trkpt lat="44.46283" lon="4.63591">
        <ele>289</ele>
        <time>2017-12-07T09:45:32Z</time>
      </trkpt>
      <trkpt lat="44.46273" lon="4.63573">
        <ele>292</ele>
        <time>2017-12-07T09:45:49Z</time>
      </trkpt>
      <trkpt lat="44.46271" lon="4.63556">
        <ele>293</ele>
        <time>2017-12-07T09:46:05Z</time>
      </trkpt>
      <trkpt lat="44.46271" lon="4.63554">
        <ele>293</ele>
        <time>2017-12-07T09:46:07Z</time>
      </trkpt>
      <trkpt lat="44.46271" lon="4.6354">
        <ele>294</ele>
        <time>2017-12-07T09:46:21Z</time>
      </trkpt>
      <trkpt lat="44.46272" lon="4.63531">
        <ele>295</ele>
        <time>2017-12-07T09:46:28Z</time>
      </trkpt>
      <trkpt lat="44.46272" lon="4.6353">
        <ele>295</ele>
        <time>2017-12-07T09:46:29Z</time>
      </trkpt>
      <trkpt lat="44.46273" lon="4.63528">
        <ele>295</ele>
        <time>2017-12-07T09:46:30Z</time>
      </trkpt>
      <trkpt lat="44.46273" lon="4.63526">
        <ele>295</ele>
        <time>2017-12-07T09:46:31Z</time>
      </trkpt>
      <trkpt lat="44.46273" lon="4.63523">
        <ele>295</ele>
        <time>2017-12-07T09:46:34Z</time>
      </trkpt>
      <trkpt lat="44.46273" lon="4.63521">
        <ele>295</ele>
        <time>2017-12-07T09:46:35Z</time>
      </trkpt>
      <trkpt lat="44.46273" lon="4.6351">
        <ele>296</ele>
        <time>2017-12-07T09:46:45Z</time>
      </trkpt>
      <trkpt lat="44.46267" lon="4.63491">
        <ele>298</ele>
        <time>2017-12-07T09:47:02Z</time>
      </trkpt>
      <trkpt lat="44.46259" lon="4.63477">
        <ele>299</ele>
        <time>2017-12-07T09:47:17Z</time>
      </trkpt>
      <trkpt lat="44.46257" lon="4.63472">
        <ele>299</ele>
        <time>2017-12-07T09:47:23Z</time>
      </trkpt>
      <trkpt lat="44.46248" lon="4.63456">
        <ele>299</ele>
        <time>2017-12-07T09:47:38Z</time>
      </trkpt>
      <trkpt lat="44.46238" lon="4.63447">
        <ele>299</ele>
        <time>2017-12-07T09:47:50Z</time>
      </trkpt>
      <trkpt lat="44.46229" lon="4.6344">
        <ele>299</ele>
        <time>2017-12-07T09:48:01Z</time>
      </trkpt>
      <trkpt lat="44.46227" lon="4.63439">
        <ele>301</ele>
        <time>2017-12-07T09:48:03Z</time>
      </trkpt>
      <trkpt lat="44.46225" lon="4.63439">
        <ele>299</ele>
        <time>2017-12-07T09:48:04Z</time>
      </trkpt>
      <trkpt lat="44.4622" lon="4.6344">
        <ele>298</ele>
        <time>2017-12-07T09:48:07Z</time>
      </trkpt>
      <trkpt lat="44.46207" lon="4.63439">
        <ele>299</ele>
        <time>2017-12-07T09:48:19Z</time>
      </trkpt>
      <trkpt lat="44.46202" lon="4.63438">
        <ele>296</ele>
        <time>2017-12-07T09:48:28Z</time>
      </trkpt>
      <trkpt lat="44.46194" lon="4.63437">
        <ele>297</ele>
        <time>2017-12-07T09:48:35Z</time>
      </trkpt>
      <trkpt lat="44.46191" lon="4.63436">
        <ele>297</ele>
        <time>2017-12-07T09:48:39Z</time>
      </trkpt>
      <trkpt lat="44.4619" lon="4.63436">
        <ele>297</ele>
        <time>2017-12-07T09:48:40Z</time>
      </trkpt>
      <trkpt lat="44.46188" lon="4.63435">
        <ele>297</ele>
        <time>2017-12-07T09:48:56Z</time>
      </trkpt>
      <trkpt lat="44.46187" lon="4.63435">
        <ele>296</ele>
        <time>2017-12-07T09:49:08Z</time>
      </trkpt>
      <trkpt lat="44.46186" lon="4.63435">
        <ele>296</ele>
        <time>2017-12-07T09:49:09Z</time>
      </trkpt>
      <trkpt lat="44.4618" lon="4.63431">
        <ele>296</ele>
        <time>2017-12-07T09:49:18Z</time>
      </trkpt>
      <trkpt lat="44.46179" lon="4.63429">
        <ele>295</ele>
        <time>2017-12-07T09:49:28Z</time>
      </trkpt>
      <trkpt lat="44.46178" lon="4.63427">
        <ele>295</ele>
        <time>2017-12-07T09:49:29Z</time>
      </trkpt>
      <trkpt lat="44.46178" lon="4.63426">
        <ele>295</ele>
        <time>2017-12-07T09:49:30Z</time>
      </trkpt>
      <trkpt lat="44.46178" lon="4.63424">
        <ele>295</ele>
        <time>2017-12-07T09:49:31Z</time>
      </trkpt>
      <trkpt lat="44.46177" lon="4.63419">
        <ele>294</ele>
        <time>2017-12-07T09:49:37Z</time>
      </trkpt>
      <trkpt lat="44.46176" lon="4.63418">
        <ele>294</ele>
        <time>2017-12-07T09:49:38Z</time>
      </trkpt>
      <trkpt lat="44.46176" lon="4.63416">
        <ele>294</ele>
        <time>2017-12-07T09:49:39Z</time>
      </trkpt>
      <trkpt lat="44.46175" lon="4.63414">
        <ele>294</ele>
        <time>2017-12-07T09:49:40Z</time>
      </trkpt>
      <trkpt lat="44.46175" lon="4.63412">
        <ele>294</ele>
        <time>2017-12-07T09:49:41Z</time>
      </trkpt>
      <trkpt lat="44.46175" lon="4.6341">
        <ele>294</ele>
        <time>2017-12-07T09:49:42Z</time>
      </trkpt>
      <trkpt lat="44.46175" lon="4.63408">
        <ele>294</ele>
        <time>2017-12-07T09:49:43Z</time>
      </trkpt>
      <trkpt lat="44.46175" lon="4.63395">
        <ele>293</ele>
        <time>2017-12-07T09:49:57Z</time>
      </trkpt>
      <trkpt lat="44.46175" lon="4.63379">
        <ele>291</ele>
        <time>2017-12-07T09:50:13Z</time>
      </trkpt>
      <trkpt lat="44.46172" lon="4.6336">
        <ele>290</ele>
        <time>2017-12-07T09:50:28Z</time>
      </trkpt>
      <trkpt lat="44.46169" lon="4.63342">
        <ele>289</ele>
        <time>2017-12-07T09:50:45Z</time>
      </trkpt>
      <trkpt lat="44.46162" lon="4.63323">
        <ele>289</ele>
        <time>2017-12-07T09:51:01Z</time>
      </trkpt>
      <trkpt lat="44.46151" lon="4.63301">
        <ele>288</ele>
        <time>2017-12-07T09:51:14Z</time>
      </trkpt>
      <trkpt lat="44.46144" lon="4.63284">
        <ele>287</ele>
        <time>2017-12-07T09:51:28Z</time>
      </trkpt>
      <trkpt lat="44.46135" lon="4.63265">
        <ele>286</ele>
        <time>2017-12-07T09:51:41Z</time>
      </trkpt>
      <trkpt lat="44.46132" lon="4.63254">
        <ele>285</ele>
        <time>2017-12-07T09:51:52Z</time>
      </trkpt>
      <trkpt lat="44.46127" lon="4.63237">
        <ele>284</ele>
        <time>2017-12-07T09:52:07Z</time>
      </trkpt>
      <trkpt lat="44.46125" lon="4.63231">
        <ele>284</ele>
        <time>2017-12-07T09:52:11Z</time>
      </trkpt>
      <trkpt lat="44.46121" lon="4.63216">
        <ele>283</ele>
        <time>2017-12-07T09:52:22Z</time>
      </trkpt>
      <trkpt lat="44.46115" lon="4.63206">
        <ele>282</ele>
        <time>2017-12-07T09:52:29Z</time>
      </trkpt>
      <trkpt lat="44.46103" lon="4.63193">
        <ele>281</ele>
        <time>2017-12-07T09:52:43Z</time>
      </trkpt>
      <trkpt lat="44.46096" lon="4.63184">
        <ele>281</ele>
        <time>2017-12-07T09:52:53Z</time>
      </trkpt>
      <trkpt lat="44.46092" lon="4.63178">
        <ele>280</ele>
        <time>2017-12-07T09:53:01Z</time>
      </trkpt>
      <trkpt lat="44.46091" lon="4.63177">
        <ele>280</ele>
        <time>2017-12-07T09:53:02Z</time>
      </trkpt>
      <trkpt lat="44.46089" lon="4.63175">
        <ele>280</ele>
        <time>2017-12-07T09:53:03Z</time>
      </trkpt>
      <trkpt lat="44.46088" lon="4.63173">
        <ele>280</ele>
        <time>2017-12-07T09:53:04Z</time>
      </trkpt>
      <trkpt lat="44.46087" lon="4.63172">
        <ele>280</ele>
        <time>2017-12-07T09:53:05Z</time>
      </trkpt>
      <trkpt lat="44.46086" lon="4.6317">
        <ele>280</ele>
        <time>2017-12-07T09:53:09Z</time>
      </trkpt>
      <trkpt lat="44.46085" lon="4.63169">
        <ele>280</ele>
        <time>2017-12-07T09:53:10Z</time>
      </trkpt>
      <trkpt lat="44.46083" lon="4.63167">
        <ele>280</ele>
        <time>2017-12-07T09:53:11Z</time>
      </trkpt>
      <trkpt lat="44.46076" lon="4.63154">
        <ele>279</ele>
        <time>2017-12-07T09:53:23Z</time>
      </trkpt>
      <trkpt lat="44.46068" lon="4.63142">
        <ele>279</ele>
        <time>2017-12-07T09:53:35Z</time>
      </trkpt>
      <trkpt lat="44.46062" lon="4.63127">
        <ele>279</ele>
        <time>2017-12-07T09:53:47Z</time>
      </trkpt>
      <trkpt lat="44.46052" lon="4.63109">
        <ele>278</ele>
        <time>2017-12-07T09:54:01Z</time>
      </trkpt>
      <trkpt lat="44.46043" lon="4.63087">
        <ele>278</ele>
        <time>2017-12-07T09:54:19Z</time>
      </trkpt>
      <trkpt lat="44.4603" lon="4.63067">
        <ele>278</ele>
        <time>2017-12-07T09:54:36Z</time>
      </trkpt>
      <trkpt lat="44.46021" lon="4.63049">
        <ele>278</ele>
        <time>2017-12-07T09:54:51Z</time>
      </trkpt>
      <trkpt lat="44.46014" lon="4.6303">
        <ele>278</ele>
        <time>2017-12-07T09:55:07Z</time>
      </trkpt>
      <trkpt lat="44.46012" lon="4.63017">
        <ele>278</ele>
        <time>2017-12-07T09:55:20Z</time>
      </trkpt>
      <trkpt lat="44.46012" lon="4.63015">
        <ele>278</ele>
        <time>2017-12-07T09:55:29Z</time>
      </trkpt>
      <trkpt lat="44.46013" lon="4.63014">
        <ele>278</ele>
        <time>2017-12-07T09:55:30Z</time>
      </trkpt>
      <trkpt lat="44.46018" lon="4.63007">
        <ele>278</ele>
        <time>2017-12-07T09:55:41Z</time>
      </trkpt>
      <trkpt lat="44.4602" lon="4.63006">
        <ele>280</ele>
        <time>2017-12-07T09:55:43Z</time>
      </trkpt>
      <trkpt lat="44.46021" lon="4.63003">
        <ele>280</ele>
        <time>2017-12-07T09:55:47Z</time>
      </trkpt>
      <trkpt lat="44.46021" lon="4.63002">
        <ele>280</ele>
        <time>2017-12-07T09:55:48Z</time>
      </trkpt>
      <trkpt lat="44.46027" lon="4.62984">
        <ele>281</ele>
        <time>2017-12-07T09:56:04Z</time>
      </trkpt>
      <trkpt lat="44.46035" lon="4.6297">
        <ele>282</ele>
        <time>2017-12-07T09:56:19Z</time>
      </trkpt>
      <trkpt lat="44.46035" lon="4.62969">
        <ele>282</ele>
        <time>2017-12-07T09:56:20Z</time>
      </trkpt>
      <trkpt lat="44.46038" lon="4.62966">
        <ele>282</ele>
        <time>2017-12-07T09:56:25Z</time>
      </trkpt>
      <trkpt lat="44.46039" lon="4.62965">
        <ele>282</ele>
        <time>2017-12-07T09:56:26Z</time>
      </trkpt>
      <trkpt lat="44.4604" lon="4.62964">
        <ele>283</ele>
        <time>2017-12-07T09:56:27Z</time>
      </trkpt>
      <trkpt lat="44.4605" lon="4.62962">
        <ele>283</ele>
        <time>2017-12-07T09:56:39Z</time>
      </trkpt>
      <trkpt lat="44.46053" lon="4.62963">
        <ele>284</ele>
        <time>2017-12-07T09:56:43Z</time>
      </trkpt>
      <trkpt lat="44.46063" lon="4.62966">
        <ele>285</ele>
        <time>2017-12-07T09:56:55Z</time>
      </trkpt>
      <trkpt lat="44.46079" lon="4.6297">
        <ele>287</ele>
        <time>2017-12-07T09:57:12Z</time>
      </trkpt>
      <trkpt lat="44.46093" lon="4.62972">
        <ele>289</ele>
        <time>2017-12-07T09:57:27Z</time>
      </trkpt>
      <trkpt lat="44.46102" lon="4.62977">
        <ele>290</ele>
        <time>2017-12-07T09:57:38Z</time>
      </trkpt>
      <trkpt lat="44.46109" lon="4.62981">
        <ele>290</ele>
        <time>2017-12-07T09:57:46Z</time>
      </trkpt>
      <trkpt lat="44.4611" lon="4.62982">
        <ele>290</ele>
        <time>2017-12-07T09:57:47Z</time>
      </trkpt>
      <trkpt lat="44.46118" lon="4.62988">
        <ele>292</ele>
        <time>2017-12-07T09:57:57Z</time>
      </trkpt>
      <trkpt lat="44.46129" lon="4.63">
        <ele>293</ele>
        <time>2017-12-07T09:58:11Z</time>
      </trkpt>
      <trkpt lat="44.46142" lon="4.63011">
        <ele>295</ele>
        <time>2017-12-07T09:58:27Z</time>
      </trkpt>
      <trkpt lat="44.46157" lon="4.63022">
        <ele>297</ele>
        <time>2017-12-07T09:58:44Z</time>
      </trkpt>
      <trkpt lat="44.46169" lon="4.63032">
        <ele>298</ele>
        <time>2017-12-07T09:58:56Z</time>
      </trkpt>
      <trkpt lat="44.46171" lon="4.63034">
        <ele>298</ele>
        <time>2017-12-07T09:59:01Z</time>
      </trkpt>
      <trkpt lat="44.46172" lon="4.63035">
        <ele>298</ele>
        <time>2017-12-07T09:59:02Z</time>
      </trkpt>
      <trkpt lat="44.46189" lon="4.63051">
        <ele>298</ele>
        <time>2017-12-07T09:59:17Z</time>
      </trkpt>
      <trkpt lat="44.46194" lon="4.63051">
        <ele>299</ele>
        <time>2017-12-07T09:59:26Z</time>
      </trkpt>
      <trkpt lat="44.46197" lon="4.63052">
        <ele>299</ele>
        <time>2017-12-07T09:59:30Z</time>
      </trkpt>
      <trkpt lat="44.46199" lon="4.63052">
        <ele>299</ele>
        <time>2017-12-07T09:59:31Z</time>
      </trkpt>
      <trkpt lat="44.462" lon="4.63052">
        <ele>299</ele>
        <time>2017-12-07T09:59:32Z</time>
      </trkpt>
      <trkpt lat="44.46208" lon="4.63053">
        <ele>300</ele>
        <time>2017-12-07T09:59:40Z</time>
      </trkpt>
      <trkpt lat="44.46221" lon="4.63053">
        <ele>301</ele>
        <time>2017-12-07T09:59:52Z</time>
      </trkpt>
      <trkpt lat="44.46222" lon="4.63053">
        <ele>301</ele>
        <time>2017-12-07T09:59:53Z</time>
      </trkpt>
      <trkpt lat="44.46235" lon="4.63052">
        <ele>302</ele>
        <time>2017-12-07T10:00:05Z</time>
      </trkpt>
      <trkpt lat="44.4625" lon="4.6305">
        <ele>302</ele>
        <time>2017-12-07T10:00:21Z</time>
      </trkpt>
      <trkpt lat="44.46265" lon="4.63051">
        <ele>304</ele>
        <time>2017-12-07T10:00:36Z</time>
      </trkpt>
      <trkpt lat="44.46275" lon="4.63051">
        <ele>305</ele>
        <time>2017-12-07T10:00:48Z</time>
      </trkpt>
      <trkpt lat="44.46276" lon="4.63051">
        <ele>305</ele>
        <time>2017-12-07T10:00:49Z</time>
      </trkpt>
      <trkpt lat="44.46278" lon="4.6305">
        <ele>305</ele>
        <time>2017-12-07T10:00:50Z</time>
      </trkpt>
      <trkpt lat="44.46279" lon="4.6305">
        <ele>306</ele>
        <time>2017-12-07T10:00:51Z</time>
      </trkpt>
      <trkpt lat="44.46289" lon="4.63048">
        <ele>306</ele>
        <time>2017-12-07T10:01:03Z</time>
      </trkpt>
      <trkpt lat="44.46301" lon="4.63046">
        <ele>307</ele>
        <time>2017-12-07T10:01:16Z</time>
      </trkpt>
      <trkpt lat="44.4631" lon="4.63042">
        <ele>309</ele>
        <time>2017-12-07T10:01:26Z</time>
      </trkpt>
      <trkpt lat="44.46321" lon="4.63038">
        <ele>310</ele>
        <time>2017-12-07T10:01:37Z</time>
      </trkpt>
      <trkpt lat="44.46323" lon="4.63036">
        <ele>311</ele>
        <time>2017-12-07T10:01:41Z</time>
      </trkpt>
      <trkpt lat="44.46324" lon="4.63035">
        <ele>311</ele>
        <time>2017-12-07T10:01:42Z</time>
      </trkpt>
      <trkpt lat="44.46326" lon="4.63035">
        <ele>311</ele>
        <time>2017-12-07T10:01:43Z</time>
      </trkpt>
      <trkpt lat="44.46329" lon="4.63033">
        <ele>311</ele>
        <time>2017-12-07T10:01:47Z</time>
      </trkpt>
      <trkpt lat="44.4633" lon="4.63032">
        <ele>312</ele>
        <time>2017-12-07T10:01:48Z</time>
      </trkpt>
      <trkpt lat="44.46331" lon="4.63032">
        <ele>312</ele>
        <time>2017-12-07T10:01:49Z</time>
      </trkpt>
      <trkpt lat="44.46333" lon="4.63031">
        <ele>312</ele>
        <time>2017-12-07T10:01:50Z</time>
      </trkpt>
      <trkpt lat="44.46342" lon="4.63029">
        <ele>313</ele>
        <time>2017-12-07T10:02:00Z</time>
      </trkpt>
      <trkpt lat="44.46343" lon="4.63028">
        <ele>313</ele>
        <time>2017-12-07T10:02:02Z</time>
      </trkpt>
      <trkpt lat="44.46346" lon="4.63028">
        <ele>314</ele>
        <time>2017-12-07T10:02:04Z</time>
      </trkpt>
      <trkpt lat="44.46357" lon="4.63028">
        <ele>315</ele>
        <time>2017-12-07T10:02:17Z</time>
      </trkpt>
      <trkpt lat="44.46368" lon="4.63029">
        <ele>315</ele>
        <time>2017-12-07T10:02:29Z</time>
      </trkpt>
      <trkpt lat="44.4637" lon="4.63028">
        <ele>315</ele>
        <time>2017-12-07T10:02:33Z</time>
      </trkpt>
      <trkpt lat="44.46372" lon="4.63027">
        <ele>315</ele>
        <time>2017-12-07T10:02:34Z</time>
      </trkpt>
      <trkpt lat="44.46373" lon="4.63026">
        <ele>315</ele>
        <time>2017-12-07T10:02:35Z</time>
      </trkpt>
      <trkpt lat="44.4638" lon="4.63027">
        <ele>316</ele>
        <time>2017-12-07T10:02:42Z</time>
      </trkpt>
      <trkpt lat="44.46381" lon="4.63028">
        <ele>316</ele>
        <time>2017-12-07T10:02:43Z</time>
      </trkpt>
      <trkpt lat="44.4639" lon="4.63031">
        <ele>317</ele>
        <time>2017-12-07T10:02:51Z</time>
      </trkpt>
      <trkpt lat="44.46391" lon="4.63031">
        <ele>317</ele>
        <time>2017-12-07T10:02:52Z</time>
      </trkpt>
      <trkpt lat="44.46399" lon="4.63034">
        <ele>317</ele>
        <time>2017-12-07T10:03:00Z</time>
      </trkpt>
      <trkpt lat="44.46403" lon="4.63035">
        <ele>317</ele>
        <time>2017-12-07T10:03:06Z</time>
      </trkpt>
      <trkpt lat="44.46414" lon="4.63036">
        <ele>318</ele>
        <time>2017-12-07T10:03:16Z</time>
      </trkpt>
      <trkpt lat="44.46424" lon="4.63038">
        <ele>318</ele>
        <time>2017-12-07T10:03:28Z</time>
      </trkpt>
      <trkpt lat="44.4643" lon="4.63038">
        <ele>319</ele>
        <time>2017-12-07T10:03:33Z</time>
      </trkpt>
      <trkpt lat="44.46438" lon="4.63041">
        <ele>320</ele>
        <time>2017-12-07T10:03:43Z</time>
      </trkpt>
      <trkpt lat="44.4645" lon="4.63042">
        <ele>320</ele>
        <time>2017-12-07T10:03:54Z</time>
      </trkpt>
      <trkpt lat="44.46461" lon="4.63043">
        <ele>321</ele>
        <time>2017-12-07T10:04:04Z</time>
      </trkpt>
      <trkpt lat="44.46477" lon="4.63045">
        <ele>323</ele>
        <time>2017-12-07T10:04:20Z</time>
      </trkpt>
      <trkpt lat="44.46489" lon="4.63047">
        <ele>324</ele>
        <time>2017-12-07T10:04:32Z</time>
      </trkpt>
      <trkpt lat="44.46498" lon="4.63048">
        <ele>324</ele>
        <time>2017-12-07T10:04:42Z</time>
      </trkpt>
      <trkpt lat="44.4651" lon="4.6305">
        <ele>326</ele>
        <time>2017-12-07T10:04:53Z</time>
      </trkpt>
      <trkpt lat="44.46511" lon="4.63051">
        <ele>326</ele>
        <time>2017-12-07T10:04:54Z</time>
      </trkpt>
      <trkpt lat="44.46512" lon="4.63051">
        <ele>326</ele>
        <time>2017-12-07T10:04:55Z</time>
      </trkpt>
      <trkpt lat="44.46514" lon="4.63051">
        <ele>326</ele>
        <time>2017-12-07T10:04:56Z</time>
      </trkpt>
      <trkpt lat="44.46515" lon="4.63052">
        <ele>326</ele>
        <time>2017-12-07T10:04:57Z</time>
      </trkpt>
      <trkpt lat="44.46516" lon="4.63052">
        <ele>326</ele>
        <time>2017-12-07T10:04:58Z</time>
      </trkpt>
      <trkpt lat="44.46518" lon="4.63052">
        <ele>326</ele>
        <time>2017-12-07T10:05:00Z</time>
      </trkpt>
      <trkpt lat="44.46539" lon="4.63053">
        <ele>327</ele>
        <time>2017-12-07T10:05:20Z</time>
      </trkpt>
      <trkpt lat="44.4655" lon="4.63053">
        <ele>329</ele>
        <time>2017-12-07T10:05:34Z</time>
      </trkpt>
      <trkpt lat="44.46562" lon="4.63057">
        <ele>330</ele>
        <time>2017-12-07T10:05:46Z</time>
      </trkpt>
      <trkpt lat="44.46575" lon="4.63061">
        <ele>331</ele>
        <time>2017-12-07T10:06:00Z</time>
      </trkpt>
      <trkpt lat="44.46578" lon="4.63061">
        <ele>332</ele>
        <time>2017-12-07T10:06:04Z</time>
      </trkpt>
      <trkpt lat="44.46584" lon="4.63063">
        <ele>332</ele>
        <time>2017-12-07T10:06:11Z</time>
      </trkpt>
      <trkpt lat="44.46586" lon="4.63064">
        <ele>332</ele>
        <time>2017-12-07T10:06:12Z</time>
      </trkpt>
      <trkpt lat="44.46587" lon="4.63064">
        <ele>333</ele>
        <time>2017-12-07T10:06:13Z</time>
      </trkpt>
      <trkpt lat="44.46592" lon="4.63063">
        <ele>334</ele>
        <time>2017-12-07T10:06:18Z</time>
      </trkpt>
      <trkpt lat="44.46594" lon="4.63063">
        <ele>334</ele>
        <time>2017-12-07T10:06:19Z</time>
      </trkpt>
      <trkpt lat="44.46597" lon="4.63064">
        <ele>334</ele>
        <time>2017-12-07T10:06:24Z</time>
      </trkpt>
      <trkpt lat="44.46604" lon="4.63065">
        <ele>335</ele>
        <time>2017-12-07T10:06:33Z</time>
      </trkpt>
      <trkpt lat="44.46605" lon="4.63065">
        <ele>335</ele>
        <time>2017-12-07T10:06:34Z</time>
      </trkpt>
      <trkpt lat="44.46606" lon="4.63065">
        <ele>336</ele>
        <time>2017-12-07T10:06:35Z</time>
      </trkpt>
      <trkpt lat="44.46611" lon="4.63065">
        <ele>336</ele>
        <time>2017-12-07T10:06:41Z</time>
      </trkpt>
      <trkpt lat="44.46612" lon="4.63065">
        <ele>336</ele>
        <time>2017-12-07T10:06:42Z</time>
      </trkpt>
      <trkpt lat="44.46613" lon="4.63065">
        <ele>336</ele>
        <time>2017-12-07T10:06:43Z</time>
      </trkpt>
      <trkpt lat="44.46622" lon="4.63066">
        <ele>338</ele>
        <time>2017-12-07T10:06:56Z</time>
      </trkpt>
      <trkpt lat="44.46637" lon="4.63069">
        <ele>340</ele>
        <time>2017-12-07T10:07:13Z</time>
      </trkpt>
      <trkpt lat="44.46646" lon="4.6307">
        <ele>341</ele>
        <time>2017-12-07T10:07:23Z</time>
      </trkpt>
      <trkpt lat="44.46653" lon="4.63071">
        <ele>341</ele>
        <time>2017-12-07T10:07:31Z</time>
      </trkpt>
      <trkpt lat="44.46658" lon="4.63074">
        <ele>342</ele>
        <time>2017-12-07T10:07:35Z</time>
      </trkpt>
      <trkpt lat="44.4666" lon="4.63074">
        <ele>342</ele>
        <time>2017-12-07T10:07:36Z</time>
      </trkpt>
      <trkpt lat="44.4667" lon="4.63078">
        <ele>343</ele>
        <time>2017-12-07T10:07:48Z</time>
      </trkpt>
      <trkpt lat="44.46672" lon="4.63079">
        <ele>344</ele>
        <time>2017-12-07T10:07:51Z</time>
      </trkpt>
      <trkpt lat="44.46674" lon="4.63079">
        <ele>344</ele>
        <time>2017-12-07T10:07:52Z</time>
      </trkpt>
      <trkpt lat="44.46676" lon="4.6308">
        <ele>344</ele>
        <time>2017-12-07T10:07:53Z</time>
      </trkpt>
      <trkpt lat="44.46677" lon="4.6308">
        <ele>344</ele>
        <time>2017-12-07T10:07:54Z</time>
      </trkpt>
      <trkpt lat="44.46685" lon="4.63081">
        <ele>345</ele>
        <time>2017-12-07T10:08:04Z</time>
      </trkpt>
      <trkpt lat="44.46695" lon="4.63086">
        <ele>347</ele>
        <time>2017-12-07T10:08:14Z</time>
      </trkpt>
      <trkpt lat="44.46699" lon="4.63088">
        <ele>347</ele>
        <time>2017-12-07T10:08:19Z</time>
      </trkpt>
      <trkpt lat="44.46701" lon="4.63088">
        <ele>348</ele>
        <time>2017-12-07T10:08:20Z</time>
      </trkpt>
      <trkpt lat="44.46709" lon="4.63091">
        <ele>349</ele>
        <time>2017-12-07T10:08:27Z</time>
      </trkpt>
      <trkpt lat="44.46718" lon="4.63096">
        <ele>350</ele>
        <time>2017-12-07T10:08:39Z</time>
      </trkpt>
      <trkpt lat="44.46732" lon="4.63104">
        <ele>352</ele>
        <time>2017-12-07T10:08:54Z</time>
      </trkpt>
      <trkpt lat="44.46749" lon="4.63107">
        <ele>354</ele>
        <time>2017-12-07T10:09:13Z</time>
      </trkpt>
      <trkpt lat="44.46762" lon="4.63101">
        <ele>356</ele>
        <time>2017-12-07T10:09:26Z</time>
      </trkpt>
      <trkpt lat="44.46774" lon="4.63097">
        <ele>357</ele>
        <time>2017-12-07T10:09:39Z</time>
      </trkpt>
      <trkpt lat="44.46775" lon="4.63097">
        <ele>357</ele>
        <time>2017-12-07T10:09:40Z</time>
      </trkpt>
      <trkpt lat="44.46777" lon="4.63096">
        <ele>357</ele>
        <time>2017-12-07T10:09:41Z</time>
      </trkpt>
      <trkpt lat="44.46786" lon="4.63095">
        <ele>358</ele>
        <time>2017-12-07T10:09:52Z</time>
      </trkpt>
      <trkpt lat="44.46787" lon="4.63094">
        <ele>358</ele>
        <time>2017-12-07T10:09:53Z</time>
      </trkpt>
      <trkpt lat="44.46788" lon="4.63094">
        <ele>358</ele>
        <time>2017-12-07T10:09:54Z</time>
      </trkpt>
      <trkpt lat="44.4679" lon="4.63094">
        <ele>358</ele>
        <time>2017-12-07T10:09:55Z</time>
      </trkpt>
      <trkpt lat="44.46792" lon="4.63094">
        <ele>358</ele>
        <time>2017-12-07T10:09:56Z</time>
      </trkpt>
      <trkpt lat="44.46794" lon="4.63095">
        <ele>359</ele>
        <time>2017-12-07T10:10:06Z</time>
      </trkpt>
      <trkpt lat="44.46794" lon="4.63093">
        <ele>359</ele>
        <time>2017-12-07T10:10:29Z</time>
      </trkpt>
      <trkpt lat="44.46797" lon="4.63093">
        <ele>359</ele>
        <time>2017-12-07T10:10:34Z</time>
      </trkpt>
      <trkpt lat="44.46802" lon="4.63095">
        <ele>360</ele>
        <time>2017-12-07T10:10:39Z</time>
      </trkpt>
      <trkpt lat="44.46804" lon="4.63095">
        <ele>360</ele>
        <time>2017-12-07T10:10:40Z</time>
      </trkpt>
      <trkpt lat="44.46815" lon="4.63096">
        <ele>362</ele>
        <time>2017-12-07T10:10:53Z</time>
      </trkpt>
      <trkpt lat="44.46827" lon="4.63096">
        <ele>363</ele>
        <time>2017-12-07T10:11:08Z</time>
      </trkpt>
      <trkpt lat="44.46835" lon="4.63095">
        <ele>364</ele>
        <time>2017-12-07T10:11:16Z</time>
      </trkpt>
      <trkpt lat="44.46836" lon="4.63096">
        <ele>364</ele>
        <time>2017-12-07T10:11:17Z</time>
      </trkpt>
      <trkpt lat="44.46837" lon="4.63096">
        <ele>364</ele>
        <time>2017-12-07T10:11:18Z</time>
      </trkpt>
      <trkpt lat="44.46848" lon="4.63096">
        <ele>365</ele>
        <time>2017-12-07T10:11:30Z</time>
      </trkpt>
      <trkpt lat="44.46861" lon="4.63097">
        <ele>367</ele>
        <time>2017-12-07T10:11:46Z</time>
      </trkpt>
      <trkpt lat="44.46873" lon="4.63098">
        <ele>368</ele>
        <time>2017-12-07T10:11:59Z</time>
      </trkpt>
      <trkpt lat="44.46889" lon="4.631">
        <ele>370</ele>
        <time>2017-12-07T10:12:16Z</time>
      </trkpt>
      <trkpt lat="44.46893" lon="4.63101">
        <ele>370</ele>
        <time>2017-12-07T10:12:21Z</time>
      </trkpt>
      <trkpt lat="44.46895" lon="4.63101">
        <ele>370</ele>
        <time>2017-12-07T10:12:22Z</time>
      </trkpt>
      <trkpt lat="44.46897" lon="4.631">
        <ele>370</ele>
        <time>2017-12-07T10:12:23Z</time>
      </trkpt>
      <trkpt lat="44.46898" lon="4.631">
        <ele>370</ele>
        <time>2017-12-07T10:12:24Z</time>
      </trkpt>
      <trkpt lat="44.469" lon="4.631">
        <ele>370</ele>
        <time>2017-12-07T10:12:25Z</time>
      </trkpt>
      <trkpt lat="44.46902" lon="4.631">
        <ele>371</ele>
        <time>2017-12-07T10:12:30Z</time>
      </trkpt>
      <trkpt lat="44.46904" lon="4.631">
        <ele>371</ele>
        <time>2017-12-07T10:12:31Z</time>
      </trkpt>
      <trkpt lat="44.46906" lon="4.631">
        <ele>371</ele>
        <time>2017-12-07T10:12:32Z</time>
      </trkpt>
      <trkpt lat="44.46912" lon="4.63102">
        <ele>371</ele>
        <time>2017-12-07T10:12:38Z</time>
      </trkpt>
      <trkpt lat="44.46914" lon="4.63102">
        <ele>371</ele>
        <time>2017-12-07T10:12:39Z</time>
      </trkpt>
      <trkpt lat="44.46924" lon="4.63104">
        <ele>372</ele>
        <time>2017-12-07T10:12:49Z</time>
      </trkpt>
      <trkpt lat="44.46934" lon="4.63105">
        <ele>373</ele>
        <time>2017-12-07T10:13:01Z</time>
      </trkpt>
      <trkpt lat="44.46943" lon="4.63098">
        <ele>374</ele>
        <time>2017-12-07T10:13:12Z</time>
      </trkpt>
      <trkpt lat="44.46944" lon="4.63095">
        <ele>374</ele>
        <time>2017-12-07T10:13:16Z</time>
      </trkpt>
      <trkpt lat="44.46944" lon="4.63092">
        <ele>374</ele>
        <time>2017-12-07T10:13:17Z</time>
      </trkpt>
      <trkpt lat="44.46944" lon="4.6309">
        <ele>374</ele>
        <time>2017-12-07T10:13:18Z</time>
      </trkpt>
      <trkpt lat="44.46945" lon="4.63087">
        <ele>374</ele>
        <time>2017-12-07T10:13:19Z</time>
      </trkpt>
      <trkpt lat="44.46945" lon="4.63085">
        <ele>374</ele>
        <time>2017-12-07T10:13:20Z</time>
      </trkpt>
      <trkpt lat="44.46947" lon="4.63081">
        <ele>374</ele>
        <time>2017-12-07T10:13:24Z</time>
      </trkpt>
      <trkpt lat="44.46946" lon="4.63067">
        <ele>375</ele>
        <time>2017-12-07T10:13:36Z</time>
      </trkpt>
      <trkpt lat="44.46945" lon="4.63064">
        <ele>375</ele>
        <time>2017-12-07T10:13:52Z</time>
      </trkpt>
      <trkpt lat="44.46947" lon="4.63069">
        <ele>375</ele>
        <time>2017-12-07T10:14:02Z</time>
      </trkpt>
      <trkpt lat="44.46946" lon="4.63071">
        <ele>375</ele>
        <time>2017-12-07T10:14:13Z</time>
      </trkpt>
      <trkpt lat="44.46947" lon="4.6307">
        <ele>375</ele>
        <time>2017-12-07T10:14:32Z</time>
      </trkpt>
      <trkpt lat="44.46947" lon="4.63069">
        <ele>375</ele>
        <time>2017-12-07T10:14:45Z</time>
      </trkpt>
      <trkpt lat="44.46948" lon="4.6307">
        <ele>375</ele>
        <time>2017-12-07T10:15:04Z</time>
      </trkpt>
      <trkpt lat="44.46947" lon="4.63071">
        <ele>375</ele>
        <time>2017-12-07T10:15:21Z</time>
      </trkpt>
      <trkpt lat="44.46948" lon="4.6307">
        <ele>375</ele>
        <time>2017-12-07T10:15:34Z</time>
      </trkpt>
      <trkpt lat="44.46948" lon="4.6307">
        <ele>375</ele>
        <time>2017-12-07T10:15:47Z</time>
      </trkpt>
      <trkpt lat="44.46948" lon="4.6307">
        <ele>375</ele>
        <time>2017-12-07T10:15:56Z</time>
      </trkpt>
      <trkpt lat="44.46948" lon="4.63069">
        <ele>375</ele>
        <time>2017-12-07T10:16:09Z</time>
      </trkpt>
      <trkpt lat="44.46948" lon="4.63069">
        <ele>375</ele>
        <time>2017-12-07T10:16:27Z</time>
      </trkpt>
      <trkpt lat="44.46948" lon="4.63071">
        <ele>375</ele>
        <time>2017-12-07T10:16:51Z</time>
      </trkpt>
      <trkpt lat="44.46947" lon="4.6307">
        <ele>375</ele>
        <time>2017-12-07T10:17:08Z</time>
      </trkpt>
      <trkpt lat="44.46948" lon="4.6307">
        <ele>375</ele>
        <time>2017-12-07T10:17:20Z</time>
      </trkpt>
      <trkpt lat="44.46948" lon="4.6307">
        <ele>375</ele>
        <time>2017-12-07T10:17:33Z</time>
      </trkpt>
      <trkpt lat="44.4695" lon="4.63072">
        <ele>375</ele>
        <time>2017-12-07T10:17:43Z</time>
      </trkpt>
      <trkpt lat="44.46951" lon="4.63072">
        <ele>375</ele>
        <time>2017-12-07T10:17:54Z</time>
      </trkpt>
      <trkpt lat="44.4695" lon="4.6307">
        <ele>375</ele>
        <time>2017-12-07T10:18:14Z</time>
      </trkpt>
      <trkpt lat="44.4695" lon="4.63071">
        <ele>375</ele>
        <time>2017-12-07T10:18:42Z</time>
      </trkpt>
      <trkpt lat="44.4695" lon="4.63071">
        <ele>375</ele>
        <time>2017-12-07T10:19:08Z</time>
      </trkpt>
      <trkpt lat="44.4695" lon="4.63071">
        <ele>375</ele>
        <time>2017-12-07T10:19:26Z</time>
      </trkpt>
      <trkpt lat="44.4695" lon="4.6307">
        <ele>374</ele>
        <time>2017-12-07T10:19:42Z</time>
      </trkpt>
      <trkpt lat="44.4695" lon="4.6307">
        <ele>374</ele>
        <time>2017-12-07T10:19:58Z</time>
      </trkpt>
      <trkpt lat="44.4695" lon="4.63071">
        <ele>374</ele>
        <time>2017-12-07T10:20:13Z</time>
      </trkpt>
      <trkpt lat="44.4695" lon="4.63071">
        <ele>375</ele>
        <time>2017-12-07T10:20:25Z</time>
      </trkpt>
      <trkpt lat="44.46949" lon="4.63073">
        <ele>375</ele>
        <time>2017-12-07T10:20:30Z</time>
      </trkpt>
      <trkpt lat="44.46949" lon="4.63079">
        <ele>375</ele>
        <time>2017-12-07T10:20:36Z</time>
      </trkpt>
      <trkpt lat="44.46949" lon="4.63082">
        <ele>374</ele>
        <time>2017-12-07T10:20:40Z</time>
      </trkpt>
      <trkpt lat="44.46948" lon="4.63096">
        <ele>373</ele>
        <time>2017-12-07T10:20:50Z</time>
      </trkpt>
      <trkpt lat="44.46947" lon="4.63103">
        <ele>373</ele>
        <time>2017-12-07T10:20:57Z</time>
      </trkpt>
      <trkpt lat="44.46949" lon="4.63105">
        <ele>373</ele>
        <time>2017-12-07T10:20:59Z</time>
      </trkpt>
      <trkpt lat="44.4695" lon="4.63106">
        <ele>373</ele>
        <time>2017-12-07T10:21:00Z</time>
      </trkpt>
      <trkpt lat="44.46951" lon="4.63107">
        <ele>373</ele>
        <time>2017-12-07T10:21:01Z</time>
      </trkpt>
      <trkpt lat="44.46958" lon="4.63111">
        <ele>374</ele>
        <time>2017-12-07T10:21:10Z</time>
      </trkpt>
      <trkpt lat="44.46962" lon="4.63111">
        <ele>374</ele>
        <time>2017-12-07T10:21:15Z</time>
      </trkpt>
      <trkpt lat="44.46973" lon="4.63114">
        <ele>375</ele>
        <time>2017-12-07T10:21:27Z</time>
      </trkpt>
      <trkpt lat="44.46987" lon="4.63117">
        <ele>376</ele>
        <time>2017-12-07T10:21:39Z</time>
      </trkpt>
      <trkpt lat="44.47002" lon="4.63122">
        <ele>376</ele>
        <time>2017-12-07T10:21:52Z</time>
      </trkpt>
      <trkpt lat="44.47014" lon="4.63133">
        <ele>377</ele>
        <time>2017-12-07T10:22:04Z</time>
      </trkpt>
      <trkpt lat="44.47022" lon="4.63143">
        <ele>376</ele>
        <time>2017-12-07T10:22:16Z</time>
      </trkpt>
      <trkpt lat="44.47032" lon="4.6316">
        <ele>378</ele>
        <time>2017-12-07T10:22:29Z</time>
      </trkpt>
      <trkpt lat="44.4704" lon="4.63185">
        <ele>378</ele>
        <time>2017-12-07T10:22:48Z</time>
      </trkpt>
      <trkpt lat="44.47053" lon="4.63208">
        <ele>378</ele>
        <time>2017-12-07T10:23:08Z</time>
      </trkpt>
      <trkpt lat="44.47056" lon="4.63213">
        <ele>379</ele>
        <time>2017-12-07T10:23:12Z</time>
      </trkpt>
      <trkpt lat="44.47061" lon="4.63232">
        <ele>379</ele>
        <time>2017-12-07T10:23:29Z</time>
      </trkpt>
      <trkpt lat="44.4706" lon="4.63237">
        <ele>379</ele>
        <time>2017-12-07T10:23:33Z</time>
      </trkpt>
      <trkpt lat="44.4706" lon="4.63239">
        <ele>379</ele>
        <time>2017-12-07T10:23:34Z</time>
      </trkpt>
      <trkpt lat="44.47065" lon="4.63256">
        <ele>378</ele>
        <time>2017-12-07T10:23:43Z</time>
      </trkpt>
      <trkpt lat="44.47067" lon="4.63261">
        <ele>377</ele>
        <time>2017-12-07T10:23:50Z</time>
      </trkpt>
      <trkpt lat="44.4708" lon="4.63269">
        <ele>376</ele>
        <time>2017-12-07T10:24:04Z</time>
      </trkpt>
      <trkpt lat="44.47091" lon="4.63277">
        <ele>375</ele>
        <time>2017-12-07T10:24:15Z</time>
      </trkpt>
      <trkpt lat="44.47095" lon="4.63279">
        <ele>374</ele>
        <time>2017-12-07T10:24:23Z</time>
      </trkpt>
      <trkpt lat="44.47097" lon="4.63279">
        <ele>373</ele>
        <time>2017-12-07T10:24:25Z</time>
      </trkpt>
      <trkpt lat="44.47098" lon="4.6328">
        <ele>373</ele>
        <time>2017-12-07T10:24:26Z</time>
      </trkpt>
      <trkpt lat="44.471" lon="4.63281">
        <ele>373</ele>
        <time>2017-12-07T10:24:27Z</time>
      </trkpt>
      <trkpt lat="44.47101" lon="4.63282">
        <ele>373</ele>
        <time>2017-12-07T10:24:28Z</time>
      </trkpt>
      <trkpt lat="44.47103" lon="4.63283">
        <ele>373</ele>
        <time>2017-12-07T10:24:29Z</time>
      </trkpt>
      <trkpt lat="44.47104" lon="4.63284">
        <ele>373</ele>
        <time>2017-12-07T10:24:30Z</time>
      </trkpt>
      <trkpt lat="44.47116" lon="4.6329">
        <ele>372</ele>
        <time>2017-12-07T10:24:45Z</time>
      </trkpt>
      <trkpt lat="44.47123" lon="4.63295">
        <ele>371</ele>
        <time>2017-12-07T10:24:51Z</time>
      </trkpt>
      <trkpt lat="44.47124" lon="4.63297">
        <ele>371</ele>
        <time>2017-12-07T10:24:52Z</time>
      </trkpt>
      <trkpt lat="44.47138" lon="4.63305">
        <ele>370</ele>
        <time>2017-12-07T10:25:06Z</time>
      </trkpt>
      <trkpt lat="44.4715" lon="4.63312">
        <ele>368</ele>
        <time>2017-12-07T10:25:20Z</time>
      </trkpt>
      <trkpt lat="44.47153" lon="4.63313">
        <ele>368</ele>
        <time>2017-12-07T10:25:23Z</time>
      </trkpt>
      <trkpt lat="44.47154" lon="4.63313">
        <ele>368</ele>
        <time>2017-12-07T10:25:24Z</time>
      </trkpt>
      <trkpt lat="44.47156" lon="4.63313">
        <ele>368</ele>
        <time>2017-12-07T10:25:25Z</time>
      </trkpt>
      <trkpt lat="44.47157" lon="4.63313">
        <ele>368</ele>
        <time>2017-12-07T10:25:26Z</time>
      </trkpt>
      <trkpt lat="44.47159" lon="4.63314">
        <ele>368</ele>
        <time>2017-12-07T10:25:27Z</time>
      </trkpt>
      <trkpt lat="44.47166" lon="4.63315">
        <ele>368</ele>
        <time>2017-12-07T10:25:34Z</time>
      </trkpt>
      <trkpt lat="44.47176" lon="4.63319">
        <ele>366</ele>
        <time>2017-12-07T10:25:46Z</time>
      </trkpt>
      <trkpt lat="44.47179" lon="4.63319">
        <ele>365</ele>
        <time>2017-12-07T10:25:48Z</time>
      </trkpt>
      <trkpt lat="44.4718" lon="4.63319">
        <ele>365</ele>
        <time>2017-12-07T10:25:49Z</time>
      </trkpt>
      <trkpt lat="44.47181" lon="4.63319">
        <ele>365</ele>
        <time>2017-12-07T10:25:50Z</time>
      </trkpt>
      <trkpt lat="44.47183" lon="4.6332">
        <ele>365</ele>
        <time>2017-12-07T10:25:51Z</time>
      </trkpt>
      <trkpt lat="44.47198" lon="4.63323">
        <ele>364</ele>
        <time>2017-12-07T10:26:07Z</time>
      </trkpt>
      <trkpt lat="44.47206" lon="4.63326">
        <ele>364</ele>
        <time>2017-12-07T10:26:13Z</time>
      </trkpt>
      <trkpt lat="44.47207" lon="4.63327">
        <ele>364</ele>
        <time>2017-12-07T10:26:14Z</time>
      </trkpt>
      <trkpt lat="44.47208" lon="4.63327">
        <ele>364</ele>
        <time>2017-12-07T10:26:15Z</time>
      </trkpt>
      <trkpt lat="44.47223" lon="4.63334">
        <ele>363</ele>
        <time>2017-12-07T10:26:28Z</time>
      </trkpt>
      <trkpt lat="44.47238" lon="4.63339">
        <ele>361</ele>
        <time>2017-12-07T10:26:42Z</time>
      </trkpt>
      <trkpt lat="44.47246" lon="4.63343">
        <ele>361</ele>
        <time>2017-12-07T10:26:49Z</time>
      </trkpt>
      <trkpt lat="44.47246" lon="4.63343">
        <ele>361</ele>
        <time>2017-12-07T10:26:50Z</time>
      </trkpt>
      <trkpt lat="44.47256" lon="4.63348">
        <ele>359</ele>
        <time>2017-12-07T10:27:01Z</time>
      </trkpt>
      <trkpt lat="44.47267" lon="4.63353">
        <ele>358</ele>
        <time>2017-12-07T10:27:14Z</time>
      </trkpt>
      <trkpt lat="44.47268" lon="4.63353">
        <ele>358</ele>
        <time>2017-12-07T10:27:15Z</time>
      </trkpt>
      <trkpt lat="44.47269" lon="4.63354">
        <ele>358</ele>
        <time>2017-12-07T10:27:16Z</time>
      </trkpt>
      <trkpt lat="44.47271" lon="4.63354">
        <ele>358</ele>
        <time>2017-12-07T10:27:17Z</time>
      </trkpt>
      <trkpt lat="44.47272" lon="4.63355">
        <ele>358</ele>
        <time>2017-12-07T10:27:18Z</time>
      </trkpt>
      <trkpt lat="44.47274" lon="4.63356">
        <ele>358</ele>
        <time>2017-12-07T10:27:19Z</time>
      </trkpt>
      <trkpt lat="44.4729" lon="4.63366">
        <ele>357</ele>
        <time>2017-12-07T10:27:36Z</time>
      </trkpt>
      <trkpt lat="44.47301" lon="4.6337">
        <ele>355</ele>
        <time>2017-12-07T10:27:50Z</time>
      </trkpt>
      <trkpt lat="44.47302" lon="4.6337">
        <ele>355</ele>
        <time>2017-12-07T10:27:51Z</time>
      </trkpt>
      <trkpt lat="44.47311" lon="4.63373">
        <ele>354</ele>
        <time>2017-12-07T10:28:01Z</time>
      </trkpt>
      <trkpt lat="44.47317" lon="4.63376">
        <ele>353</ele>
        <time>2017-12-07T10:28:07Z</time>
      </trkpt>
      <trkpt lat="44.47318" lon="4.63377">
        <ele>353</ele>
        <time>2017-12-07T10:28:08Z</time>
      </trkpt>
      <trkpt lat="44.4732" lon="4.63378">
        <ele>353</ele>
        <time>2017-12-07T10:28:09Z</time>
      </trkpt>
      <trkpt lat="44.47321" lon="4.63379">
        <ele>353</ele>
        <time>2017-12-07T10:28:10Z</time>
      </trkpt>
      <trkpt lat="44.47323" lon="4.63379">
        <ele>353</ele>
        <time>2017-12-07T10:28:11Z</time>
      </trkpt>
      <trkpt lat="44.47325" lon="4.6338">
        <ele>353</ele>
        <time>2017-12-07T10:28:12Z</time>
      </trkpt>
      <trkpt lat="44.47327" lon="4.6338">
        <ele>353</ele>
        <time>2017-12-07T10:28:13Z</time>
      </trkpt>
      <trkpt lat="44.47329" lon="4.63381">
        <ele>353</ele>
        <time>2017-12-07T10:28:14Z</time>
      </trkpt>
      <trkpt lat="44.47331" lon="4.63382">
        <ele>352</ele>
        <time>2017-12-07T10:28:15Z</time>
      </trkpt>
      <trkpt lat="44.47332" lon="4.63383">
        <ele>352</ele>
        <time>2017-12-07T10:28:16Z</time>
      </trkpt>
      <trkpt lat="44.47333" lon="4.63385">
        <ele>352</ele>
        <time>2017-12-07T10:28:17Z</time>
      </trkpt>
      <trkpt lat="44.47335" lon="4.63386">
        <ele>352</ele>
        <time>2017-12-07T10:28:18Z</time>
      </trkpt>
      <trkpt lat="44.47345" lon="4.63389">
        <ele>351</ele>
        <time>2017-12-07T10:28:31Z</time>
      </trkpt>
      <trkpt lat="44.47358" lon="4.63395">
        <ele>351</ele>
        <time>2017-12-07T10:28:42Z</time>
      </trkpt>
      <trkpt lat="44.47373" lon="4.63403">
        <ele>349</ele>
        <time>2017-12-07T10:28:58Z</time>
      </trkpt>
      <trkpt lat="44.47383" lon="4.63408">
        <ele>348</ele>
        <time>2017-12-07T10:29:08Z</time>
      </trkpt>
      <trkpt lat="44.47384" lon="4.63408">
        <ele>348</ele>
        <time>2017-12-07T10:29:09Z</time>
      </trkpt>
      <trkpt lat="44.47386" lon="4.63409">
        <ele>348</ele>
        <time>2017-12-07T10:29:10Z</time>
      </trkpt>
      <trkpt lat="44.47387" lon="4.63409">
        <ele>348</ele>
        <time>2017-12-07T10:29:11Z</time>
      </trkpt>
      <trkpt lat="44.47389" lon="4.6341">
        <ele>348</ele>
        <time>2017-12-07T10:29:12Z</time>
      </trkpt>
      <trkpt lat="44.4739" lon="4.63411">
        <ele>348</ele>
        <time>2017-12-07T10:29:13Z</time>
      </trkpt>
      <trkpt lat="44.47391" lon="4.63412">
        <ele>348</ele>
        <time>2017-12-07T10:29:14Z</time>
      </trkpt>
      <trkpt lat="44.47392" lon="4.63413">
        <ele>348</ele>
        <time>2017-12-07T10:29:15Z</time>
      </trkpt>
      <trkpt lat="44.47393" lon="4.63414">
        <ele>348</ele>
        <time>2017-12-07T10:29:16Z</time>
      </trkpt>
      <trkpt lat="44.47404" lon="4.6342">
        <ele>346</ele>
        <time>2017-12-07T10:29:28Z</time>
      </trkpt>
      <trkpt lat="44.47416" lon="4.63427">
        <ele>345</ele>
        <time>2017-12-07T10:29:42Z</time>
      </trkpt>
      <trkpt lat="44.4743" lon="4.63437">
        <ele>343</ele>
        <time>2017-12-07T10:29:57Z</time>
      </trkpt>
      <trkpt lat="44.47444" lon="4.63447">
        <ele>342</ele>
        <time>2017-12-07T10:30:13Z</time>
      </trkpt>
      <trkpt lat="44.47458" lon="4.63455">
        <ele>340</ele>
        <time>2017-12-07T10:30:28Z</time>
      </trkpt>
      <trkpt lat="44.47469" lon="4.63473">
        <ele>339</ele>
        <time>2017-12-07T10:30:42Z</time>
      </trkpt>
      <trkpt lat="44.47478" lon="4.63484">
        <ele>338</ele>
        <time>2017-12-07T10:30:57Z</time>
      </trkpt>
      <trkpt lat="44.47485" lon="4.63498">
        <ele>337</ele>
        <time>2017-12-07T10:31:06Z</time>
      </trkpt>
      <trkpt lat="44.47486" lon="4.63501">
        <ele>337</ele>
        <time>2017-12-07T10:31:07Z</time>
      </trkpt>
      <trkpt lat="44.47486" lon="4.63503">
        <ele>337</ele>
        <time>2017-12-07T10:31:08Z</time>
      </trkpt>
      <trkpt lat="44.47487" lon="4.63506">
        <ele>337</ele>
        <time>2017-12-07T10:31:09Z</time>
      </trkpt>
      <trkpt lat="44.47488" lon="4.63508">
        <ele>337</ele>
        <time>2017-12-07T10:31:10Z</time>
      </trkpt>
      <trkpt lat="44.47491" lon="4.63521">
        <ele>336</ele>
        <time>2017-12-07T10:31:21Z</time>
      </trkpt>
      <trkpt lat="44.47494" lon="4.63531">
        <ele>335</ele>
        <time>2017-12-07T10:31:28Z</time>
      </trkpt>
      <trkpt lat="44.47495" lon="4.63532">
        <ele>335</ele>
        <time>2017-12-07T10:31:29Z</time>
      </trkpt>
      <trkpt lat="44.47501" lon="4.63546">
        <ele>333</ele>
        <time>2017-12-07T10:31:42Z</time>
      </trkpt>
      <trkpt lat="44.47502" lon="4.63549">
        <ele>333</ele>
        <time>2017-12-07T10:31:44Z</time>
      </trkpt>
      <trkpt lat="44.47511" lon="4.63562">
        <ele>331</ele>
        <time>2017-12-07T10:31:57Z</time>
      </trkpt>
      <trkpt lat="44.47512" lon="4.63564">
        <ele>331</ele>
        <time>2017-12-07T10:31:59Z</time>
      </trkpt>
      <trkpt lat="44.47513" lon="4.63565">
        <ele>331</ele>
        <time>2017-12-07T10:32:00Z</time>
      </trkpt>
      <trkpt lat="44.47514" lon="4.63566">
        <ele>331</ele>
        <time>2017-12-07T10:32:01Z</time>
      </trkpt>
      <trkpt lat="44.47515" lon="4.63567">
        <ele>331</ele>
        <time>2017-12-07T10:32:02Z</time>
      </trkpt>
      <trkpt lat="44.47516" lon="4.63569">
        <ele>330</ele>
        <time>2017-12-07T10:32:03Z</time>
      </trkpt>
      <trkpt lat="44.47517" lon="4.6357">
        <ele>330</ele>
        <time>2017-12-07T10:32:04Z</time>
      </trkpt>
      <trkpt lat="44.47518" lon="4.63571">
        <ele>330</ele>
        <time>2017-12-07T10:32:05Z</time>
      </trkpt>
      <trkpt lat="44.47518" lon="4.63573">
        <ele>330</ele>
        <time>2017-12-07T10:32:06Z</time>
      </trkpt>
      <trkpt lat="44.47523" lon="4.6358">
        <ele>330</ele>
        <time>2017-12-07T10:32:14Z</time>
      </trkpt>
      <trkpt lat="44.47525" lon="4.63583">
        <ele>330</ele>
        <time>2017-12-07T10:32:17Z</time>
      </trkpt>
      <trkpt lat="44.47537" lon="4.63601">
        <ele>328</ele>
        <time>2017-12-07T10:32:31Z</time>
      </trkpt>
      <trkpt lat="44.47547" lon="4.63612">
        <ele>328</ele>
        <time>2017-12-07T10:32:45Z</time>
      </trkpt>
      <trkpt lat="44.47549" lon="4.63614">
        <ele>327</ele>
        <time>2017-12-07T10:32:48Z</time>
      </trkpt>
      <trkpt lat="44.4755" lon="4.63618">
        <ele>327</ele>
        <time>2017-12-07T10:32:59Z</time>
      </trkpt>
      <trkpt lat="44.47555" lon="4.63623">
        <ele>327</ele>
        <time>2017-12-07T10:33:05Z</time>
      </trkpt>
      <trkpt lat="44.47556" lon="4.63624">
        <ele>326</ele>
        <time>2017-12-07T10:33:06Z</time>
      </trkpt>
      <trkpt lat="44.47557" lon="4.63625">
        <ele>326</ele>
        <time>2017-12-07T10:33:07Z</time>
      </trkpt>
      <trkpt lat="44.47558" lon="4.63626">
        <ele>326</ele>
        <time>2017-12-07T10:33:08Z</time>
      </trkpt>
      <trkpt lat="44.47559" lon="4.63627">
        <ele>326</ele>
        <time>2017-12-07T10:33:09Z</time>
      </trkpt>
      <trkpt lat="44.4756" lon="4.63629">
        <ele>326</ele>
        <time>2017-12-07T10:33:10Z</time>
      </trkpt>
      <trkpt lat="44.47573" lon="4.63642">
        <ele>325</ele>
        <time>2017-12-07T10:33:28Z</time>
      </trkpt>
      <trkpt lat="44.47573" lon="4.63643">
        <ele>325</ele>
        <time>2017-12-07T10:33:37Z</time>
      </trkpt>
      <trkpt lat="44.47581" lon="4.63653">
        <ele>323</ele>
        <time>2017-12-07T10:33:49Z</time>
      </trkpt>
      <trkpt lat="44.47588" lon="4.6366">
        <ele>322</ele>
        <time>2017-12-07T10:34:01Z</time>
      </trkpt>
      <trkpt lat="44.47604" lon="4.63666">
        <ele>320</ele>
        <time>2017-12-07T10:34:16Z</time>
      </trkpt>
      <trkpt lat="44.47614" lon="4.63673">
        <ele>319</ele>
        <time>2017-12-07T10:34:29Z</time>
      </trkpt>
      <trkpt lat="44.47622" lon="4.63677">
        <ele>319</ele>
        <time>2017-12-07T10:34:42Z</time>
      </trkpt>
      <trkpt lat="44.47633" lon="4.63681">
        <ele>319</ele>
        <time>2017-12-07T10:34:55Z</time>
      </trkpt>
      <trkpt lat="44.47634" lon="4.63682">
        <ele>319</ele>
        <time>2017-12-07T10:34:58Z</time>
      </trkpt>
      <trkpt lat="44.47636" lon="4.63682">
        <ele>318</ele>
        <time>2017-12-07T10:35:08Z</time>
      </trkpt>
      <trkpt lat="44.47634" lon="4.6368">
        <ele>318</ele>
        <time>2017-12-07T10:35:22Z</time>
      </trkpt>
      <trkpt lat="44.47637" lon="4.6368">
        <ele>318</ele>
        <time>2017-12-07T10:35:36Z</time>
      </trkpt>
      <trkpt lat="44.4764" lon="4.6368">
        <ele>318</ele>
        <time>2017-12-07T10:35:51Z</time>
      </trkpt>
      <trkpt lat="44.47642" lon="4.6368">
        <ele>318</ele>
        <time>2017-12-07T10:36:00Z</time>
      </trkpt>
      <trkpt lat="44.47649" lon="4.63681">
        <ele>318</ele>
        <time>2017-12-07T10:36:10Z</time>
      </trkpt>
      <trkpt lat="44.47658" lon="4.63684">
        <ele>316</ele>
        <time>2017-12-07T10:36:20Z</time>
      </trkpt>
      <trkpt lat="44.47662" lon="4.63691">
        <ele>315</ele>
        <time>2017-12-07T10:36:31Z</time>
      </trkpt>
      <trkpt lat="44.47666" lon="4.63693">
        <ele>315</ele>
        <time>2017-12-07T10:36:45Z</time>
      </trkpt>
      <trkpt lat="44.47666" lon="4.63693">
        <ele>315</ele>
        <time>2017-12-07T10:36:46Z</time>
      </trkpt>
      <trkpt lat="44.4767" lon="4.63696">
        <ele>315</ele>
        <time>2017-12-07T10:36:50Z</time>
      </trkpt>
      <trkpt lat="44.47679" lon="4.63701">
        <ele>315</ele>
        <time>2017-12-07T10:36:56Z</time>
      </trkpt>
      <trkpt lat="44.47682" lon="4.63702">
        <ele>314</ele>
        <time>2017-12-07T10:36:58Z</time>
      </trkpt>
      <trkpt lat="44.47686" lon="4.63705">
        <ele>314</ele>
        <time>2017-12-07T10:37:05Z</time>
      </trkpt>
      <trkpt lat="44.47689" lon="4.6371">
        <ele>314</ele>
        <time>2017-12-07T10:37:16Z</time>
      </trkpt>
      <trkpt lat="44.47695" lon="4.63714">
        <ele>314</ele>
        <time>2017-12-07T10:37:27Z</time>
      </trkpt>
      <trkpt lat="44.47701" lon="4.63719">
        <ele>316</ele>
        <time>2017-12-07T10:37:37Z</time>
      </trkpt>
      <trkpt lat="44.47705" lon="4.63719">
        <ele>316</ele>
        <time>2017-12-07T10:37:44Z</time>
      </trkpt>
      <trkpt lat="44.47704" lon="4.63716">
        <ele>316</ele>
        <time>2017-12-07T10:37:46Z</time>
      </trkpt>
      <trkpt lat="44.47696" lon="4.63699">
        <ele>318</ele>
        <time>2017-12-07T10:38:01Z</time>
      </trkpt>
      <trkpt lat="44.47693" lon="4.63693">
        <ele>319</ele>
        <time>2017-12-07T10:38:07Z</time>
      </trkpt>
      <trkpt lat="44.47698" lon="4.63696">
        <ele>320</ele>
        <time>2017-12-07T10:38:19Z</time>
      </trkpt>
      <trkpt lat="44.47703" lon="4.63705">
        <ele>321</ele>
        <time>2017-12-07T10:38:30Z</time>
      </trkpt>
      <trkpt lat="44.47711" lon="4.63715">
        <ele>322</ele>
        <time>2017-12-07T10:38:42Z</time>
      </trkpt>
      <trkpt lat="44.47723" lon="4.63725">
        <ele>324</ele>
        <time>2017-12-07T10:38:56Z</time>
      </trkpt>
      <trkpt lat="44.47733" lon="4.63724">
        <ele>326</ele>
        <time>2017-12-07T10:39:10Z</time>
      </trkpt>
      <trkpt lat="44.47744" lon="4.63723">
        <ele>327</ele>
        <time>2017-12-07T10:39:22Z</time>
      </trkpt>
      <trkpt lat="44.47758" lon="4.63722">
        <ele>328</ele>
        <time>2017-12-07T10:39:37Z</time>
      </trkpt>
      <trkpt lat="44.47761" lon="4.63721">
        <ele>328</ele>
        <time>2017-12-07T10:39:44Z</time>
      </trkpt>
      <trkpt lat="44.47769" lon="4.63717">
        <ele>330</ele>
        <time>2017-12-07T10:39:57Z</time>
      </trkpt>
      <trkpt lat="44.47771" lon="4.63717">
        <ele>330</ele>
        <time>2017-12-07T10:40:01Z</time>
      </trkpt>
      <trkpt lat="44.47776" lon="4.63715">
        <ele>330</ele>
        <time>2017-12-07T10:40:07Z</time>
      </trkpt>
      <trkpt lat="44.47787" lon="4.63716">
        <ele>333</ele>
        <time>2017-12-07T10:40:22Z</time>
      </trkpt>
      <trkpt lat="44.47799" lon="4.63718">
        <ele>335</ele>
        <time>2017-12-07T10:40:38Z</time>
      </trkpt>
      <trkpt lat="44.47808" lon="4.63714">
        <ele>336</ele>
        <time>2017-12-07T10:40:49Z</time>
      </trkpt>
      <trkpt lat="44.47809" lon="4.63714">
        <ele>336</ele>
        <time>2017-12-07T10:40:50Z</time>
      </trkpt>
      <trkpt lat="44.47817" lon="4.6371">
        <ele>336</ele>
        <time>2017-12-07T10:40:59Z</time>
      </trkpt>
      <trkpt lat="44.4783" lon="4.63705">
        <ele>337</ele>
        <time>2017-12-07T10:41:13Z</time>
      </trkpt>
      <trkpt lat="44.47839" lon="4.63701">
        <ele>338</ele>
        <time>2017-12-07T10:41:22Z</time>
      </trkpt>
      <trkpt lat="44.47846" lon="4.63701">
        <ele>339</ele>
        <time>2017-12-07T10:41:30Z</time>
      </trkpt>
      <trkpt lat="44.47852" lon="4.63701">
        <ele>340</ele>
        <time>2017-12-07T10:41:40Z</time>
      </trkpt>
      <trkpt lat="44.47859" lon="4.63704">
        <ele>342</ele>
        <time>2017-12-07T10:41:52Z</time>
      </trkpt>
      <trkpt lat="44.4787" lon="4.63712">
        <ele>344</ele>
        <time>2017-12-07T10:42:09Z</time>
      </trkpt>
      <trkpt lat="44.47877" lon="4.63723">
        <ele>346</ele>
        <time>2017-12-07T10:42:25Z</time>
      </trkpt>
      <trkpt lat="44.47881" lon="4.6374">
        <ele>347</ele>
        <time>2017-12-07T10:42:40Z</time>
      </trkpt>
      <trkpt lat="44.47883" lon="4.63744">
        <ele>348</ele>
        <time>2017-12-07T10:42:45Z</time>
      </trkpt>
      <trkpt lat="44.4789" lon="4.63755">
        <ele>349</ele>
        <time>2017-12-07T10:42:56Z</time>
      </trkpt>
      <trkpt lat="44.47892" lon="4.63756">
        <ele>349</ele>
        <time>2017-12-07T10:43:00Z</time>
      </trkpt>
      <trkpt lat="44.47895" lon="4.63756">
        <ele>349</ele>
        <time>2017-12-07T10:43:05Z</time>
      </trkpt>
      <trkpt lat="44.47902" lon="4.63754">
        <ele>349</ele>
        <time>2017-12-07T10:43:12Z</time>
      </trkpt>
      <trkpt lat="44.47914" lon="4.63748">
        <ele>349</ele>
        <time>2017-12-07T10:43:23Z</time>
      </trkpt>
      <trkpt lat="44.47925" lon="4.63739">
        <ele>349</ele>
        <time>2017-12-07T10:43:36Z</time>
      </trkpt>
      <trkpt lat="44.47934" lon="4.63734">
        <ele>349</ele>
        <time>2017-12-07T10:43:45Z</time>
      </trkpt>
      <trkpt lat="44.47944" lon="4.63729">
        <ele>349</ele>
        <time>2017-12-07T10:43:57Z</time>
      </trkpt>
      <trkpt lat="44.47954" lon="4.63728">
        <ele>348</ele>
        <time>2017-12-07T10:44:08Z</time>
      </trkpt>
      <trkpt lat="44.47962" lon="4.63728">
        <ele>348</ele>
        <time>2017-12-07T10:44:16Z</time>
      </trkpt>
      <trkpt lat="44.47979" lon="4.63732">
        <ele>348</ele>
        <time>2017-12-07T10:44:32Z</time>
      </trkpt>
      <trkpt lat="44.4798" lon="4.63731">
        <ele>348</ele>
        <time>2017-12-07T10:44:33Z</time>
      </trkpt>
      <trkpt lat="44.47993" lon="4.63717">
        <ele>348</ele>
        <time>2017-12-07T10:44:48Z</time>
      </trkpt>
      <trkpt lat="44.48002" lon="4.63704">
        <ele>347</ele>
        <time>2017-12-07T10:45:01Z</time>
      </trkpt>
      <trkpt lat="44.4801" lon="4.63694">
        <ele>346</ele>
        <time>2017-12-07T10:45:12Z</time>
      </trkpt>
      <trkpt lat="44.48016" lon="4.63689">
        <ele>346</ele>
        <time>2017-12-07T10:45:19Z</time>
      </trkpt>
      <trkpt lat="44.48027" lon="4.63684">
        <ele>345</ele>
        <time>2017-12-07T10:45:30Z</time>
      </trkpt>
      <trkpt lat="44.48038" lon="4.63683">
        <ele>344</ele>
        <time>2017-12-07T10:45:43Z</time>
      </trkpt>
      <trkpt lat="44.48052" lon="4.63684">
        <ele>343</ele>
        <time>2017-12-07T10:45:57Z</time>
      </trkpt>
      <trkpt lat="44.48071" lon="4.63683">
        <ele>342</ele>
        <time>2017-12-07T10:46:15Z</time>
      </trkpt>
      <trkpt lat="44.48084" lon="4.63682">
        <ele>341</ele>
        <time>2017-12-07T10:46:27Z</time>
      </trkpt>
      <trkpt lat="44.48094" lon="4.63683">
        <ele>340</ele>
        <time>2017-12-07T10:46:40Z</time>
      </trkpt>
      <trkpt lat="44.48102" lon="4.63688">
        <ele>339</ele>
        <time>2017-12-07T10:46:51Z</time>
      </trkpt>
      <trkpt lat="44.48108" lon="4.63691">
        <ele>339</ele>
        <time>2017-12-07T10:46:56Z</time>
      </trkpt>
      <trkpt lat="44.48117" lon="4.63699">
        <ele>338</ele>
        <time>2017-12-07T10:47:08Z</time>
      </trkpt>
      <trkpt lat="44.48126" lon="4.63708">
        <ele>336</ele>
        <time>2017-12-07T10:47:22Z</time>
      </trkpt>
      <trkpt lat="44.48136" lon="4.6372">
        <ele>335</ele>
        <time>2017-12-07T10:47:37Z</time>
      </trkpt>
      <trkpt lat="44.48145" lon="4.63731">
        <ele>333</ele>
        <time>2017-12-07T10:47:51Z</time>
      </trkpt>
      <trkpt lat="44.48155" lon="4.63741">
        <ele>331</ele>
        <time>2017-12-07T10:48:06Z</time>
      </trkpt>
      <trkpt lat="44.48163" lon="4.63748">
        <ele>331</ele>
        <time>2017-12-07T10:48:18Z</time>
      </trkpt>
      <trkpt lat="44.48173" lon="4.6376">
        <ele>329</ele>
        <time>2017-12-07T10:48:33Z</time>
      </trkpt>
      <trkpt lat="44.48186" lon="4.63773">
        <ele>328</ele>
        <time>2017-12-07T10:48:47Z</time>
      </trkpt>
      <trkpt lat="44.48196" lon="4.63782">
        <ele>327</ele>
        <time>2017-12-07T10:49:01Z</time>
      </trkpt>
      <trkpt lat="44.48211" lon="4.63793">
        <ele>326</ele>
        <time>2017-12-07T10:49:15Z</time>
      </trkpt>
      <trkpt lat="44.48223" lon="4.63802">
        <ele>326</ele>
        <time>2017-12-07T10:49:28Z</time>
      </trkpt>
      <trkpt lat="44.48226" lon="4.63804">
        <ele>326</ele>
        <time>2017-12-07T10:49:32Z</time>
      </trkpt>
      <trkpt lat="44.48239" lon="4.63811">
        <ele>326</ele>
        <time>2017-12-07T10:49:44Z</time>
      </trkpt>
      <trkpt lat="44.48251" lon="4.63817">
        <ele>326</ele>
        <time>2017-12-07T10:49:57Z</time>
      </trkpt>
      <trkpt lat="44.48266" lon="4.63824">
        <ele>326</ele>
        <time>2017-12-07T10:50:13Z</time>
      </trkpt>
      <trkpt lat="44.48268" lon="4.63825">
        <ele>326</ele>
        <time>2017-12-07T10:50:16Z</time>
      </trkpt>
      <trkpt lat="44.4828" lon="4.63828">
        <ele>326</ele>
        <time>2017-12-07T10:50:29Z</time>
      </trkpt>
      <trkpt lat="44.48288" lon="4.6383">
        <ele>326</ele>
        <time>2017-12-07T10:50:43Z</time>
      </trkpt>
      <trkpt lat="44.4829" lon="4.63833">
        <ele>327</ele>
        <time>2017-12-07T10:50:59Z</time>
      </trkpt>
      <trkpt lat="44.48294" lon="4.63833">
        <ele>327</ele>
        <time>2017-12-07T10:51:14Z</time>
      </trkpt>
      <trkpt lat="44.48296" lon="4.63834">
        <ele>327</ele>
        <time>2017-12-07T10:51:16Z</time>
      </trkpt>
      <trkpt lat="44.48307" lon="4.63841">
        <ele>327</ele>
        <time>2017-12-07T10:51:29Z</time>
      </trkpt>
      <trkpt lat="44.48315" lon="4.63843">
        <ele>327</ele>
        <time>2017-12-07T10:51:40Z</time>
      </trkpt>
      <trkpt lat="44.48322" lon="4.63846">
        <ele>328</ele>
        <time>2017-12-07T10:51:52Z</time>
      </trkpt>
      <trkpt lat="44.48333" lon="4.6385">
        <ele>329</ele>
        <time>2017-12-07T10:52:07Z</time>
      </trkpt>
      <trkpt lat="44.48343" lon="4.63857">
        <ele>330</ele>
        <time>2017-12-07T10:52:22Z</time>
      </trkpt>
      <trkpt lat="44.48353" lon="4.63862">
        <ele>332</ele>
        <time>2017-12-07T10:52:34Z</time>
      </trkpt>
      <trkpt lat="44.48362" lon="4.63871">
        <ele>333</ele>
        <time>2017-12-07T10:52:50Z</time>
      </trkpt>
      <trkpt lat="44.48376" lon="4.63878">
        <ele>334</ele>
        <time>2017-12-07T10:53:04Z</time>
      </trkpt>
      <trkpt lat="44.48389" lon="4.63886">
        <ele>334</ele>
        <time>2017-12-07T10:53:20Z</time>
      </trkpt>
      <trkpt lat="44.48393" lon="4.63891">
        <ele>335</ele>
        <time>2017-12-07T10:53:26Z</time>
      </trkpt>
      <trkpt lat="44.484" lon="4.63895">
        <ele>335</ele>
        <time>2017-12-07T10:53:36Z</time>
      </trkpt>
      <trkpt lat="44.48401" lon="4.63896">
        <ele>335</ele>
        <time>2017-12-07T10:53:37Z</time>
      </trkpt>
      <trkpt lat="44.4841" lon="4.63899">
        <ele>335</ele>
        <time>2017-12-07T10:53:44Z</time>
      </trkpt>
      <trkpt lat="44.48413" lon="4.63898">
        <ele>334</ele>
        <time>2017-12-07T10:53:56Z</time>
      </trkpt>
      <trkpt lat="44.48413" lon="4.63902">
        <ele>334</ele>
        <time>2017-12-07T10:54:11Z</time>
      </trkpt>
      <trkpt lat="44.48413" lon="4.63901">
        <ele>333</ele>
        <time>2017-12-07T10:54:29Z</time>
      </trkpt>
      <trkpt lat="44.48412" lon="4.63902">
        <ele>333</ele>
        <time>2017-12-07T10:54:57Z</time>
      </trkpt>
      <trkpt lat="44.48412" lon="4.639">
        <ele>333</ele>
        <time>2017-12-07T10:55:09Z</time>
      </trkpt>
      <trkpt lat="44.4841" lon="4.63902">
        <ele>334</ele>
        <time>2017-12-07T10:55:19Z</time>
      </trkpt>
      <trkpt lat="44.48409" lon="4.63901">
        <ele>334</ele>
        <time>2017-12-07T10:55:28Z</time>
      </trkpt>
      <trkpt lat="44.48411" lon="4.63903">
        <ele>334</ele>
        <time>2017-12-07T10:55:50Z</time>
      </trkpt>
      <trkpt lat="44.4841" lon="4.63904">
        <ele>334</ele>
        <time>2017-12-07T10:56:22Z</time>
      </trkpt>
      <trkpt lat="44.4841" lon="4.63904">
        <ele>334</ele>
        <time>2017-12-07T10:56:58Z</time>
      </trkpt>
      <trkpt lat="44.48408" lon="4.63903">
        <ele>334</ele>
        <time>2017-12-07T10:57:23Z</time>
      </trkpt>
      <trkpt lat="44.48408" lon="4.63904">
        <ele>334</ele>
        <time>2017-12-07T10:57:59Z</time>
      </trkpt>
      <trkpt lat="44.48409" lon="4.63904">
        <ele>334</ele>
        <time>2017-12-07T10:58:32Z</time>
      </trkpt>
      <trkpt lat="44.48408" lon="4.63904">
        <ele>334</ele>
        <time>2017-12-07T10:59:01Z</time>
      </trkpt>
      <trkpt lat="44.48408" lon="4.63904">
        <ele>334</ele>
        <time>2017-12-07T10:59:31Z</time>
      </trkpt>
      <trkpt lat="44.48408" lon="4.63904">
        <ele>334</ele>
        <time>2017-12-07T11:00:03Z</time>
      </trkpt>
      <trkpt lat="44.4841" lon="4.63904">
        <ele>333</ele>
        <time>2017-12-07T11:00:41Z</time>
      </trkpt>
      <trkpt lat="44.4841" lon="4.63903">
        <ele>333</ele>
        <time>2017-12-07T11:01:13Z</time>
      </trkpt>
      <trkpt lat="44.48409" lon="4.63905">
        <ele>333</ele>
        <time>2017-12-07T11:01:45Z</time>
      </trkpt>
      <trkpt lat="44.48409" lon="4.63905">
        <ele>333</ele>
        <time>2017-12-07T11:02:12Z</time>
      </trkpt>
      <trkpt lat="44.48409" lon="4.63904">
        <ele>333</ele>
        <time>2017-12-07T11:02:43Z</time>
      </trkpt>
      <trkpt lat="44.4841" lon="4.63904">
        <ele>333</ele>
        <time>2017-12-07T11:03:16Z</time>
      </trkpt>
      <trkpt lat="44.48409" lon="4.63903">
        <ele>332</ele>
        <time>2017-12-07T11:03:54Z</time>
      </trkpt>
      <trkpt lat="44.4841" lon="4.63904">
        <ele>332</ele>
        <time>2017-12-07T11:04:27Z</time>
      </trkpt>
      <trkpt lat="44.48409" lon="4.63904">
        <ele>332</ele>
        <time>2017-12-07T11:05:03Z</time>
      </trkpt>
      <trkpt lat="44.4841" lon="4.63903">
        <ele>332</ele>
        <time>2017-12-07T11:05:43Z</time>
      </trkpt>
      <trkpt lat="44.48411" lon="4.63903">
        <ele>332</ele>
        <time>2017-12-07T11:06:20Z</time>
      </trkpt>
      <trkpt lat="44.48411" lon="4.63903">
        <ele>332</ele>
        <time>2017-12-07T11:07:00Z</time>
      </trkpt>
      <trkpt lat="44.48411" lon="4.63904">
        <ele>332</ele>
        <time>2017-12-07T11:07:37Z</time>
      </trkpt>
      <trkpt lat="44.48411" lon="4.63903">
        <ele>331</ele>
        <time>2017-12-07T11:08:13Z</time>
      </trkpt>
      <trkpt lat="44.48411" lon="4.63905">
        <ele>331</ele>
        <time>2017-12-07T11:08:54Z</time>
      </trkpt>
      <trkpt lat="44.48411" lon="4.63905">
        <ele>332</ele>
        <time>2017-12-07T11:09:38Z</time>
      </trkpt>
      <trkpt lat="44.4841" lon="4.63904">
        <ele>332</ele>
        <time>2017-12-07T11:10:17Z</time>
      </trkpt>
      <trkpt lat="44.48411" lon="4.63903">
        <ele>332</ele>
        <time>2017-12-07T11:11:04Z</time>
      </trkpt>
      <trkpt lat="44.48412" lon="4.63902">
        <ele>332</ele>
        <time>2017-12-07T11:11:42Z</time>
      </trkpt>
      <trkpt lat="44.48413" lon="4.63903">
        <ele>332</ele>
        <time>2017-12-07T11:12:17Z</time>
      </trkpt>
      <trkpt lat="44.48411" lon="4.63905">
        <ele>332</ele>
        <time>2017-12-07T11:12:52Z</time>
      </trkpt>
      <trkpt lat="44.48409" lon="4.63905">
        <ele>332</ele>
        <time>2017-12-07T11:13:19Z</time>
      </trkpt>
      <trkpt lat="44.4841" lon="4.63903">
        <ele>331</ele>
        <time>2017-12-07T11:13:54Z</time>
      </trkpt>
      <trkpt lat="44.4841" lon="4.63903">
        <ele>331</ele>
        <time>2017-12-07T11:14:29Z</time>
      </trkpt>
      <trkpt lat="44.48409" lon="4.63905">
        <ele>332</ele>
        <time>2017-12-07T11:15:10Z</time>
      </trkpt>
      <trkpt lat="44.48409" lon="4.63903">
        <ele>332</ele>
        <time>2017-12-07T11:15:54Z</time>
      </trkpt>
      <trkpt lat="44.4841" lon="4.63903">
        <ele>332</ele>
        <time>2017-12-07T11:16:32Z</time>
      </trkpt>
      <trkpt lat="44.48411" lon="4.63904">
        <ele>332</ele>
        <time>2017-12-07T11:17:10Z</time>
      </trkpt>
      <trkpt lat="44.48412" lon="4.63903">
        <ele>332</ele>
        <time>2017-12-07T11:17:40Z</time>
      </trkpt>
      <trkpt lat="44.48412" lon="4.63903">
        <ele>332</ele>
        <time>2017-12-07T11:18:16Z</time>
      </trkpt>
      <trkpt lat="44.48411" lon="4.63905">
        <ele>332</ele>
        <time>2017-12-07T11:18:51Z</time>
      </trkpt>
      <trkpt lat="44.48409" lon="4.63905">
        <ele>332</ele>
        <time>2017-12-07T11:19:21Z</time>
      </trkpt>
      <trkpt lat="44.48409" lon="4.63904">
        <ele>332</ele>
        <time>2017-12-07T11:19:54Z</time>
      </trkpt>
      <trkpt lat="44.4841" lon="4.63904">
        <ele>332</ele>
        <time>2017-12-07T11:20:31Z</time>
      </trkpt>
      <trkpt lat="44.48409" lon="4.63904">
        <ele>332</ele>
        <time>2017-12-07T11:21:07Z</time>
      </trkpt>
      <trkpt lat="44.48409" lon="4.63905">
        <ele>332</ele>
        <time>2017-12-07T11:21:38Z</time>
      </trkpt>
      <trkpt lat="44.48411" lon="4.63905">
        <ele>332</ele>
        <time>2017-12-07T11:22:11Z</time>
      </trkpt>
      <trkpt lat="44.48412" lon="4.63906">
        <ele>332</ele>
        <time>2017-12-07T11:22:55Z</time>
      </trkpt>
      <trkpt lat="44.48411" lon="4.63905">
        <ele>332</ele>
        <time>2017-12-07T11:23:30Z</time>
      </trkpt>
      <trkpt lat="44.4841" lon="4.63904">
        <ele>332</ele>
        <time>2017-12-07T11:23:59Z</time>
      </trkpt>
      <trkpt lat="44.48411" lon="4.63905">
        <ele>333</ele>
        <time>2017-12-07T11:24:44Z</time>
      </trkpt>
      <trkpt lat="44.4841" lon="4.63904">
        <ele>333</ele>
        <time>2017-12-07T11:25:29Z</time>
      </trkpt>
      <trkpt lat="44.4841" lon="4.63905">
        <ele>333</ele>
        <time>2017-12-07T11:26:12Z</time>
      </trkpt>
      <trkpt lat="44.48409" lon="4.63905">
        <ele>333</ele>
        <time>2017-12-07T11:26:43Z</time>
      </trkpt>
      <trkpt lat="44.48408" lon="4.63905">
        <ele>333</ele>
        <time>2017-12-07T11:27:19Z</time>
      </trkpt>
      <trkpt lat="44.48408" lon="4.63903">
        <ele>333</ele>
        <time>2017-12-07T11:27:46Z</time>
      </trkpt>
      <trkpt lat="44.48409" lon="4.63905">
        <ele>333</ele>
        <time>2017-12-07T11:28:20Z</time>
      </trkpt>
      <trkpt lat="44.4841" lon="4.63905">
        <ele>333</ele>
        <time>2017-12-07T11:28:46Z</time>
      </trkpt>
      <trkpt lat="44.4841" lon="4.63906">
        <ele>333</ele>
        <time>2017-12-07T11:29:20Z</time>
      </trkpt>
      <trkpt lat="44.48408" lon="4.63907">
        <ele>333</ele>
        <time>2017-12-07T11:29:49Z</time>
      </trkpt>
      <trkpt lat="44.48407" lon="4.63906">
        <ele>333</ele>
        <time>2017-12-07T11:30:20Z</time>
      </trkpt>
      <trkpt lat="44.48408" lon="4.63906">
        <ele>333</ele>
        <time>2017-12-07T11:30:51Z</time>
      </trkpt>
      <trkpt lat="44.48408" lon="4.63905">
        <ele>333</ele>
        <time>2017-12-07T11:31:22Z</time>
      </trkpt>
      <trkpt lat="44.4841" lon="4.639">
        <ele>333</ele>
        <time>2017-12-07T11:31:47Z</time>
      </trkpt>
      <trkpt lat="44.48411" lon="4.63901">
        <ele>333</ele>
        <time>2017-12-07T11:32:13Z</time>
      </trkpt>
      <trkpt lat="44.4841" lon="4.63901">
        <ele>333</ele>
        <time>2017-12-07T11:32:53Z</time>
      </trkpt>
      <trkpt lat="44.4841" lon="4.63901">
        <ele>333</ele>
        <time>2017-12-07T11:33:25Z</time>
      </trkpt>
      <trkpt lat="44.48411" lon="4.63902">
        <ele>333</ele>
        <time>2017-12-07T11:33:58Z</time>
      </trkpt>
      <trkpt lat="44.48408" lon="4.63902">
        <ele>333</ele>
        <time>2017-12-07T11:34:28Z</time>
      </trkpt>
      <trkpt lat="44.48407" lon="4.63903">
        <ele>333</ele>
        <time>2017-12-07T11:35:02Z</time>
      </trkpt>
      <trkpt lat="44.48408" lon="4.63902">
        <ele>334</ele>
        <time>2017-12-07T11:35:30Z</time>
      </trkpt>
      <trkpt lat="44.48409" lon="4.63903">
        <ele>334</ele>
        <time>2017-12-07T11:35:51Z</time>
      </trkpt>
      <trkpt lat="44.48409" lon="4.63902">
        <ele>334</ele>
        <time>2017-12-07T11:36:14Z</time>
      </trkpt>
      <trkpt lat="44.4841" lon="4.63903">
        <ele>334</ele>
        <time>2017-12-07T11:36:32Z</time>
      </trkpt>
      <trkpt lat="44.4841" lon="4.63902">
        <ele>334</ele>
        <time>2017-12-07T11:36:55Z</time>
      </trkpt>
      <trkpt lat="44.48409" lon="4.63903">
        <ele>334</ele>
        <time>2017-12-07T11:37:07Z</time>
      </trkpt>
      <trkpt lat="44.4841" lon="4.63904">
        <ele>334</ele>
        <time>2017-12-07T11:37:20Z</time>
      </trkpt>
      <trkpt lat="44.4841" lon="4.63902">
        <ele>333</ele>
        <time>2017-12-07T11:37:25Z</time>
      </trkpt>
      <trkpt lat="44.4841" lon="4.63903">
        <ele>334</ele>
        <time>2017-12-07T11:37:28Z</time>
      </trkpt>
      <trkpt lat="44.48411" lon="4.63903">
        <ele>334</ele>
        <time>2017-12-07T11:37:39Z</time>
      </trkpt>
      <trkpt lat="44.4841" lon="4.63902">
        <ele>334</ele>
        <time>2017-12-07T11:37:54Z</time>
      </trkpt>
      <trkpt lat="44.4841" lon="4.639">
        <ele>334</ele>
        <time>2017-12-07T11:38:18Z</time>
      </trkpt>
      <trkpt lat="44.48407" lon="4.63901">
        <ele>334</ele>
        <time>2017-12-07T11:38:33Z</time>
      </trkpt>
      <trkpt lat="44.48405" lon="4.63902">
        <ele>333</ele>
        <time>2017-12-07T11:39:05Z</time>
      </trkpt>
      <trkpt lat="44.48407" lon="4.63901">
        <ele>333</ele>
        <time>2017-12-07T11:39:37Z</time>
      </trkpt>
      <trkpt lat="44.48407" lon="4.63902">
        <ele>334</ele>
        <time>2017-12-07T11:39:52Z</time>
      </trkpt>
      <trkpt lat="44.48407" lon="4.63902">
        <ele>334</ele>
        <time>2017-12-07T11:40:12Z</time>
      </trkpt>
      <trkpt lat="44.48407" lon="4.63902">
        <ele>334</ele>
        <time>2017-12-07T11:40:27Z</time>
      </trkpt>
      <trkpt lat="44.48407" lon="4.63904">
        <ele>334</ele>
        <time>2017-12-07T11:40:42Z</time>
      </trkpt>
      <trkpt lat="44.48407" lon="4.63904">
        <ele>334</ele>
        <time>2017-12-07T11:41:01Z</time>
      </trkpt>
      <trkpt lat="44.48408" lon="4.63902">
        <ele>334</ele>
        <time>2017-12-07T11:41:18Z</time>
      </trkpt>
      <trkpt lat="44.48408" lon="4.63904">
        <ele>334</ele>
        <time>2017-12-07T11:41:35Z</time>
      </trkpt>
      <trkpt lat="44.48407" lon="4.63904">
        <ele>334</ele>
        <time>2017-12-07T11:41:49Z</time>
      </trkpt>
      <trkpt lat="44.48409" lon="4.63906">
        <ele>334</ele>
        <time>2017-12-07T11:42:13Z</time>
      </trkpt>
      <trkpt lat="44.48407" lon="4.63904">
        <ele>334</ele>
        <time>2017-12-07T11:42:29Z</time>
      </trkpt>
      <trkpt lat="44.48408" lon="4.63905">
        <ele>334</ele>
        <time>2017-12-07T11:42:48Z</time>
      </trkpt>
      <trkpt lat="44.48409" lon="4.63904">
        <ele>334</ele>
        <time>2017-12-07T11:42:57Z</time>
      </trkpt>
      <trkpt lat="44.4841" lon="4.63902">
        <ele>334</ele>
        <time>2017-12-07T11:43:16Z</time>
      </trkpt>
      <trkpt lat="44.48408" lon="4.63902">
        <ele>334</ele>
        <time>2017-12-07T11:43:36Z</time>
      </trkpt>
      <trkpt lat="44.4841" lon="4.63901">
        <ele>334</ele>
        <time>2017-12-07T11:44:02Z</time>
      </trkpt>
      <trkpt lat="44.48409" lon="4.63903">
        <ele>334</ele>
        <time>2017-12-07T11:44:29Z</time>
      </trkpt>
      <trkpt lat="44.48408" lon="4.63902">
        <ele>334</ele>
        <time>2017-12-07T11:44:48Z</time>
      </trkpt>
      <trkpt lat="44.48408" lon="4.63901">
        <ele>334</ele>
        <time>2017-12-07T11:45:11Z</time>
      </trkpt>
      <trkpt lat="44.48408" lon="4.63901">
        <ele>334</ele>
        <time>2017-12-07T11:45:35Z</time>
      </trkpt>
      <trkpt lat="44.48408" lon="4.63901">
        <ele>334</ele>
        <time>2017-12-07T11:45:59Z</time>
      </trkpt>
      <trkpt lat="44.48408" lon="4.63902">
        <ele>334</ele>
        <time>2017-12-07T11:46:15Z</time>
      </trkpt>
      <trkpt lat="44.48408" lon="4.63903">
        <ele>334</ele>
        <time>2017-12-07T11:46:29Z</time>
      </trkpt>
      <trkpt lat="44.48411" lon="4.63912">
        <ele>333</ele>
        <time>2017-12-07T11:46:41Z</time>
      </trkpt>
      <trkpt lat="44.48417" lon="4.63922">
        <ele>331</ele>
        <time>2017-12-07T11:46:55Z</time>
      </trkpt>
      <trkpt lat="44.48423" lon="4.63932">
        <ele>330</ele>
        <time>2017-12-07T11:47:10Z</time>
      </trkpt>
      <trkpt lat="44.48429" lon="4.63941">
        <ele>329</ele>
        <time>2017-12-07T11:47:22Z</time>
      </trkpt>
      <trkpt lat="44.48434" lon="4.63951">
        <ele>326</ele>
        <time>2017-12-07T11:47:36Z</time>
      </trkpt>
      <trkpt lat="44.48438" lon="4.63963">
        <ele>325</ele>
        <time>2017-12-07T11:47:51Z</time>
      </trkpt>
      <trkpt lat="44.48442" lon="4.63972">
        <ele>323</ele>
        <time>2017-12-07T11:48:05Z</time>
      </trkpt>
      <trkpt lat="44.48449" lon="4.63985">
        <ele>321</ele>
        <time>2017-12-07T11:48:21Z</time>
      </trkpt>
      <trkpt lat="44.48455" lon="4.63996">
        <ele>319</ele>
        <time>2017-12-07T11:48:35Z</time>
      </trkpt>
      <trkpt lat="44.48464" lon="4.64003">
        <ele>318</ele>
        <time>2017-12-07T11:48:50Z</time>
      </trkpt>
      <trkpt lat="44.4847" lon="4.64009">
        <ele>316</ele>
        <time>2017-12-07T11:48:58Z</time>
      </trkpt>
      <trkpt lat="44.48472" lon="4.64013">
        <ele>316</ele>
        <time>2017-12-07T11:49:03Z</time>
      </trkpt>
      <trkpt lat="44.48479" lon="4.6402">
        <ele>314</ele>
        <time>2017-12-07T11:49:14Z</time>
      </trkpt>
      <trkpt lat="44.4849" lon="4.64032">
        <ele>313</ele>
        <time>2017-12-07T11:49:29Z</time>
      </trkpt>
      <trkpt lat="44.48491" lon="4.64034">
        <ele>313</ele>
        <time>2017-12-07T11:49:30Z</time>
      </trkpt>
      <trkpt lat="44.48498" lon="4.64048">
        <ele>311</ele>
        <time>2017-12-07T11:49:44Z</time>
      </trkpt>
      <trkpt lat="44.48501" lon="4.64055">
        <ele>310</ele>
        <time>2017-12-07T11:49:51Z</time>
      </trkpt>
      <trkpt lat="44.48507" lon="4.64069">
        <ele>309</ele>
        <time>2017-12-07T11:50:04Z</time>
      </trkpt>
      <trkpt lat="44.4851" lon="4.6408">
        <ele>307</ele>
        <time>2017-12-07T11:50:17Z</time>
      </trkpt>
      <trkpt lat="44.48512" lon="4.64094">
        <ele>304</ele>
        <time>2017-12-07T11:50:31Z</time>
      </trkpt>
      <trkpt lat="44.48513" lon="4.64096">
        <ele>304</ele>
        <time>2017-12-07T11:50:34Z</time>
      </trkpt>
      <trkpt lat="44.48515" lon="4.64106">
        <ele>303</ele>
        <time>2017-12-07T11:50:44Z</time>
      </trkpt>
      <trkpt lat="44.48511" lon="4.64111">
        <ele>302</ele>
        <time>2017-12-07T11:50:57Z</time>
      </trkpt>
      <trkpt lat="44.48504" lon="4.64111">
        <ele>300</ele>
        <time>2017-12-07T11:51:11Z</time>
      </trkpt>
      <trkpt lat="44.48501" lon="4.64114">
        <ele>299</ele>
        <time>2017-12-07T11:51:23Z</time>
      </trkpt>
      <trkpt lat="44.48499" lon="4.6412">
        <ele>297</ele>
        <time>2017-12-07T11:51:34Z</time>
      </trkpt>
      <trkpt lat="44.48497" lon="4.64128">
        <ele>296</ele>
        <time>2017-12-07T11:51:45Z</time>
      </trkpt>
      <trkpt lat="44.48494" lon="4.64134">
        <ele>294</ele>
        <time>2017-12-07T11:51:58Z</time>
      </trkpt>
      <trkpt lat="44.48494" lon="4.64135">
        <ele>293</ele>
        <time>2017-12-07T11:52:16Z</time>
      </trkpt>
      <trkpt lat="44.48492" lon="4.64146">
        <ele>292</ele>
        <time>2017-12-07T11:52:27Z</time>
      </trkpt>
      <trkpt lat="44.48493" lon="4.64152">
        <ele>291</ele>
        <time>2017-12-07T11:52:33Z</time>
      </trkpt>
      <trkpt lat="44.48498" lon="4.64165">
        <ele>289</ele>
        <time>2017-12-07T11:52:47Z</time>
      </trkpt>
      <trkpt lat="44.48501" lon="4.64176">
        <ele>287</ele>
        <time>2017-12-07T11:53:01Z</time>
      </trkpt>
      <trkpt lat="44.48504" lon="4.64185">
        <ele>285</ele>
        <time>2017-12-07T11:53:13Z</time>
      </trkpt>
      <trkpt lat="44.48505" lon="4.64191">
        <ele>284</ele>
        <time>2017-12-07T11:53:27Z</time>
      </trkpt>
      <trkpt lat="44.48506" lon="4.64193">
        <ele>284</ele>
        <time>2017-12-07T11:53:31Z</time>
      </trkpt>
      <trkpt lat="44.4851" lon="4.64201">
        <ele>282</ele>
        <time>2017-12-07T11:53:43Z</time>
      </trkpt>
      <trkpt lat="44.4851" lon="4.64201">
        <ele>282</ele>
        <time>2017-12-07T11:53:44Z</time>
      </trkpt>
      <trkpt lat="44.48512" lon="4.64216">
        <ele>281</ele>
        <time>2017-12-07T11:53:59Z</time>
      </trkpt>
      <trkpt lat="44.48516" lon="4.6423">
        <ele>279</ele>
        <time>2017-12-07T11:54:13Z</time>
      </trkpt>
      <trkpt lat="44.48518" lon="4.64245">
        <ele>277</ele>
        <time>2017-12-07T11:54:27Z</time>
      </trkpt>
      <trkpt lat="44.48519" lon="4.64248">
        <ele>277</ele>
        <time>2017-12-07T11:54:30Z</time>
      </trkpt>
      <trkpt lat="44.48524" lon="4.64262">
        <ele>274</ele>
        <time>2017-12-07T11:54:46Z</time>
      </trkpt>
      <trkpt lat="44.48529" lon="4.64269">
        <ele>271</ele>
        <time>2017-12-07T11:54:58Z</time>
      </trkpt>
      <trkpt lat="44.48535" lon="4.64279">
        <ele>269</ele>
        <time>2017-12-07T11:55:12Z</time>
      </trkpt>
      <trkpt lat="44.48541" lon="4.64285">
        <ele>267</ele>
        <time>2017-12-07T11:55:26Z</time>
      </trkpt>
      <trkpt lat="44.48549" lon="4.64293">
        <ele>265</ele>
        <time>2017-12-07T11:55:42Z</time>
      </trkpt>
      <trkpt lat="44.48551" lon="4.64297">
        <ele>264</ele>
        <time>2017-12-07T11:55:47Z</time>
      </trkpt>
      <trkpt lat="44.48559" lon="4.64305">
        <ele>262</ele>
        <time>2017-12-07T11:56:02Z</time>
      </trkpt>
      <trkpt lat="44.48562" lon="4.64318">
        <ele>261</ele>
        <time>2017-12-07T11:56:16Z</time>
      </trkpt>
      <trkpt lat="44.48568" lon="4.64332">
        <ele>258</ele>
        <time>2017-12-07T11:56:34Z</time>
      </trkpt>
      <trkpt lat="44.48576" lon="4.64339">
        <ele>256</ele>
        <time>2017-12-07T11:56:49Z</time>
      </trkpt>
      <trkpt lat="44.48585" lon="4.64354">
        <ele>253</ele>
        <time>2017-12-07T11:57:07Z</time>
      </trkpt>
      <trkpt lat="44.48591" lon="4.64364">
        <ele>252</ele>
        <time>2017-12-07T11:57:22Z</time>
      </trkpt>
      <trkpt lat="44.48597" lon="4.64375">
        <ele>250</ele>
        <time>2017-12-07T11:57:39Z</time>
      </trkpt>
      <trkpt lat="44.486" lon="4.64377">
        <ele>249</ele>
        <time>2017-12-07T11:57:54Z</time>
      </trkpt>
      <trkpt lat="44.48595" lon="4.64379">
        <ele>249</ele>
        <time>2017-12-07T11:58:10Z</time>
      </trkpt>
      <trkpt lat="44.48593" lon="4.64379">
        <ele>249</ele>
        <time>2017-12-07T11:58:11Z</time>
      </trkpt>
      <trkpt lat="44.4859" lon="4.6438">
        <ele>248</ele>
        <time>2017-12-07T11:58:15Z</time>
      </trkpt>
      <trkpt lat="44.4858" lon="4.64381">
        <ele>247</ele>
        <time>2017-12-07T11:58:27Z</time>
      </trkpt>
      <trkpt lat="44.48585" lon="4.64388">
        <ele>246</ele>
        <time>2017-12-07T11:58:37Z</time>
      </trkpt>
      <trkpt lat="44.48588" lon="4.64392">
        <ele>245</ele>
        <time>2017-12-07T11:58:49Z</time>
      </trkpt>
      <trkpt lat="44.48593" lon="4.64397">
        <ele>244</ele>
        <time>2017-12-07T11:58:54Z</time>
      </trkpt>
      <trkpt lat="44.48602" lon="4.64403">
        <ele>243</ele>
        <time>2017-12-07T11:59:06Z</time>
      </trkpt>
      <trkpt lat="44.48608" lon="4.64409">
        <ele>241</ele>
        <time>2017-12-07T11:59:19Z</time>
      </trkpt>
      <trkpt lat="44.48615" lon="4.64415">
        <ele>240</ele>
        <time>2017-12-07T11:59:31Z</time>
      </trkpt>
      <trkpt lat="44.4862" lon="4.64422">
        <ele>240</ele>
        <time>2017-12-07T11:59:43Z</time>
      </trkpt>
      <trkpt lat="44.48623" lon="4.64429">
        <ele>239</ele>
        <time>2017-12-07T11:59:56Z</time>
      </trkpt>
      <trkpt lat="44.48628" lon="4.64433">
        <ele>238</ele>
        <time>2017-12-07T12:00:05Z</time>
      </trkpt>
      <trkpt lat="44.48634" lon="4.64437">
        <ele>237</ele>
        <time>2017-12-07T12:00:16Z</time>
      </trkpt>
      <trkpt lat="44.48641" lon="4.64442">
        <ele>236</ele>
        <time>2017-12-07T12:00:25Z</time>
      </trkpt>
      <trkpt lat="44.48657" lon="4.64448">
        <ele>235</ele>
        <time>2017-12-07T12:00:40Z</time>
      </trkpt>
      <trkpt lat="44.48662" lon="4.6445">
        <ele>235</ele>
        <time>2017-12-07T12:00:47Z</time>
      </trkpt>
      <trkpt lat="44.48673" lon="4.64456">
        <ele>234</ele>
        <time>2017-12-07T12:01:01Z</time>
      </trkpt>
      <trkpt lat="44.48681" lon="4.64454">
        <ele>233</ele>
        <time>2017-12-07T12:01:13Z</time>
      </trkpt>
      <trkpt lat="44.48691" lon="4.64443">
        <ele>232</ele>
        <time>2017-12-07T12:01:29Z</time>
      </trkpt>
      <trkpt lat="44.48696" lon="4.64438">
        <ele>231</ele>
        <time>2017-12-07T12:01:42Z</time>
      </trkpt>
      <trkpt lat="44.48706" lon="4.64438">
        <ele>230</ele>
        <time>2017-12-07T12:01:56Z</time>
      </trkpt>
      <trkpt lat="44.48718" lon="4.64443">
        <ele>228</ele>
        <time>2017-12-07T12:02:08Z</time>
      </trkpt>
      <trkpt lat="44.48724" lon="4.64447">
        <ele>227</ele>
        <time>2017-12-07T12:02:19Z</time>
      </trkpt>
      <trkpt lat="44.48731" lon="4.64456">
        <ele>227</ele>
        <time>2017-12-07T12:02:30Z</time>
      </trkpt>
      <trkpt lat="44.48732" lon="4.64457">
        <ele>227</ele>
        <time>2017-12-07T12:02:32Z</time>
      </trkpt>
      <trkpt lat="44.48739" lon="4.64463">
        <ele>226</ele>
        <time>2017-12-07T12:02:44Z</time>
      </trkpt>
      <trkpt lat="44.48744" lon="4.64467">
        <ele>225</ele>
        <time>2017-12-07T12:02:55Z</time>
      </trkpt>
      <trkpt lat="44.48749" lon="4.64478">
        <ele>223</ele>
        <time>2017-12-07T12:03:07Z</time>
      </trkpt>
      <trkpt lat="44.48755" lon="4.64488">
        <ele>222</ele>
        <time>2017-12-07T12:03:21Z</time>
      </trkpt>
      <trkpt lat="44.48754" lon="4.64493">
        <ele>221</ele>
        <time>2017-12-07T12:03:32Z</time>
      </trkpt>
      <trkpt lat="44.4875" lon="4.64491">
        <ele>220</ele>
        <time>2017-12-07T12:03:44Z</time>
      </trkpt>
      <trkpt lat="44.48745" lon="4.64487">
        <ele>219</ele>
        <time>2017-12-07T12:03:55Z</time>
      </trkpt>
      <trkpt lat="44.48741" lon="4.64482">
        <ele>219</ele>
        <time>2017-12-07T12:04:06Z</time>
      </trkpt>
      <trkpt lat="44.48733" lon="4.6448">
        <ele>217</ele>
        <time>2017-12-07T12:04:22Z</time>
      </trkpt>
      <trkpt lat="44.48718" lon="4.6449">
        <ele>215</ele>
        <time>2017-12-07T12:04:39Z</time>
      </trkpt>
      <trkpt lat="44.4871" lon="4.64497">
        <ele>214</ele>
        <time>2017-12-07T12:04:51Z</time>
      </trkpt>
      <trkpt lat="44.48705" lon="4.64508">
        <ele>212</ele>
        <time>2017-12-07T12:05:05Z</time>
      </trkpt>
      <trkpt lat="44.48702" lon="4.64514">
        <ele>211</ele>
        <time>2017-12-07T12:05:13Z</time>
      </trkpt>
      <trkpt lat="44.48695" lon="4.64526">
        <ele>209</ele>
        <time>2017-12-07T12:05:26Z</time>
      </trkpt>
      <trkpt lat="44.48692" lon="4.64532">
        <ele>207</ele>
        <time>2017-12-07T12:05:39Z</time>
      </trkpt>
      <trkpt lat="44.48688" lon="4.64543">
        <ele>204</ele>
        <time>2017-12-07T12:05:53Z</time>
      </trkpt>
      <trkpt lat="44.48687" lon="4.6455">
        <ele>203</ele>
        <time>2017-12-07T12:06:06Z</time>
      </trkpt>
      <trkpt lat="44.48686" lon="4.64556">
        <ele>203</ele>
        <time>2017-12-07T12:06:22Z</time>
      </trkpt>
      <trkpt lat="44.48689" lon="4.64564">
        <ele>202</ele>
        <time>2017-12-07T12:06:35Z</time>
      </trkpt>
      <trkpt lat="44.48697" lon="4.64572">
        <ele>201</ele>
        <time>2017-12-07T12:06:47Z</time>
      </trkpt>
      <trkpt lat="44.48702" lon="4.64579">
        <ele>199</ele>
        <time>2017-12-07T12:06:56Z</time>
      </trkpt>
      <trkpt lat="44.48706" lon="4.64582">
        <ele>198</ele>
        <time>2017-12-07T12:06:59Z</time>
      </trkpt>
      <trkpt lat="44.48711" lon="4.64587">
        <ele>198</ele>
        <time>2017-12-07T12:07:07Z</time>
      </trkpt>
      <trkpt lat="44.48718" lon="4.64596">
        <ele>196</ele>
        <time>2017-12-07T12:07:18Z</time>
      </trkpt>
      <trkpt lat="44.4872" lon="4.646">
        <ele>195</ele>
        <time>2017-12-07T12:07:24Z</time>
      </trkpt>
      <trkpt lat="44.48729" lon="4.64608">
        <ele>193</ele>
        <time>2017-12-07T12:07:37Z</time>
      </trkpt>
      <trkpt lat="44.48732" lon="4.64614">
        <ele>192</ele>
        <time>2017-12-07T12:07:48Z</time>
      </trkpt>
      <trkpt lat="44.48736" lon="4.64619">
        <ele>191</ele>
        <time>2017-12-07T12:08:05Z</time>
      </trkpt>
      <trkpt lat="44.48744" lon="4.64629">
        <ele>189</ele>
        <time>2017-12-07T12:08:19Z</time>
      </trkpt>
      <trkpt lat="44.48744" lon="4.64631">
        <ele>188</ele>
        <time>2017-12-07T12:08:21Z</time>
      </trkpt>
      <trkpt lat="44.48747" lon="4.64642">
        <ele>188</ele>
        <time>2017-12-07T12:08:31Z</time>
      </trkpt>
      <trkpt lat="44.48749" lon="4.64647">
        <ele>187</ele>
        <time>2017-12-07T12:08:37Z</time>
      </trkpt>
      <trkpt lat="44.48754" lon="4.64656">
        <ele>185</ele>
        <time>2017-12-07T12:08:48Z</time>
      </trkpt>
      <trkpt lat="44.48757" lon="4.64661">
        <ele>184</ele>
        <time>2017-12-07T12:08:54Z</time>
      </trkpt>
      <trkpt lat="44.48759" lon="4.64663">
        <ele>184</ele>
        <time>2017-12-07T12:08:58Z</time>
      </trkpt>
      <trkpt lat="44.4876" lon="4.64666">
        <ele>183</ele>
        <time>2017-12-07T12:09:01Z</time>
      </trkpt>
      <trkpt lat="44.48767" lon="4.64679">
        <ele>182</ele>
        <time>2017-12-07T12:09:14Z</time>
      </trkpt>
      <trkpt lat="44.48771" lon="4.64687">
        <ele>180</ele>
        <time>2017-12-07T12:09:25Z</time>
      </trkpt>
      <trkpt lat="44.48772" lon="4.64689">
        <ele>180</ele>
        <time>2017-12-07T12:09:28Z</time>
      </trkpt>
      <trkpt lat="44.48778" lon="4.64699">
        <ele>178</ele>
        <time>2017-12-07T12:09:40Z</time>
      </trkpt>
      <trkpt lat="44.48779" lon="4.64705">
        <ele>178</ele>
        <time>2017-12-07T12:09:49Z</time>
      </trkpt>
      <trkpt lat="44.48779" lon="4.64714">
        <ele>177</ele>
        <time>2017-12-07T12:10:01Z</time>
      </trkpt>
      <trkpt lat="44.48779" lon="4.64724">
        <ele>175</ele>
        <time>2017-12-07T12:10:12Z</time>
      </trkpt>
      <trkpt lat="44.48777" lon="4.6473">
        <ele>175</ele>
        <time>2017-12-07T12:10:19Z</time>
      </trkpt>
      <trkpt lat="44.48774" lon="4.64736">
        <ele>174</ele>
        <time>2017-12-07T12:10:26Z</time>
      </trkpt>
      <trkpt lat="44.48765" lon="4.6474">
        <ele>173</ele>
        <time>2017-12-07T12:10:38Z</time>
      </trkpt>
      <trkpt lat="44.48756" lon="4.64738">
        <ele>172</ele>
        <time>2017-12-07T12:10:48Z</time>
      </trkpt>
      <trkpt lat="44.48751" lon="4.64735">
        <ele>171</ele>
        <time>2017-12-07T12:11:01Z</time>
      </trkpt>
      <trkpt lat="44.48739" lon="4.64729">
        <ele>168</ele>
        <time>2017-12-07T12:11:14Z</time>
      </trkpt>
      <trkpt lat="44.48736" lon="4.64727">
        <ele>168</ele>
        <time>2017-12-07T12:11:21Z</time>
      </trkpt>
      <trkpt lat="44.48725" lon="4.64723">
        <ele>167</ele>
        <time>2017-12-07T12:11:31Z</time>
      </trkpt>
      <trkpt lat="44.48725" lon="4.64727">
        <ele>167</ele>
        <time>2017-12-07T12:11:41Z</time>
      </trkpt>
      <trkpt lat="44.48727" lon="4.64726">
        <ele>167</ele>
        <time>2017-12-07T12:11:57Z</time>
      </trkpt>
      <trkpt lat="44.48727" lon="4.64726">
        <ele>167</ele>
        <time>2017-12-07T12:12:18Z</time>
      </trkpt>
      <trkpt lat="44.48727" lon="4.64727">
        <ele>167</ele>
        <time>2017-12-07T12:12:42Z</time>
      </trkpt>
      <trkpt lat="44.4873" lon="4.64732">
        <ele>167</ele>
        <time>2017-12-07T12:13:09Z</time>
      </trkpt>
      <trkpt lat="44.48739" lon="4.6474">
        <ele>166</ele>
        <time>2017-12-07T12:13:21Z</time>
      </trkpt>
      <trkpt lat="44.48747" lon="4.6475">
        <ele>166</ele>
        <time>2017-12-07T12:13:34Z</time>
      </trkpt>
      <trkpt lat="44.48756" lon="4.64758">
        <ele>166</ele>
        <time>2017-12-07T12:13:46Z</time>
      </trkpt>
      <trkpt lat="44.48758" lon="4.64759">
        <ele>166</ele>
        <time>2017-12-07T12:13:48Z</time>
      </trkpt>
      <trkpt lat="44.48766" lon="4.64765">
        <ele>165</ele>
        <time>2017-12-07T12:14:02Z</time>
      </trkpt>
      <trkpt lat="44.48776" lon="4.64775">
        <ele>165</ele>
        <time>2017-12-07T12:14:14Z</time>
      </trkpt>
      <trkpt lat="44.4878" lon="4.64778">
        <ele>165</ele>
        <time>2017-12-07T12:14:18Z</time>
      </trkpt>
      <trkpt lat="44.48782" lon="4.64781">
        <ele>165</ele>
        <time>2017-12-07T12:14:21Z</time>
      </trkpt>
      <trkpt lat="44.48791" lon="4.64792">
        <ele>165</ele>
        <time>2017-12-07T12:14:34Z</time>
      </trkpt>
      <trkpt lat="44.48797" lon="4.64801">
        <ele>166</ele>
        <time>2017-12-07T12:14:46Z</time>
      </trkpt>
      <trkpt lat="44.48803" lon="4.6481">
        <ele>167</ele>
        <time>2017-12-07T12:14:59Z</time>
      </trkpt>
      <trkpt lat="44.4881" lon="4.64821">
        <ele>167</ele>
        <time>2017-12-07T12:15:08Z</time>
      </trkpt>
      <trkpt lat="44.48819" lon="4.64833">
        <ele>167</ele>
        <time>2017-12-07T12:15:21Z</time>
      </trkpt>
      <trkpt lat="44.48825" lon="4.64845">
        <ele>167</ele>
        <time>2017-12-07T12:15:33Z</time>
      </trkpt>
      <trkpt lat="44.4883" lon="4.64858">
        <ele>167</ele>
        <time>2017-12-07T12:15:45Z</time>
      </trkpt>
      <trkpt lat="44.48837" lon="4.64876">
        <ele>167</ele>
        <time>2017-12-07T12:15:58Z</time>
      </trkpt>
      <trkpt lat="44.48843" lon="4.64892">
        <ele>167</ele>
        <time>2017-12-07T12:16:11Z</time>
      </trkpt>
      <trkpt lat="44.4885" lon="4.64906">
        <ele>167</ele>
        <time>2017-12-07T12:16:22Z</time>
      </trkpt>
      <trkpt lat="44.48854" lon="4.6491">
        <ele>167</ele>
        <time>2017-12-07T12:16:25Z</time>
      </trkpt>
      <trkpt lat="44.48855" lon="4.64914">
        <ele>167</ele>
        <time>2017-12-07T12:16:30Z</time>
      </trkpt>
      <trkpt lat="44.4886" lon="4.64921">
        <ele>167</ele>
        <time>2017-12-07T12:16:35Z</time>
      </trkpt>
      <trkpt lat="44.48862" lon="4.64929">
        <ele>167</ele>
        <time>2017-12-07T12:16:44Z</time>
      </trkpt>
      <trkpt lat="44.48869" lon="4.64947">
        <ele>167</ele>
        <time>2017-12-07T12:16:57Z</time>
      </trkpt>
      <trkpt lat="44.48873" lon="4.64963">
        <ele>167</ele>
        <time>2017-12-07T12:17:09Z</time>
      </trkpt>
      <trkpt lat="44.48878" lon="4.64978">
        <ele>167</ele>
        <time>2017-12-07T12:17:21Z</time>
      </trkpt>
      <trkpt lat="44.48885" lon="4.64993">
        <ele>167</ele>
        <time>2017-12-07T12:17:34Z</time>
      </trkpt>
      <trkpt lat="44.48895" lon="4.65014">
        <ele>167</ele>
        <time>2017-12-07T12:17:49Z</time>
      </trkpt>
      <trkpt lat="44.48905" lon="4.65028">
        <ele>166</ele>
        <time>2017-12-07T12:18:03Z</time>
      </trkpt>
      <trkpt lat="44.48913" lon="4.65043">
        <ele>165</ele>
        <time>2017-12-07T12:18:16Z</time>
      </trkpt>
      <trkpt lat="44.48923" lon="4.65055">
        <ele>165</ele>
        <time>2017-12-07T12:18:28Z</time>
      </trkpt>
      <trkpt lat="44.48932" lon="4.65068">
        <ele>164</ele>
        <time>2017-12-07T12:18:42Z</time>
      </trkpt>
      <trkpt lat="44.48935" lon="4.65071">
        <ele>163</ele>
        <time>2017-12-07T12:18:48Z</time>
      </trkpt>
      <trkpt lat="44.48945" lon="4.65077">
        <ele>163</ele>
        <time>2017-12-07T12:18:57Z</time>
      </trkpt>
      <trkpt lat="44.48947" lon="4.65079">
        <ele>163</ele>
        <time>2017-12-07T12:19:00Z</time>
      </trkpt>
      <trkpt lat="44.48957" lon="4.65082">
        <ele>163</ele>
        <time>2017-12-07T12:19:13Z</time>
      </trkpt>
      <trkpt lat="44.48968" lon="4.65081">
        <ele>162</ele>
        <time>2017-12-07T12:19:26Z</time>
      </trkpt>
      <trkpt lat="44.48975" lon="4.65078">
        <ele>162</ele>
        <time>2017-12-07T12:19:31Z</time>
      </trkpt>
      <trkpt lat="44.48985" lon="4.65079">
        <ele>162</ele>
        <time>2017-12-07T12:19:40Z</time>
      </trkpt>
      <trkpt lat="44.48987" lon="4.65078">
        <ele>162</ele>
        <time>2017-12-07T12:19:43Z</time>
      </trkpt>
      <trkpt lat="44.48999" lon="4.65076">
        <ele>162</ele>
        <time>2017-12-07T12:19:55Z</time>
      </trkpt>
      <trkpt lat="44.49015" lon="4.65069">
        <ele>161</ele>
        <time>2017-12-07T12:20:09Z</time>
      </trkpt>
      <trkpt lat="44.49017" lon="4.65069">
        <ele>160</ele>
        <time>2017-12-07T12:20:12Z</time>
      </trkpt>
      <trkpt lat="44.49026" lon="4.65064">
        <ele>160</ele>
        <time>2017-12-07T12:20:26Z</time>
      </trkpt>
      <trkpt lat="44.49029" lon="4.65063">
        <ele>159</ele>
        <time>2017-12-07T12:20:29Z</time>
      </trkpt>
      <trkpt lat="44.49046" lon="4.65065">
        <ele>158</ele>
        <time>2017-12-07T12:20:43Z</time>
      </trkpt>
      <trkpt lat="44.49061" lon="4.65075">
        <ele>157</ele>
        <time>2017-12-07T12:20:59Z</time>
      </trkpt>
      <trkpt lat="44.49064" lon="4.65076">
        <ele>157</ele>
        <time>2017-12-07T12:21:10Z</time>
      </trkpt>
      <trkpt lat="44.49067" lon="4.65084">
        <ele>157</ele>
        <time>2017-12-07T12:21:26Z</time>
      </trkpt>
      <trkpt lat="44.49073" lon="4.65098">
        <ele>156</ele>
        <time>2017-12-07T12:21:38Z</time>
      </trkpt>
      <trkpt lat="44.49082" lon="4.65113">
        <ele>155</ele>
        <time>2017-12-07T12:21:54Z</time>
      </trkpt>
      <trkpt lat="44.49092" lon="4.65134">
        <ele>154</ele>
        <time>2017-12-07T12:22:10Z</time>
      </trkpt>
      <trkpt lat="44.49105" lon="4.65162">
        <ele>153</ele>
        <time>2017-12-07T12:22:29Z</time>
      </trkpt>
      <trkpt lat="44.49112" lon="4.65178">
        <ele>151</ele>
        <time>2017-12-07T12:22:45Z</time>
      </trkpt>
      <trkpt lat="44.49118" lon="4.65189">
        <ele>149</ele>
        <time>2017-12-07T12:22:56Z</time>
      </trkpt>
      <trkpt lat="44.49123" lon="4.6521">
        <ele>147</ele>
        <time>2017-12-07T12:23:11Z</time>
      </trkpt>
      <trkpt lat="44.49125" lon="4.65228">
        <ele>145</ele>
        <time>2017-12-07T12:23:23Z</time>
      </trkpt>
      <trkpt lat="44.49126" lon="4.65236">
        <ele>145</ele>
        <time>2017-12-07T12:23:29Z</time>
      </trkpt>
      <trkpt lat="44.49126" lon="4.65254">
        <ele>143</ele>
        <time>2017-12-07T12:23:44Z</time>
      </trkpt>
      <trkpt lat="44.49127" lon="4.65275">
        <ele>140</ele>
        <time>2017-12-07T12:24:00Z</time>
      </trkpt>
      <trkpt lat="44.49127" lon="4.65284">
        <ele>139</ele>
        <time>2017-12-07T12:24:07Z</time>
      </trkpt>
      <trkpt lat="44.49127" lon="4.65297">
        <ele>139</ele>
        <time>2017-12-07T12:24:19Z</time>
      </trkpt>
      <trkpt lat="44.4913" lon="4.65319">
        <ele>137</ele>
        <time>2017-12-07T12:24:35Z</time>
      </trkpt>
      <trkpt lat="44.49131" lon="4.65339">
        <ele>136</ele>
        <time>2017-12-07T12:24:48Z</time>
      </trkpt>
      <trkpt lat="44.49132" lon="4.65353">
        <ele>134</ele>
        <time>2017-12-07T12:25:01Z</time>
      </trkpt>
      <trkpt lat="44.49133" lon="4.65372">
        <ele>133</ele>
        <time>2017-12-07T12:25:16Z</time>
      </trkpt>
      <trkpt lat="44.49134" lon="4.65396">
        <ele>132</ele>
        <time>2017-12-07T12:25:31Z</time>
      </trkpt>
      <trkpt lat="44.49133" lon="4.65412">
        <ele>131</ele>
        <time>2017-12-07T12:25:44Z</time>
      </trkpt>
      <trkpt lat="44.49134" lon="4.65422">
        <ele>130</ele>
        <time>2017-12-07T12:25:52Z</time>
      </trkpt>
      <trkpt lat="44.4914" lon="4.65442">
        <ele>129</ele>
        <time>2017-12-07T12:26:07Z</time>
      </trkpt>
      <trkpt lat="44.49138" lon="4.65458">
        <ele>128</ele>
        <time>2017-12-07T12:26:20Z</time>
      </trkpt>
      <trkpt lat="44.4913" lon="4.65474">
        <ele>127</ele>
        <time>2017-12-07T12:26:35Z</time>
      </trkpt>
      <trkpt lat="44.49129" lon="4.65475">
        <ele>127</ele>
        <time>2017-12-07T12:26:37Z</time>
      </trkpt>
      <trkpt lat="44.49128" lon="4.65477">
        <ele>127</ele>
        <time>2017-12-07T12:26:39Z</time>
      </trkpt>
      <trkpt lat="44.49118" lon="4.65496">
        <ele>125</ele>
        <time>2017-12-07T12:26:58Z</time>
      </trkpt>
      <trkpt lat="44.4911" lon="4.6551">
        <ele>124</ele>
        <time>2017-12-07T12:27:11Z</time>
      </trkpt>
      <trkpt lat="44.49104" lon="4.65525">
        <ele>123</ele>
        <time>2017-12-07T12:27:24Z</time>
      </trkpt>
      <trkpt lat="44.491" lon="4.65541">
        <ele>121</ele>
        <time>2017-12-07T12:27:38Z</time>
      </trkpt>
      <trkpt lat="44.49101" lon="4.6556">
        <ele>119</ele>
        <time>2017-12-07T12:27:54Z</time>
      </trkpt>
      <trkpt lat="44.49103" lon="4.65579">
        <ele>118</ele>
        <time>2017-12-07T12:28:08Z</time>
      </trkpt>
      <trkpt lat="44.49106" lon="4.65602">
        <ele>117</ele>
        <time>2017-12-07T12:28:23Z</time>
      </trkpt>
      <trkpt lat="44.49108" lon="4.65622">
        <ele>116</ele>
        <time>2017-12-07T12:28:39Z</time>
      </trkpt>
      <trkpt lat="44.49115" lon="4.65639">
        <ele>115</ele>
        <time>2017-12-07T12:28:55Z</time>
      </trkpt>
      <trkpt lat="44.49121" lon="4.65642">
        <ele>115</ele>
        <time>2017-12-07T12:29:01Z</time>
      </trkpt>
      <trkpt lat="44.49132" lon="4.65644">
        <ele>115</ele>
        <time>2017-12-07T12:29:13Z</time>
      </trkpt>
      <trkpt lat="44.49147" lon="4.65644">
        <ele>115</ele>
        <time>2017-12-07T12:29:29Z</time>
      </trkpt>
      <trkpt lat="44.49153" lon="4.65645">
        <ele>115</ele>
        <time>2017-12-07T12:29:34Z</time>
      </trkpt>
      <trkpt lat="44.49166" lon="4.65646">
        <ele>115</ele>
        <time>2017-12-07T12:29:48Z</time>
      </trkpt>
      <trkpt lat="44.4918" lon="4.65644">
        <ele>115</ele>
        <time>2017-12-07T12:30:01Z</time>
      </trkpt>
      <trkpt lat="44.49188" lon="4.65641">
        <ele>114</ele>
        <time>2017-12-07T12:30:11Z</time>
      </trkpt>
      <trkpt lat="44.49195" lon="4.65634">
        <ele>114</ele>
        <time>2017-12-07T12:30:24Z</time>
      </trkpt>
      <trkpt lat="44.49199" lon="4.65634">
        <ele>114</ele>
        <time>2017-12-07T12:30:28Z</time>
      </trkpt>
      <trkpt lat="44.49213" lon="4.65633">
        <ele>116</ele>
        <time>2017-12-07T12:30:42Z</time>
      </trkpt>
      <trkpt lat="44.49222" lon="4.65634">
        <ele>116</ele>
        <time>2017-12-07T12:30:57Z</time>
      </trkpt>
      <trkpt lat="44.49225" lon="4.65634">
        <ele>116</ele>
        <time>2017-12-07T12:31:20Z</time>
      </trkpt>
      <trkpt lat="44.49234" lon="4.65636">
        <ele>116</ele>
        <time>2017-12-07T12:31:34Z</time>
      </trkpt>
      <trkpt lat="44.49247" lon="4.65644">
        <ele>114</ele>
        <time>2017-12-07T12:31:50Z</time>
      </trkpt>
      <trkpt lat="44.49262" lon="4.6564">
        <ele>114</ele>
        <time>2017-12-07T12:32:07Z</time>
      </trkpt>
      <trkpt lat="44.49277" lon="4.65636">
        <ele>114</ele>
        <time>2017-12-07T12:32:21Z</time>
      </trkpt>
      <trkpt lat="44.49286" lon="4.65632">
        <ele>114</ele>
        <time>2017-12-07T12:32:31Z</time>
      </trkpt>
      <trkpt lat="44.49299" lon="4.65625">
        <ele>114</ele>
        <time>2017-12-07T12:32:45Z</time>
      </trkpt>
      <trkpt lat="44.49303" lon="4.65623">
        <ele>114</ele>
        <time>2017-12-07T12:32:48Z</time>
      </trkpt>
      <trkpt lat="44.49308" lon="4.65623">
        <ele>114</ele>
        <time>2017-12-07T12:32:59Z</time>
      </trkpt>
      <trkpt lat="44.49309" lon="4.65623">
        <ele>113</ele>
        <time>2017-12-07T12:33:14Z</time>
      </trkpt>
      <trkpt lat="44.49314" lon="4.65623">
        <ele>113</ele>
        <time>2017-12-07T12:33:31Z</time>
      </trkpt>
      <trkpt lat="44.49314" lon="4.65623">
        <ele>113</ele>
        <time>2017-12-07T12:33:47Z</time>
      </trkpt>
      <trkpt lat="44.49314" lon="4.65627">
        <ele>113</ele>
        <time>2017-12-07T12:33:52Z</time>
      </trkpt>
      <trkpt lat="44.49316" lon="4.65634">
        <ele>113</ele>
        <time>2017-12-07T12:34:03Z</time>
      </trkpt>
      <trkpt lat="44.49316" lon="4.65644">
        <ele>112</ele>
        <time>2017-12-07T12:34:14Z</time>
      </trkpt>
      <trkpt lat="44.49318" lon="4.65661">
        <ele>111</ele>
        <time>2017-12-07T12:34:26Z</time>
      </trkpt>
      <trkpt lat="44.49321" lon="4.65678">
        <ele>109</ele>
        <time>2017-12-07T12:34:39Z</time>
      </trkpt>
      <trkpt lat="44.49323" lon="4.65697">
        <ele>109</ele>
        <time>2017-12-07T12:34:51Z</time>
      </trkpt>
      <trkpt lat="44.49328" lon="4.65721">
        <ele>107</ele>
        <time>2017-12-07T12:35:05Z</time>
      </trkpt>
      <trkpt lat="44.4933" lon="4.65729">
        <ele>106</ele>
        <time>2017-12-07T12:35:14Z</time>
      </trkpt>
      <trkpt lat="44.49331" lon="4.65737">
        <ele>106</ele>
        <time>2017-12-07T12:35:18Z</time>
      </trkpt>
      <trkpt lat="44.49331" lon="4.65752">
        <ele>104</ele>
        <time>2017-12-07T12:35:31Z</time>
      </trkpt>
      <trkpt lat="44.49333" lon="4.6577">
        <ele>102</ele>
        <time>2017-12-07T12:35:46Z</time>
      </trkpt>
      <trkpt lat="44.49336" lon="4.65782">
        <ele>101</ele>
        <time>2017-12-07T12:35:57Z</time>
      </trkpt>
      <trkpt lat="44.49337" lon="4.658">
        <ele>99</ele>
        <time>2017-12-07T12:36:08Z</time>
      </trkpt>
      <trkpt lat="44.49335" lon="4.65812">
        <ele>98</ele>
        <time>2017-12-07T12:36:18Z</time>
      </trkpt>
      <trkpt lat="44.49331" lon="4.65828">
        <ele>96</ele>
        <time>2017-12-07T12:36:30Z</time>
      </trkpt>
      <trkpt lat="44.49331" lon="4.65831">
        <ele>96</ele>
        <time>2017-12-07T12:36:34Z</time>
      </trkpt>
      <trkpt lat="44.4933" lon="4.65851">
        <ele>94</ele>
        <time>2017-12-07T12:36:52Z</time>
      </trkpt>
      <trkpt lat="44.49328" lon="4.65872">
        <ele>92</ele>
        <time>2017-12-07T12:37:08Z</time>
      </trkpt>
      <trkpt lat="44.49327" lon="4.65878">
        <ele>92</ele>
        <time>2017-12-07T12:37:12Z</time>
      </trkpt>
      <trkpt lat="44.49327" lon="4.6588">
        <ele>92</ele>
        <time>2017-12-07T12:37:14Z</time>
      </trkpt>
      <trkpt lat="44.49326" lon="4.65902">
        <ele>90</ele>
        <time>2017-12-07T12:37:30Z</time>
      </trkpt>
      <trkpt lat="44.49326" lon="4.65911">
        <ele>90</ele>
        <time>2017-12-07T12:37:37Z</time>
      </trkpt>
      <trkpt lat="44.49325" lon="4.65927">
        <ele>89</ele>
        <time>2017-12-07T12:37:49Z</time>
      </trkpt>
      <trkpt lat="44.49323" lon="4.65949">
        <ele>89</ele>
        <time>2017-12-07T12:38:03Z</time>
      </trkpt>
      <trkpt lat="44.49323" lon="4.65974">
        <ele>88</ele>
        <time>2017-12-07T12:38:21Z</time>
      </trkpt>
      <trkpt lat="44.49322" lon="4.65992">
        <ele>88</ele>
        <time>2017-12-07T12:38:34Z</time>
      </trkpt>
      <trkpt lat="44.49321" lon="4.66012">
        <ele>87</ele>
        <time>2017-12-07T12:38:47Z</time>
      </trkpt>
      <trkpt lat="44.49319" lon="4.66032">
        <ele>87</ele>
        <time>2017-12-07T12:39:00Z</time>
      </trkpt>
      <trkpt lat="44.49318" lon="4.66056">
        <ele>87</ele>
        <time>2017-12-07T12:39:16Z</time>
      </trkpt>
      <trkpt lat="44.49317" lon="4.6606">
        <ele>87</ele>
        <time>2017-12-07T12:39:19Z</time>
      </trkpt>
      <trkpt lat="44.4931" lon="4.66063">
        <ele>87</ele>
        <time>2017-12-07T12:39:27Z</time>
      </trkpt>
      <trkpt lat="44.49304" lon="4.66061">
        <ele>86</ele>
        <time>2017-12-07T12:39:32Z</time>
      </trkpt>
      <trkpt lat="44.49291" lon="4.66065">
        <ele>86</ele>
        <time>2017-12-07T12:39:45Z</time>
      </trkpt>
      <trkpt lat="44.49279" lon="4.66071">
        <ele>86</ele>
        <time>2017-12-07T12:40:00Z</time>
      </trkpt>
      <trkpt lat="44.49271" lon="4.66077">
        <ele>86</ele>
        <time>2017-12-07T12:40:07Z</time>
      </trkpt>
      <trkpt lat="44.4926" lon="4.6608">
        <ele>86</ele>
        <time>2017-12-07T12:40:20Z</time>
      </trkpt>
      <trkpt lat="44.49259" lon="4.6608">
        <ele>86</ele>
        <time>2017-12-07T12:40:21Z</time>
      </trkpt>
      <trkpt lat="44.49252" lon="4.66081">
        <ele>86</ele>
        <time>2017-12-07T12:40:26Z</time>
      </trkpt>
      <trkpt lat="44.49247" lon="4.66082">
        <ele>86</ele>
        <time>2017-12-07T12:40:32Z</time>
      </trkpt>
      <trkpt lat="44.49235" lon="4.66086">
        <ele>85</ele>
        <time>2017-12-07T12:40:43Z</time>
      </trkpt>
      <trkpt lat="44.49225" lon="4.66091">
        <ele>85</ele>
        <time>2017-12-07T12:40:54Z</time>
      </trkpt>
      <trkpt lat="44.49213" lon="4.66092">
        <ele>85</ele>
        <time>2017-12-07T12:41:05Z</time>
      </trkpt>
      <trkpt lat="44.49203" lon="4.66087">
        <ele>85</ele>
        <time>2017-12-07T12:41:16Z</time>
      </trkpt>
      <trkpt lat="44.49193" lon="4.66081">
        <ele>85</ele>
        <time>2017-12-07T12:41:27Z</time>
      </trkpt>
      <trkpt lat="44.49178" lon="4.66071">
        <ele>85</ele>
        <time>2017-12-07T12:41:42Z</time>
      </trkpt>
      <trkpt lat="44.49161" lon="4.6606">
        <ele>85</ele>
        <time>2017-12-07T12:42:00Z</time>
      </trkpt>
      <trkpt lat="44.49156" lon="4.66057">
        <ele>85</ele>
        <time>2017-12-07T12:42:05Z</time>
      </trkpt>
      <trkpt lat="44.4915" lon="4.66054">
        <ele>85</ele>
        <time>2017-12-07T12:42:11Z</time>
      </trkpt>
      <trkpt lat="44.49141" lon="4.66049">
        <ele>85</ele>
        <time>2017-12-07T12:42:20Z</time>
      </trkpt>
      <trkpt lat="44.4913" lon="4.66041">
        <ele>85</ele>
        <time>2017-12-07T12:42:33Z</time>
      </trkpt>
      <trkpt lat="44.49124" lon="4.66037">
        <ele>85</ele>
        <time>2017-12-07T12:42:39Z</time>
      </trkpt>
      <trkpt lat="44.49122" lon="4.66034">
        <ele>85</ele>
        <time>2017-12-07T12:42:42Z</time>
      </trkpt>
      <trkpt lat="44.49111" lon="4.66027">
        <ele>85</ele>
        <time>2017-12-07T12:42:54Z</time>
      </trkpt>
      <trkpt lat="44.4911" lon="4.66026">
        <ele>85</ele>
        <time>2017-12-07T12:42:56Z</time>
      </trkpt>
      <trkpt lat="44.49099" lon="4.66019">
        <ele>85</ele>
        <time>2017-12-07T12:43:10Z</time>
      </trkpt>
      <trkpt lat="44.49091" lon="4.66013">
        <ele>85</ele>
        <time>2017-12-07T12:43:21Z</time>
      </trkpt>
      <trkpt lat="44.49082" lon="4.66006">
        <ele>86</ele>
        <time>2017-12-07T12:43:34Z</time>
      </trkpt>
      <trkpt lat="44.49077" lon="4.66002">
        <ele>86</ele>
        <time>2017-12-07T12:43:40Z</time>
      </trkpt>
      <trkpt lat="44.49073" lon="4.65999">
        <ele>86</ele>
        <time>2017-12-07T12:43:45Z</time>
      </trkpt>
      <trkpt lat="44.49063" lon="4.65984">
        <ele>85</ele>
        <time>2017-12-07T12:43:57Z</time>
      </trkpt>
      <trkpt lat="44.49063" lon="4.6597">
        <ele>85</ele>
        <time>2017-12-07T12:44:06Z</time>
      </trkpt>
      <trkpt lat="44.49063" lon="4.65967">
        <ele>85</ele>
        <time>2017-12-07T12:44:08Z</time>
      </trkpt>
      <trkpt lat="44.49063" lon="4.65965">
        <ele>86</ele>
        <time>2017-12-07T12:44:10Z</time>
      </trkpt>
      <trkpt lat="44.49062" lon="4.65958">
        <ele>86</ele>
        <time>2017-12-07T12:44:15Z</time>
      </trkpt>
      <trkpt lat="44.49063" lon="4.65938">
        <ele>86</ele>
        <time>2017-12-07T12:44:29Z</time>
      </trkpt>
      <trkpt lat="44.49062" lon="4.65921">
        <ele>86</ele>
        <time>2017-12-07T12:44:42Z</time>
      </trkpt>
      <trkpt lat="44.49062" lon="4.65903">
        <ele>86</ele>
        <time>2017-12-07T12:44:55Z</time>
      </trkpt>
      <trkpt lat="44.49062" lon="4.6589">
        <ele>87</ele>
        <time>2017-12-07T12:45:06Z</time>
      </trkpt>
      <trkpt lat="44.49062" lon="4.65875">
        <ele>87</ele>
        <time>2017-12-07T12:45:19Z</time>
      </trkpt>
      <trkpt lat="44.49064" lon="4.65872">
        <ele>88</ele>
        <time>2017-12-07T12:45:31Z</time>
      </trkpt>
      <trkpt lat="44.49063" lon="4.65871">
        <ele>88</ele>
        <time>2017-12-07T12:45:47Z</time>
      </trkpt>
      <trkpt lat="44.49063" lon="4.65863">
        <ele>88</ele>
        <time>2017-12-07T12:45:51Z</time>
      </trkpt>
      <trkpt lat="44.49061" lon="4.65844">
        <ele>88</ele>
        <time>2017-12-07T12:46:05Z</time>
      </trkpt>
      <trkpt lat="44.49061" lon="4.65843">
        <ele>88</ele>
        <time>2017-12-07T12:46:06Z</time>
      </trkpt>
      <trkpt lat="44.49055" lon="4.65839">
        <ele>88</ele>
        <time>2017-12-07T12:46:11Z</time>
      </trkpt>
      <trkpt lat="44.49048" lon="4.65847">
        <ele>88</ele>
        <time>2017-12-07T12:46:23Z</time>
      </trkpt>
      <trkpt lat="44.4904" lon="4.65859">
        <ele>88</ele>
        <time>2017-12-07T12:46:33Z</time>
      </trkpt>
      <trkpt lat="44.49025" lon="4.65868">
        <ele>88</ele>
        <time>2017-12-07T12:46:48Z</time>
      </trkpt>
      <trkpt lat="44.49009" lon="4.65877">
        <ele>88</ele>
        <time>2017-12-07T12:47:00Z</time>
      </trkpt>
      <trkpt lat="44.49" lon="4.65878">
        <ele>88</ele>
        <time>2017-12-07T12:47:11Z</time>
      </trkpt>
      <trkpt lat="44.48998" lon="4.65879">
        <ele>88</ele>
        <time>2017-12-07T12:47:15Z</time>
      </trkpt>
      <trkpt lat="44.48985" lon="4.65882">
        <ele>87</ele>
        <time>2017-12-07T12:47:25Z</time>
      </trkpt>
      <trkpt lat="44.4898" lon="4.65883">
        <ele>86</ele>
        <time>2017-12-07T12:47:28Z</time>
      </trkpt>
      <trkpt lat="44.48969" lon="4.65888">
        <ele>85</ele>
        <time>2017-12-07T12:47:41Z</time>
      </trkpt>
      <trkpt lat="44.48958" lon="4.65891">
        <ele>85</ele>
        <time>2017-12-07T12:47:52Z</time>
      </trkpt>
      <trkpt lat="44.48947" lon="4.65894">
        <ele>85</ele>
        <time>2017-12-07T12:48:06Z</time>
      </trkpt>
      <trkpt lat="44.48939" lon="4.65899">
        <ele>85</ele>
        <time>2017-12-07T12:48:18Z</time>
      </trkpt>
      <trkpt lat="44.48931" lon="4.65902">
        <ele>85</ele>
        <time>2017-12-07T12:48:33Z</time>
      </trkpt>
      <trkpt lat="44.48918" lon="4.65903">
        <ele>85</ele>
        <time>2017-12-07T12:48:46Z</time>
      </trkpt>
      <trkpt lat="44.48913" lon="4.65903">
        <ele>85</ele>
        <time>2017-12-07T12:49:02Z</time>
      </trkpt>
      <trkpt lat="44.48913" lon="4.65903">
        <ele>85</ele>
        <time>2017-12-07T12:49:03Z</time>
      </trkpt>
      <trkpt lat="44.48896" lon="4.65908">
        <ele>85</ele>
        <time>2017-12-07T12:49:12Z</time>
      </trkpt>
      <trkpt lat="44.48892" lon="4.65908">
        <ele>85</ele>
        <time>2017-12-07T12:49:15Z</time>
      </trkpt>
      <trkpt lat="44.48886" lon="4.65907">
        <ele>86</ele>
        <time>2017-12-07T12:49:24Z</time>
      </trkpt>
      <trkpt lat="44.4887" lon="4.65903">
        <ele>87</ele>
        <time>2017-12-07T12:49:40Z</time>
      </trkpt>
      <trkpt lat="44.4887" lon="4.65903">
        <ele>87</ele>
        <time>2017-12-07T12:49:42Z</time>
      </trkpt>
      <trkpt lat="44.48864" lon="4.65906">
        <ele>87</ele>
        <time>2017-12-07T12:49:46Z</time>
      </trkpt>
      <trkpt lat="44.48858" lon="4.6591">
        <ele>87</ele>
        <time>2017-12-07T12:49:56Z</time>
      </trkpt>
      <trkpt lat="44.48848" lon="4.65917">
        <ele>87</ele>
        <time>2017-12-07T12:50:08Z</time>
      </trkpt>
      <trkpt lat="44.48839" lon="4.65922">
        <ele>86</ele>
        <time>2017-12-07T12:50:21Z</time>
      </trkpt>
      <trkpt lat="44.48832" lon="4.6593">
        <ele>86</ele>
        <time>2017-12-07T12:50:31Z</time>
      </trkpt>
      <trkpt lat="44.48827" lon="4.65935">
        <ele>86</ele>
        <time>2017-12-07T12:50:36Z</time>
      </trkpt>
      <trkpt lat="44.48814" lon="4.65948">
        <ele>86</ele>
        <time>2017-12-07T12:50:50Z</time>
      </trkpt>
      <trkpt lat="44.48805" lon="4.65956">
        <ele>85</ele>
        <time>2017-12-07T12:51:02Z</time>
      </trkpt>
      <trkpt lat="44.48796" lon="4.65969">
        <ele>85</ele>
        <time>2017-12-07T12:51:16Z</time>
      </trkpt>
      <trkpt lat="44.48795" lon="4.6597">
        <ele>85</ele>
        <time>2017-12-07T12:51:17Z</time>
      </trkpt>
      <trkpt lat="44.48788" lon="4.65976">
        <ele>85</ele>
        <time>2017-12-07T12:51:28Z</time>
      </trkpt>
      <trkpt lat="44.48784" lon="4.65982">
        <ele>85</ele>
        <time>2017-12-07T12:51:31Z</time>
      </trkpt>
      <trkpt lat="44.48773" lon="4.65992">
        <ele>84</ele>
        <time>2017-12-07T12:51:45Z</time>
      </trkpt>
      <trkpt lat="44.4877" lon="4.65995">
        <ele>84</ele>
        <time>2017-12-07T12:51:49Z</time>
      </trkpt>
      <trkpt lat="44.48767" lon="4.65998">
        <ele>84</ele>
        <time>2017-12-07T12:51:52Z</time>
      </trkpt>
      <trkpt lat="44.48761" lon="4.66002">
        <ele>84</ele>
        <time>2017-12-07T12:51:58Z</time>
      </trkpt>
      <trkpt lat="44.48757" lon="4.6601">
        <ele>84</ele>
        <time>2017-12-07T12:52:02Z</time>
      </trkpt>
      <trkpt lat="44.48749" lon="4.66017">
        <ele>84</ele>
        <time>2017-12-07T12:52:13Z</time>
      </trkpt>
      <trkpt lat="44.48739" lon="4.66034">
        <ele>84</ele>
        <time>2017-12-07T12:52:26Z</time>
      </trkpt>
      <trkpt lat="44.48738" lon="4.66034">
        <ele>84</ele>
        <time>2017-12-07T12:52:27Z</time>
      </trkpt>
      <trkpt lat="44.48733" lon="4.66042">
        <ele>84</ele>
        <time>2017-12-07T12:52:35Z</time>
      </trkpt>
      <trkpt lat="44.48725" lon="4.66052">
        <ele>84</ele>
        <time>2017-12-07T12:52:47Z</time>
      </trkpt>
      <trkpt lat="44.48719" lon="4.6606">
        <ele>84</ele>
        <time>2017-12-07T12:52:56Z</time>
      </trkpt>
      <trkpt lat="44.48707" lon="4.66073">
        <ele>84</ele>
        <time>2017-12-07T12:53:12Z</time>
      </trkpt>
      <trkpt lat="44.48707" lon="4.66074">
        <ele>84</ele>
        <time>2017-12-07T12:53:13Z</time>
      </trkpt>
      <trkpt lat="44.48701" lon="4.66087">
        <ele>85</ele>
        <time>2017-12-07T12:53:25Z</time>
      </trkpt>
      <trkpt lat="44.48694" lon="4.66095">
        <ele>86</ele>
        <time>2017-12-07T12:53:36Z</time>
      </trkpt>
      <trkpt lat="44.48686" lon="4.66109">
        <ele>86</ele>
        <time>2017-12-07T12:53:49Z</time>
      </trkpt>
      <trkpt lat="44.48685" lon="4.6611">
        <ele>86</ele>
        <time>2017-12-07T12:53:50Z</time>
      </trkpt>
      <trkpt lat="44.48678" lon="4.66124">
        <ele>86</ele>
        <time>2017-12-07T12:54:02Z</time>
      </trkpt>
      <trkpt lat="44.48671" lon="4.66139">
        <ele>86</ele>
        <time>2017-12-07T12:54:11Z</time>
      </trkpt>
      <trkpt lat="44.48663" lon="4.66152">
        <ele>86</ele>
        <time>2017-12-07T12:54:21Z</time>
      </trkpt>
      <trkpt lat="44.48656" lon="4.66162">
        <ele>87</ele>
        <time>2017-12-07T12:54:33Z</time>
      </trkpt>
      <trkpt lat="44.48644" lon="4.66179">
        <ele>87</ele>
        <time>2017-12-07T12:54:49Z</time>
      </trkpt>
      <trkpt lat="44.48631" lon="4.66195">
        <ele>87</ele>
        <time>2017-12-07T12:55:05Z</time>
      </trkpt>
      <trkpt lat="44.4862" lon="4.66212">
        <ele>87</ele>
        <time>2017-12-07T12:55:21Z</time>
      </trkpt>
      <trkpt lat="44.48619" lon="4.66214">
        <ele>87</ele>
        <time>2017-12-07T12:55:23Z</time>
      </trkpt>
      <trkpt lat="44.48615" lon="4.66221">
        <ele>87</ele>
        <time>2017-12-07T12:55:30Z</time>
      </trkpt>
      <trkpt lat="44.48613" lon="4.66229">
        <ele>87</ele>
        <time>2017-12-07T12:55:41Z</time>
      </trkpt>
      <trkpt lat="44.48613" lon="4.66231">
        <ele>87</ele>
        <time>2017-12-07T12:56:04Z</time>
      </trkpt>
      <trkpt lat="44.48614" lon="4.66235">
        <ele>87</ele>
        <time>2017-12-07T12:56:30Z</time>
      </trkpt>
      <trkpt lat="44.48612" lon="4.66233">
        <ele>87</ele>
        <time>2017-12-07T12:56:53Z</time>
      </trkpt>
      <trkpt lat="44.48612" lon="4.66232">
        <ele>87</ele>
        <time>2017-12-07T12:57:10Z</time>
      </trkpt>
      <trkpt lat="44.48614" lon="4.66233">
        <ele>87</ele>
        <time>2017-12-07T12:57:33Z</time>
      </trkpt>
      <trkpt lat="44.48614" lon="4.66233">
        <ele>87</ele>
        <time>2017-12-07T12:57:51Z</time>
      </trkpt>
      <trkpt lat="44.48614" lon="4.66234">
        <ele>87</ele>
        <time>2017-12-07T12:57:56Z</time>
      </trkpt>
      <trkpt lat="44.48611" lon="4.66253">
        <ele>87</ele>
        <time>2017-12-07T12:58:09Z</time>
      </trkpt>
      <trkpt lat="44.48612" lon="4.66263">
        <ele>88</ele>
        <time>2017-12-07T12:58:18Z</time>
      </trkpt>
      <trkpt lat="44.48613" lon="4.66266">
        <ele>88</ele>
        <time>2017-12-07T12:58:20Z</time>
      </trkpt>
      <trkpt lat="44.48612" lon="4.66291">
        <ele>87</ele>
        <time>2017-12-07T12:58:35Z</time>
      </trkpt>
      <trkpt lat="44.48612" lon="4.66306">
        <ele>88</ele>
        <time>2017-12-07T12:58:48Z</time>
      </trkpt>
      <trkpt lat="44.48618" lon="4.66319">
        <ele>89</ele>
        <time>2017-12-07T12:59:03Z</time>
      </trkpt>
      <trkpt lat="44.48631" lon="4.66335">
        <ele>89</ele>
        <time>2017-12-07T12:59:23Z</time>
      </trkpt>
      <trkpt lat="44.48634" lon="4.66338">
        <ele>90</ele>
        <time>2017-12-07T12:59:27Z</time>
      </trkpt>
      <trkpt lat="44.48636" lon="4.66341">
        <ele>90</ele>
        <time>2017-12-07T12:59:30Z</time>
      </trkpt>
      <trkpt lat="44.48643" lon="4.66355">
        <ele>90</ele>
        <time>2017-12-07T12:59:40Z</time>
      </trkpt>
      <trkpt lat="44.48642" lon="4.66362">
        <ele>90</ele>
        <time>2017-12-07T12:59:44Z</time>
      </trkpt>
      <trkpt lat="44.48649" lon="4.66381">
        <ele>91</ele>
        <time>2017-12-07T12:59:56Z</time>
      </trkpt>
      <trkpt lat="44.48656" lon="4.66394">
        <ele>92</ele>
        <time>2017-12-07T13:00:07Z</time>
      </trkpt>
      <trkpt lat="44.48662" lon="4.66405">
        <ele>93</ele>
        <time>2017-12-07T13:00:20Z</time>
      </trkpt>
      <trkpt lat="44.48673" lon="4.66413">
        <ele>94</ele>
        <time>2017-12-07T13:00:30Z</time>
      </trkpt>
      <trkpt lat="44.48684" lon="4.66419">
        <ele>95</ele>
        <time>2017-12-07T13:00:40Z</time>
      </trkpt>
      <trkpt lat="44.48685" lon="4.6642">
        <ele>95</ele>
        <time>2017-12-07T13:00:43Z</time>
      </trkpt>
      <trkpt lat="44.48689" lon="4.66424">
        <ele>95</ele>
        <time>2017-12-07T13:00:49Z</time>
      </trkpt>
      <trkpt lat="44.48698" lon="4.66437">
        <ele>95</ele>
        <time>2017-12-07T13:01:03Z</time>
      </trkpt>
      <trkpt lat="44.48699" lon="4.66439">
        <ele>96</ele>
        <time>2017-12-07T13:01:05Z</time>
      </trkpt>
      <trkpt lat="44.48705" lon="4.66451">
        <ele>96</ele>
        <time>2017-12-07T13:01:15Z</time>
      </trkpt>
      <trkpt lat="44.48707" lon="4.66456">
        <ele>96</ele>
        <time>2017-12-07T13:01:18Z</time>
      </trkpt>
      <trkpt lat="44.48706" lon="4.66472">
        <ele>97</ele>
        <time>2017-12-07T13:01:30Z</time>
      </trkpt>
      <trkpt lat="44.48699" lon="4.66481">
        <ele>97</ele>
        <time>2017-12-07T13:01:42Z</time>
      </trkpt>
      <trkpt lat="44.48688" lon="4.66495">
        <ele>98</ele>
        <time>2017-12-07T13:01:58Z</time>
      </trkpt>
      <trkpt lat="44.48674" lon="4.66509">
        <ele>99</ele>
        <time>2017-12-07T13:02:16Z</time>
      </trkpt>
      <trkpt lat="44.48664" lon="4.66524">
        <ele>99</ele>
        <time>2017-12-07T13:02:31Z</time>
      </trkpt>
      <trkpt lat="44.48663" lon="4.66527">
        <ele>99</ele>
        <time>2017-12-07T13:02:32Z</time>
      </trkpt>
      <trkpt lat="44.48659" lon="4.6654">
        <ele>99</ele>
        <time>2017-12-07T13:02:41Z</time>
      </trkpt>
      <trkpt lat="44.48656" lon="4.66562">
        <ele>99</ele>
        <time>2017-12-07T13:02:55Z</time>
      </trkpt>
      <trkpt lat="44.48656" lon="4.66564">
        <ele>99</ele>
        <time>2017-12-07T13:02:56Z</time>
      </trkpt>
      <trkpt lat="44.48654" lon="4.66573">
        <ele>99</ele>
        <time>2017-12-07T13:03:02Z</time>
      </trkpt>
      <trkpt lat="44.48649" lon="4.66583">
        <ele>99</ele>
        <time>2017-12-07T13:03:13Z</time>
      </trkpt>
      <trkpt lat="44.4864" lon="4.66599">
        <ele>98</ele>
        <time>2017-12-07T13:03:28Z</time>
      </trkpt>
      <trkpt lat="44.48628" lon="4.66615">
        <ele>98</ele>
        <time>2017-12-07T13:03:44Z</time>
      </trkpt>
      <trkpt lat="44.48617" lon="4.6663">
        <ele>98</ele>
        <time>2017-12-07T13:04:00Z</time>
      </trkpt>
      <trkpt lat="44.48608" lon="4.66653">
        <ele>97</ele>
        <time>2017-12-07T13:04:17Z</time>
      </trkpt>
      <trkpt lat="44.48601" lon="4.66668">
        <ele>97</ele>
        <time>2017-12-07T13:04:29Z</time>
      </trkpt>
      <trkpt lat="44.486" lon="4.66681">
        <ele>99</ele>
        <time>2017-12-07T13:04:37Z</time>
      </trkpt>
      <trkpt lat="44.48603" lon="4.66688">
        <ele>100</ele>
        <time>2017-12-07T13:04:42Z</time>
      </trkpt>
      <trkpt lat="44.48609" lon="4.667">
        <ele>100</ele>
        <time>2017-12-07T13:04:53Z</time>
      </trkpt>
      <trkpt lat="44.48614" lon="4.66714">
        <ele>100</ele>
        <time>2017-12-07T13:05:05Z</time>
      </trkpt>
      <trkpt lat="44.48617" lon="4.6672">
        <ele>100</ele>
        <time>2017-12-07T13:05:09Z</time>
      </trkpt>
      <trkpt lat="44.4862" lon="4.66733">
        <ele>100</ele>
        <time>2017-12-07T13:05:21Z</time>
      </trkpt>
      <trkpt lat="44.48622" lon="4.66749">
        <ele>100</ele>
        <time>2017-12-07T13:05:32Z</time>
      </trkpt>
      <trkpt lat="44.48624" lon="4.66756">
        <ele>101</ele>
        <time>2017-12-07T13:05:38Z</time>
      </trkpt>
      <trkpt lat="44.48625" lon="4.66766">
        <ele>101</ele>
        <time>2017-12-07T13:05:45Z</time>
      </trkpt>
      <trkpt lat="44.48625" lon="4.66768">
        <ele>102</ele>
        <time>2017-12-07T13:05:50Z</time>
      </trkpt>
      <trkpt lat="44.48625" lon="4.66771">
        <ele>102</ele>
        <time>2017-12-07T13:06:02Z</time>
      </trkpt>
      <trkpt lat="44.48625" lon="4.66772">
        <ele>102</ele>
        <time>2017-12-07T13:06:03Z</time>
      </trkpt>
      <trkpt lat="44.48625" lon="4.66776">
        <ele>102</ele>
        <time>2017-12-07T13:06:08Z</time>
      </trkpt>
      <trkpt lat="44.48629" lon="4.66787">
        <ele>101</ele>
        <time>2017-12-07T13:06:19Z</time>
      </trkpt>
      <trkpt lat="44.48636" lon="4.66805">
        <ele>100</ele>
        <time>2017-12-07T13:06:32Z</time>
      </trkpt>
      <trkpt lat="44.48642" lon="4.6682">
        <ele>99</ele>
        <time>2017-12-07T13:06:45Z</time>
      </trkpt>
      <trkpt lat="44.48649" lon="4.66837">
        <ele>98</ele>
        <time>2017-12-07T13:06:58Z</time>
      </trkpt>
      <trkpt lat="44.48654" lon="4.66849">
        <ele>97</ele>
        <time>2017-12-07T13:07:09Z</time>
      </trkpt>
      <trkpt lat="44.48664" lon="4.66867">
        <ele>96</ele>
        <time>2017-12-07T13:07:24Z</time>
      </trkpt>
      <trkpt lat="44.48676" lon="4.66888">
        <ele>95</ele>
        <time>2017-12-07T13:07:38Z</time>
      </trkpt>
      <trkpt lat="44.48682" lon="4.66901">
        <ele>94</ele>
        <time>2017-12-07T13:07:50Z</time>
      </trkpt>
      <trkpt lat="44.4869" lon="4.66914">
        <ele>93</ele>
        <time>2017-12-07T13:08:01Z</time>
      </trkpt>
      <trkpt lat="44.48696" lon="4.66926">
        <ele>92</ele>
        <time>2017-12-07T13:08:12Z</time>
      </trkpt>
      <trkpt lat="44.48696" lon="4.66928">
        <ele>92</ele>
        <time>2017-12-07T13:08:14Z</time>
      </trkpt>
      <trkpt lat="44.48697" lon="4.66931">
        <ele>92</ele>
        <time>2017-12-07T13:08:16Z</time>
      </trkpt>
      <trkpt lat="44.48698" lon="4.66933">
        <ele>92</ele>
        <time>2017-12-07T13:08:17Z</time>
      </trkpt>
      <trkpt lat="44.48699" lon="4.66936">
        <ele>92</ele>
        <time>2017-12-07T13:08:18Z</time>
      </trkpt>
      <trkpt lat="44.487" lon="4.66938">
        <ele>92</ele>
        <time>2017-12-07T13:08:19Z</time>
      </trkpt>
      <trkpt lat="44.48701" lon="4.6694">
        <ele>92</ele>
        <time>2017-12-07T13:08:20Z</time>
      </trkpt>
      <trkpt lat="44.48701" lon="4.66941">
        <ele>92</ele>
        <time>2017-12-07T13:08:21Z</time>
      </trkpt>
      <trkpt lat="44.48707" lon="4.66955">
        <ele>91</ele>
        <time>2017-12-07T13:08:35Z</time>
      </trkpt>
      <trkpt lat="44.48719" lon="4.66968">
        <ele>90</ele>
        <time>2017-12-07T13:08:48Z</time>
      </trkpt>
      <trkpt lat="44.48726" lon="4.66977">
        <ele>89</ele>
        <time>2017-12-07T13:09:01Z</time>
      </trkpt>
      <trkpt lat="44.48726" lon="4.66979">
        <ele>89</ele>
        <time>2017-12-07T13:09:13Z</time>
      </trkpt>
      <trkpt lat="44.48729" lon="4.66998">
        <ele>89</ele>
        <time>2017-12-07T13:09:28Z</time>
      </trkpt>
      <trkpt lat="44.48741" lon="4.6702">
        <ele>88</ele>
        <time>2017-12-07T13:09:40Z</time>
      </trkpt>
      <trkpt lat="44.48752" lon="4.67031">
        <ele>86</ele>
        <time>2017-12-07T13:09:57Z</time>
      </trkpt>
      <trkpt lat="44.48756" lon="4.67034">
        <ele>86</ele>
        <time>2017-12-07T13:10:00Z</time>
      </trkpt>
      <trkpt lat="44.48757" lon="4.67035">
        <ele>86</ele>
        <time>2017-12-07T13:10:01Z</time>
      </trkpt>
      <trkpt lat="44.48757" lon="4.67036">
        <ele>86</ele>
        <time>2017-12-07T13:10:02Z</time>
      </trkpt>
      <trkpt lat="44.48758" lon="4.67037">
        <ele>86</ele>
        <time>2017-12-07T13:10:03Z</time>
      </trkpt>
      <trkpt lat="44.48759" lon="4.67038">
        <ele>86</ele>
        <time>2017-12-07T13:10:04Z</time>
      </trkpt>
      <trkpt lat="44.4876" lon="4.6704">
        <ele>86</ele>
        <time>2017-12-07T13:10:05Z</time>
      </trkpt>
      <trkpt lat="44.48761" lon="4.67041">
        <ele>85</ele>
        <time>2017-12-07T13:10:06Z</time>
      </trkpt>
      <trkpt lat="44.48762" lon="4.67042">
        <ele>85</ele>
        <time>2017-12-07T13:10:07Z</time>
      </trkpt>
      <trkpt lat="44.48776" lon="4.67066">
        <ele>84</ele>
        <time>2017-12-07T13:10:26Z</time>
      </trkpt>
      <trkpt lat="44.48793" lon="4.67095">
        <ele>82</ele>
        <time>2017-12-07T13:10:49Z</time>
      </trkpt>
      <trkpt lat="44.48801" lon="4.67119">
        <ele>80</ele>
        <time>2017-12-07T13:11:07Z</time>
      </trkpt>
      <trkpt lat="44.48805" lon="4.67135">
        <ele>79</ele>
        <time>2017-12-07T13:11:20Z</time>
      </trkpt>
      <trkpt lat="44.48806" lon="4.67139">
        <ele>78</ele>
        <time>2017-12-07T13:11:29Z</time>
      </trkpt>
      <trkpt lat="44.48808" lon="4.67146">
        <ele>78</ele>
        <time>2017-12-07T13:11:35Z</time>
      </trkpt>
      <trkpt lat="44.48809" lon="4.67148">
        <ele>78</ele>
        <time>2017-12-07T13:11:36Z</time>
      </trkpt>
      <trkpt lat="44.48809" lon="4.6715">
        <ele>78</ele>
        <time>2017-12-07T13:11:37Z</time>
      </trkpt>
      <trkpt lat="44.48812" lon="4.6717">
        <ele>78</ele>
        <time>2017-12-07T13:11:50Z</time>
      </trkpt>
      <trkpt lat="44.48813" lon="4.67178">
        <ele>78</ele>
        <time>2017-12-07T13:12:04Z</time>
      </trkpt>
      <trkpt lat="44.48812" lon="4.67182">
        <ele>78</ele>
        <time>2017-12-07T13:12:09Z</time>
      </trkpt>
      <trkpt lat="44.48814" lon="4.67183">
        <ele>78</ele>
        <time>2017-12-07T13:12:10Z</time>
      </trkpt>
      <trkpt lat="44.48815" lon="4.67183">
        <ele>78</ele>
        <time>2017-12-07T13:12:11Z</time>
      </trkpt>
      <trkpt lat="44.48819" lon="4.67182">
        <ele>78</ele>
        <time>2017-12-07T13:12:16Z</time>
      </trkpt>
      <trkpt lat="44.48822" lon="4.67182">
        <ele>78</ele>
        <time>2017-12-07T13:12:24Z</time>
      </trkpt>
      <trkpt lat="44.48827" lon="4.67181">
        <ele>78</ele>
        <time>2017-12-07T13:12:30Z</time>
      </trkpt>
      <trkpt lat="44.4883" lon="4.67181">
        <ele>79</ele>
        <time>2017-12-07T13:12:33Z</time>
      </trkpt>
      <trkpt lat="44.48832" lon="4.6718">
        <ele>78</ele>
        <time>2017-12-07T13:12:48Z</time>
      </trkpt>
      <trkpt lat="44.48833" lon="4.67179">
        <ele>78</ele>
        <time>2017-12-07T13:12:49Z</time>
      </trkpt>
      <trkpt lat="44.48835" lon="4.6718">
        <ele>79</ele>
        <time>2017-12-07T13:13:03Z</time>
      </trkpt>
      <trkpt lat="44.48835" lon="4.67178">
        <ele>79</ele>
        <time>2017-12-07T13:13:21Z</time>
      </trkpt>
      <trkpt lat="44.48835" lon="4.67178">
        <ele>79</ele>
        <time>2017-12-07T13:13:32Z</time>
      </trkpt>
      <trkpt lat="44.48836" lon="4.67178">
        <ele>79</ele>
        <time>2017-12-07T13:13:47Z</time>
      </trkpt>
      <trkpt lat="44.48836" lon="4.6718">
        <ele>79</ele>
        <time>2017-12-07T13:14:01Z</time>
      </trkpt>
      <trkpt lat="44.48835" lon="4.67178">
        <ele>79</ele>
        <time>2017-12-07T13:14:19Z</time>
      </trkpt>
      <trkpt lat="44.48835" lon="4.67179">
        <ele>79</ele>
        <time>2017-12-07T13:14:31Z</time>
      </trkpt>
      <trkpt lat="44.48835" lon="4.67179">
        <ele>79</ele>
        <time>2017-12-07T13:14:44Z</time>
      </trkpt>
      <trkpt lat="44.48835" lon="4.6718">
        <ele>79</ele>
        <time>2017-12-07T13:15:04Z</time>
      </trkpt>
      <trkpt lat="44.48834" lon="4.67178">
        <ele>79</ele>
        <time>2017-12-07T13:15:25Z</time>
      </trkpt>
      <trkpt lat="44.48835" lon="4.67178">
        <ele>79</ele>
        <time>2017-12-07T13:15:42Z</time>
      </trkpt>
      <trkpt lat="44.48834" lon="4.67178">
        <ele>79</ele>
        <time>2017-12-07T13:16:05Z</time>
      </trkpt>
      <trkpt lat="44.48833" lon="4.67181">
        <ele>79</ele>
        <time>2017-12-07T13:16:25Z</time>
      </trkpt>
      <trkpt lat="44.48831" lon="4.67181">
        <ele>78</ele>
        <time>2017-12-07T13:16:29Z</time>
      </trkpt>
      <trkpt lat="44.48821" lon="4.67184">
        <ele>78</ele>
        <time>2017-12-07T13:16:41Z</time>
      </trkpt>
      <trkpt lat="44.48814" lon="4.67186">
        <ele>77</ele>
        <time>2017-12-07T13:16:51Z</time>
      </trkpt>
      <trkpt lat="44.48811" lon="4.67189">
        <ele>77</ele>
        <time>2017-12-07T13:16:56Z</time>
      </trkpt>
      <trkpt lat="44.48811" lon="4.6721">
        <ele>77</ele>
        <time>2017-12-07T13:17:11Z</time>
      </trkpt>
      <trkpt lat="44.48808" lon="4.67232">
        <ele>77</ele>
        <time>2017-12-07T13:17:27Z</time>
      </trkpt>
      <trkpt lat="44.48807" lon="4.6725">
        <ele>77</ele>
        <time>2017-12-07T13:17:41Z</time>
      </trkpt>
      <trkpt lat="44.48806" lon="4.67268">
        <ele>76</ele>
        <time>2017-12-07T13:17:55Z</time>
      </trkpt>
      <trkpt lat="44.48802" lon="4.67287">
        <ele>76</ele>
        <time>2017-12-07T13:18:06Z</time>
      </trkpt>
      <trkpt lat="44.488" lon="4.67298">
        <ele>76</ele>
        <time>2017-12-07T13:18:17Z</time>
      </trkpt>
      <trkpt lat="44.48797" lon="4.67301">
        <ele>76</ele>
        <time>2017-12-07T13:18:34Z</time>
      </trkpt>
      <trkpt lat="44.48796" lon="4.67303">
        <ele>76</ele>
        <time>2017-12-07T13:18:35Z</time>
      </trkpt>
      <trkpt lat="44.48795" lon="4.67309">
        <ele>76</ele>
        <time>2017-12-07T13:18:41Z</time>
      </trkpt>
      <trkpt lat="44.48794" lon="4.6731">
        <ele>76</ele>
        <time>2017-12-07T13:18:42Z</time>
      </trkpt>
      <trkpt lat="44.48788" lon="4.67321">
        <ele>76</ele>
        <time>2017-12-07T13:18:49Z</time>
      </trkpt>
      <trkpt lat="44.48787" lon="4.67323">
        <ele>76</ele>
        <time>2017-12-07T13:18:50Z</time>
      </trkpt>
      <trkpt lat="44.48787" lon="4.67325">
        <ele>76</ele>
        <time>2017-12-07T13:18:51Z</time>
      </trkpt>
      <trkpt lat="44.48782" lon="4.67334">
        <ele>76</ele>
        <time>2017-12-07T13:19:01Z</time>
      </trkpt>
      <trkpt lat="44.48779" lon="4.67342">
        <ele>76</ele>
        <time>2017-12-07T13:19:09Z</time>
      </trkpt>
      <trkpt lat="44.48778" lon="4.67344">
        <ele>76</ele>
        <time>2017-12-07T13:19:10Z</time>
      </trkpt>
      <trkpt lat="44.48774" lon="4.67357">
        <ele>76</ele>
        <time>2017-12-07T13:19:18Z</time>
      </trkpt>
      <trkpt lat="44.48774" lon="4.67359">
        <ele>76</ele>
        <time>2017-12-07T13:19:19Z</time>
      </trkpt>
      <trkpt lat="44.48768" lon="4.67374">
        <ele>76</ele>
        <time>2017-12-07T13:19:30Z</time>
      </trkpt>
      <trkpt lat="44.48762" lon="4.67393">
        <ele>76</ele>
        <time>2017-12-07T13:19:42Z</time>
      </trkpt>
      <trkpt lat="44.48761" lon="4.67394">
        <ele>76</ele>
        <time>2017-12-07T13:19:44Z</time>
      </trkpt>
      <trkpt lat="44.48761" lon="4.67396">
        <ele>76</ele>
        <time>2017-12-07T13:19:45Z</time>
      </trkpt>
      <trkpt lat="44.48758" lon="4.67405">
        <ele>78</ele>
        <time>2017-12-07T13:19:55Z</time>
      </trkpt>
      <trkpt lat="44.48758" lon="4.67407">
        <ele>78</ele>
        <time>2017-12-07T13:19:56Z</time>
      </trkpt>
      <trkpt lat="44.48757" lon="4.67409">
        <ele>78</ele>
        <time>2017-12-07T13:19:57Z</time>
      </trkpt>
      <trkpt lat="44.48757" lon="4.67411">
        <ele>78</ele>
        <time>2017-12-07T13:19:58Z</time>
      </trkpt>
      <trkpt lat="44.48747" lon="4.67426">
        <ele>78</ele>
        <time>2017-12-07T13:20:13Z</time>
      </trkpt>
      <trkpt lat="44.48737" lon="4.67445">
        <ele>79</ele>
        <time>2017-12-07T13:20:27Z</time>
      </trkpt>
      <trkpt lat="44.48732" lon="4.67457">
        <ele>79</ele>
        <time>2017-12-07T13:20:40Z</time>
      </trkpt>
      <trkpt lat="44.48728" lon="4.67466">
        <ele>79</ele>
        <time>2017-12-07T13:20:48Z</time>
      </trkpt>
      <trkpt lat="44.48726" lon="4.6747">
        <ele>79</ele>
        <time>2017-12-07T13:20:51Z</time>
      </trkpt>
      <trkpt lat="44.48723" lon="4.67478">
        <ele>79</ele>
        <time>2017-12-07T13:20:56Z</time>
      </trkpt>
      <trkpt lat="44.48722" lon="4.67479">
        <ele>79</ele>
        <time>2017-12-07T13:20:57Z</time>
      </trkpt>
      <trkpt lat="44.48722" lon="4.6748">
        <ele>78</ele>
        <time>2017-12-07T13:20:58Z</time>
      </trkpt>
      <trkpt lat="44.48718" lon="4.67484">
        <ele>78</ele>
        <time>2017-12-07T13:21:04Z</time>
      </trkpt>
      <trkpt lat="44.48711" lon="4.67502">
        <ele>77</ele>
        <time>2017-12-07T13:21:18Z</time>
      </trkpt>
      <trkpt lat="44.48703" lon="4.6752">
        <ele>77</ele>
        <time>2017-12-07T13:21:32Z</time>
      </trkpt>
      <trkpt lat="44.48703" lon="4.67522">
        <ele>77</ele>
        <time>2017-12-07T13:21:33Z</time>
      </trkpt>
      <trkpt lat="44.48702" lon="4.67524">
        <ele>77</ele>
        <time>2017-12-07T13:21:34Z</time>
      </trkpt>
      <trkpt lat="44.48701" lon="4.67526">
        <ele>77</ele>
        <time>2017-12-07T13:21:35Z</time>
      </trkpt>
      <trkpt lat="44.48701" lon="4.67527">
        <ele>77</ele>
        <time>2017-12-07T13:21:36Z</time>
      </trkpt>
      <trkpt lat="44.48692" lon="4.67541">
        <ele>77</ele>
        <time>2017-12-07T13:21:48Z</time>
      </trkpt>
      <trkpt lat="44.48684" lon="4.67554">
        <ele>76</ele>
        <time>2017-12-07T13:22:00Z</time>
      </trkpt>
      <trkpt lat="44.48675" lon="4.67574">
        <ele>76</ele>
        <time>2017-12-07T13:22:15Z</time>
      </trkpt>
      <trkpt lat="44.4867" lon="4.67582">
        <ele>76</ele>
        <time>2017-12-07T13:22:24Z</time>
      </trkpt>
      <trkpt lat="44.48667" lon="4.67588">
        <ele>76</ele>
        <time>2017-12-07T13:22:29Z</time>
      </trkpt>
      <trkpt lat="44.48667" lon="4.67589">
        <ele>76</ele>
        <time>2017-12-07T13:22:30Z</time>
      </trkpt>
      <trkpt lat="44.48666" lon="4.67591">
        <ele>76</ele>
        <time>2017-12-07T13:22:31Z</time>
      </trkpt>
      <trkpt lat="44.48659" lon="4.67605">
        <ele>76</ele>
        <time>2017-12-07T13:22:45Z</time>
      </trkpt>
      <trkpt lat="44.48653" lon="4.67616">
        <ele>76</ele>
        <time>2017-12-07T13:22:55Z</time>
      </trkpt>
      <trkpt lat="44.48642" lon="4.67636">
        <ele>76</ele>
        <time>2017-12-07T13:23:08Z</time>
      </trkpt>
      <trkpt lat="44.48639" lon="4.6764">
        <ele>76</ele>
        <time>2017-12-07T13:23:12Z</time>
      </trkpt>
      <trkpt lat="44.48633" lon="4.67653">
        <ele>76</ele>
        <time>2017-12-07T13:23:24Z</time>
      </trkpt>
      <trkpt lat="44.48624" lon="4.67669">
        <ele>75</ele>
        <time>2017-12-07T13:23:38Z</time>
      </trkpt>
      <trkpt lat="44.48624" lon="4.67671">
        <ele>75</ele>
        <time>2017-12-07T13:23:39Z</time>
      </trkpt>
      <trkpt lat="44.48623" lon="4.67672">
        <ele>75</ele>
        <time>2017-12-07T13:23:40Z</time>
      </trkpt>
      <trkpt lat="44.48622" lon="4.67674">
        <ele>75</ele>
        <time>2017-12-07T13:23:41Z</time>
      </trkpt>
      <trkpt lat="44.4862" lon="4.67677">
        <ele>75</ele>
        <time>2017-12-07T13:23:45Z</time>
      </trkpt>
      <trkpt lat="44.4862" lon="4.67678">
        <ele>75</ele>
        <time>2017-12-07T13:23:46Z</time>
      </trkpt>
      <trkpt lat="44.48619" lon="4.6768">
        <ele>75</ele>
        <time>2017-12-07T13:23:47Z</time>
      </trkpt>
      <trkpt lat="44.48618" lon="4.67683">
        <ele>75</ele>
        <time>2017-12-07T13:23:48Z</time>
      </trkpt>
      <trkpt lat="44.48618" lon="4.67685">
        <ele>75</ele>
        <time>2017-12-07T13:23:49Z</time>
      </trkpt>
      <trkpt lat="44.48609" lon="4.67698">
        <ele>75</ele>
        <time>2017-12-07T13:24:01Z</time>
      </trkpt>
      <trkpt lat="44.48608" lon="4.67706">
        <ele>75</ele>
        <time>2017-12-07T13:24:05Z</time>
      </trkpt>
      <trkpt lat="44.486" lon="4.67716">
        <ele>75</ele>
        <time>2017-12-07T13:24:18Z</time>
      </trkpt>
      <trkpt lat="44.48599" lon="4.67717">
        <ele>75</ele>
        <time>2017-12-07T13:24:21Z</time>
      </trkpt>
      <trkpt lat="44.48598" lon="4.67719">
        <ele>75</ele>
        <time>2017-12-07T13:24:22Z</time>
      </trkpt>
      <trkpt lat="44.48597" lon="4.67721">
        <ele>75</ele>
        <time>2017-12-07T13:24:23Z</time>
      </trkpt>
      <trkpt lat="44.48596" lon="4.67723">
        <ele>75</ele>
        <time>2017-12-07T13:24:24Z</time>
      </trkpt>
      <trkpt lat="44.48595" lon="4.67724">
        <ele>75</ele>
        <time>2017-12-07T13:24:25Z</time>
      </trkpt>
      <trkpt lat="44.4859" lon="4.67732">
        <ele>75</ele>
        <time>2017-12-07T13:24:36Z</time>
      </trkpt>
      <trkpt lat="44.4859" lon="4.67734">
        <ele>75</ele>
        <time>2017-12-07T13:24:37Z</time>
      </trkpt>
      <trkpt lat="44.48589" lon="4.67736">
        <ele>75</ele>
        <time>2017-12-07T13:24:38Z</time>
      </trkpt>
      <trkpt lat="44.48583" lon="4.67753">
        <ele>75</ele>
        <time>2017-12-07T13:24:50Z</time>
      </trkpt>
      <trkpt lat="44.48579" lon="4.67764">
        <ele>75</ele>
        <time>2017-12-07T13:25:01Z</time>
      </trkpt>
      <trkpt lat="44.48569" lon="4.67776">
        <ele>75</ele>
        <time>2017-12-07T13:25:14Z</time>
      </trkpt>
      <trkpt lat="44.48562" lon="4.67789">
        <ele>75</ele>
        <time>2017-12-07T13:25:26Z</time>
      </trkpt>
      <trkpt lat="44.48554" lon="4.67807">
        <ele>75</ele>
        <time>2017-12-07T13:25:39Z</time>
      </trkpt>
      <trkpt lat="44.48553" lon="4.67808">
        <ele>75</ele>
        <time>2017-12-07T13:25:40Z</time>
      </trkpt>
      <trkpt lat="44.48546" lon="4.67823">
        <ele>76</ele>
        <time>2017-12-07T13:25:52Z</time>
      </trkpt>
      <trkpt lat="44.48543" lon="4.67831">
        <ele>77</ele>
        <time>2017-12-07T13:25:58Z</time>
      </trkpt>
      <trkpt lat="44.48539" lon="4.67846">
        <ele>77</ele>
        <time>2017-12-07T13:26:09Z</time>
      </trkpt>
      <trkpt lat="44.48538" lon="4.67851">
        <ele>77</ele>
        <time>2017-12-07T13:26:13Z</time>
      </trkpt>
      <trkpt lat="44.48533" lon="4.67869">
        <ele>77</ele>
        <time>2017-12-07T13:26:28Z</time>
      </trkpt>
      <trkpt lat="44.4853" lon="4.67889">
        <ele>78</ele>
        <time>2017-12-07T13:26:42Z</time>
      </trkpt>
      <trkpt lat="44.48529" lon="4.67891">
        <ele>78</ele>
        <time>2017-12-07T13:26:43Z</time>
      </trkpt>
      <trkpt lat="44.48528" lon="4.67892">
        <ele>78</ele>
        <time>2017-12-07T13:26:44Z</time>
      </trkpt>
      <trkpt lat="44.48521" lon="4.67902">
        <ele>78</ele>
        <time>2017-12-07T13:26:52Z</time>
      </trkpt>
      <trkpt lat="44.4852" lon="4.67902">
        <ele>78</ele>
        <time>2017-12-07T13:26:53Z</time>
      </trkpt>
      <trkpt lat="44.48505" lon="4.67907">
        <ele>77</ele>
        <time>2017-12-07T13:27:07Z</time>
      </trkpt>
      <trkpt lat="44.4849" lon="4.67909">
        <ele>77</ele>
        <time>2017-12-07T13:27:21Z</time>
      </trkpt>
      <trkpt lat="44.48488" lon="4.67908">
        <ele>78</ele>
        <time>2017-12-07T13:27:23Z</time>
      </trkpt>
      <trkpt lat="44.48476" lon="4.67907">
        <ele>78</ele>
        <time>2017-12-07T13:27:34Z</time>
      </trkpt>
      <trkpt lat="44.48473" lon="4.67906">
        <ele>78</ele>
        <time>2017-12-07T13:27:37Z</time>
      </trkpt>
      <trkpt lat="44.48458" lon="4.67908">
        <ele>78</ele>
        <time>2017-12-07T13:27:52Z</time>
      </trkpt>
      <trkpt lat="44.48445" lon="4.67906">
        <ele>78</ele>
        <time>2017-12-07T13:28:05Z</time>
      </trkpt>
      <trkpt lat="44.48441" lon="4.67907">
        <ele>78</ele>
        <time>2017-12-07T13:28:09Z</time>
      </trkpt>
      <trkpt lat="44.4844" lon="4.67907">
        <ele>79</ele>
        <time>2017-12-07T13:28:10Z</time>
      </trkpt>
      <trkpt lat="44.48439" lon="4.67907">
        <ele>79</ele>
        <time>2017-12-07T13:28:11Z</time>
      </trkpt>
      <trkpt lat="44.48437" lon="4.67908">
        <ele>79</ele>
        <time>2017-12-07T13:28:12Z</time>
      </trkpt>
      <trkpt lat="44.48436" lon="4.67908">
        <ele>79</ele>
        <time>2017-12-07T13:28:13Z</time>
      </trkpt>
      <trkpt lat="44.48421" lon="4.67906">
        <ele>79</ele>
        <time>2017-12-07T13:28:26Z</time>
      </trkpt>
      <trkpt lat="44.48406" lon="4.67907">
        <ele>80</ele>
        <time>2017-12-07T13:28:40Z</time>
      </trkpt>
      <trkpt lat="44.48392" lon="4.67912">
        <ele>80</ele>
        <time>2017-12-07T13:28:54Z</time>
      </trkpt>
      <trkpt lat="44.4839" lon="4.67914">
        <ele>80</ele>
        <time>2017-12-07T13:28:57Z</time>
      </trkpt>
      <trkpt lat="44.48389" lon="4.67915">
        <ele>80</ele>
        <time>2017-12-07T13:28:58Z</time>
      </trkpt>
      <trkpt lat="44.48388" lon="4.67916">
        <ele>80</ele>
        <time>2017-12-07T13:28:59Z</time>
      </trkpt>
      <trkpt lat="44.48386" lon="4.67917">
        <ele>80</ele>
        <time>2017-12-07T13:29:00Z</time>
      </trkpt>
      <trkpt lat="44.48385" lon="4.67917">
        <ele>80</ele>
        <time>2017-12-07T13:29:01Z</time>
      </trkpt>
      <trkpt lat="44.48383" lon="4.67918">
        <ele>81</ele>
        <time>2017-12-07T13:29:02Z</time>
      </trkpt>
      <trkpt lat="44.4837" lon="4.67922">
        <ele>81</ele>
        <time>2017-12-07T13:29:14Z</time>
      </trkpt>
      <trkpt lat="44.48358" lon="4.67923">
        <ele>82</ele>
        <time>2017-12-07T13:29:26Z</time>
      </trkpt>
      <trkpt lat="44.48354" lon="4.67925">
        <ele>83</ele>
        <time>2017-12-07T13:29:31Z</time>
      </trkpt>
      <trkpt lat="44.48353" lon="4.67926">
        <ele>83</ele>
        <time>2017-12-07T13:29:32Z</time>
      </trkpt>
      <trkpt lat="44.48351" lon="4.67927">
        <ele>83</ele>
        <time>2017-12-07T13:29:33Z</time>
      </trkpt>
      <trkpt lat="44.48347" lon="4.67931">
        <ele>83</ele>
        <time>2017-12-07T13:29:37Z</time>
      </trkpt>
      <trkpt lat="44.48346" lon="4.67933">
        <ele>83</ele>
        <time>2017-12-07T13:29:38Z</time>
      </trkpt>
      <trkpt lat="44.48335" lon="4.67944">
        <ele>84</ele>
        <time>2017-12-07T13:29:53Z</time>
      </trkpt>
      <trkpt lat="44.48334" lon="4.67945">
        <ele>84</ele>
        <time>2017-12-07T13:29:54Z</time>
      </trkpt>
      <trkpt lat="44.48332" lon="4.67945">
        <ele>84</ele>
        <time>2017-12-07T13:29:55Z</time>
      </trkpt>
      <trkpt lat="44.4832" lon="4.67947">
        <ele>85</ele>
        <time>2017-12-07T13:30:06Z</time>
      </trkpt>
      <trkpt lat="44.48318" lon="4.67948">
        <ele>85</ele>
        <time>2017-12-07T13:30:10Z</time>
      </trkpt>
      <trkpt lat="44.48317" lon="4.67948">
        <ele>85</ele>
        <time>2017-12-07T13:30:11Z</time>
      </trkpt>
      <trkpt lat="44.48315" lon="4.67949">
        <ele>85</ele>
        <time>2017-12-07T13:30:12Z</time>
      </trkpt>
      <trkpt lat="44.48314" lon="4.67949">
        <ele>85</ele>
        <time>2017-12-07T13:30:13Z</time>
      </trkpt>
      <trkpt lat="44.48313" lon="4.6795">
        <ele>85</ele>
        <time>2017-12-07T13:30:14Z</time>
      </trkpt>
      <trkpt lat="44.48305" lon="4.67952">
        <ele>86</ele>
        <time>2017-12-07T13:30:22Z</time>
      </trkpt>
      <trkpt lat="44.48288" lon="4.67952">
        <ele>87</ele>
        <time>2017-12-07T13:30:39Z</time>
      </trkpt>
      <trkpt lat="44.48287" lon="4.67952">
        <ele>87</ele>
        <time>2017-12-07T13:30:40Z</time>
      </trkpt>
      <trkpt lat="44.48281" lon="4.67952">
        <ele>87</ele>
        <time>2017-12-07T13:30:46Z</time>
      </trkpt>
      <trkpt lat="44.48278" lon="4.67952">
        <ele>87</ele>
        <time>2017-12-07T13:30:48Z</time>
      </trkpt>
      <trkpt lat="44.48276" lon="4.67951">
        <ele>87</ele>
        <time>2017-12-07T13:30:49Z</time>
      </trkpt>
      <trkpt lat="44.48269" lon="4.67949">
        <ele>88</ele>
        <time>2017-12-07T13:30:57Z</time>
      </trkpt>
      <trkpt lat="44.48268" lon="4.67949">
        <ele>88</ele>
        <time>2017-12-07T13:30:58Z</time>
      </trkpt>
      <trkpt lat="44.48258" lon="4.67947">
        <ele>88</ele>
        <time>2017-12-07T13:31:08Z</time>
      </trkpt>
      <trkpt lat="44.48257" lon="4.67947">
        <ele>89</ele>
        <time>2017-12-07T13:31:09Z</time>
      </trkpt>
      <trkpt lat="44.48254" lon="4.67947">
        <ele>89</ele>
        <time>2017-12-07T13:31:14Z</time>
      </trkpt>
      <trkpt lat="44.48251" lon="4.67947">
        <ele>89</ele>
        <time>2017-12-07T13:31:28Z</time>
      </trkpt>
      <trkpt lat="44.4825" lon="4.67946">
        <ele>89</ele>
        <time>2017-12-07T13:31:39Z</time>
      </trkpt>
      <trkpt lat="44.4825" lon="4.67947">
        <ele>89</ele>
        <time>2017-12-07T13:31:55Z</time>
      </trkpt>
      <trkpt lat="44.4825" lon="4.67947">
        <ele>90</ele>
        <time>2017-12-07T13:32:13Z</time>
      </trkpt>
      <trkpt lat="44.48251" lon="4.67946">
        <ele>89</ele>
        <time>2017-12-07T13:32:40Z</time>
      </trkpt>
    </trkseg>
  </trk>
</gpx>